[[{"header":{"parameterUnit":"m.s-1","parameterCategory":1,"la1":30.6,"la2":28.766,"lo1":-90.7593,"lo2":-88.6598,"dy":0.0162,"dx":0.0183,"nx":116,"ny":114,"refTime":"2023-08-12T12:00:00:Z","depth":0,"parameterNumber":2,"parameterNumberName":"U-component_of_WINDS"},"data":[0.0,0.0,0.0,0.0,0.0,0.0,0.0,0.0,0.0,0.0,0.0,0.0,0.0,0.0,0.0,0.0,0.0,0.0,0.0,0.0,0.0,0.0,0.0,0.0,0.0,0.0,0.0,0.0,0.0,0.0,0.0,0.0,0.0,0.0,0.0,0.0,0.0,0.0,0.0,0.0,0.0,0.0,0.0,0.0,0.0,0.0,0.0,0.0,0.0,0.0,0.0,0.0,0.0,0.0,0.0,0.0,0.0,0.0,0.0,0.0,0.0,0.0,0.0,0.0,0.0,0.0,0.0,0.0,0.0,0.0,0.0,0.0,0.0,0.0,0.0,0.0,0.0,0.0,0.0,0.0,0.0,0.0,0.0,0.0,0.0,0.0,0.0,0.0,0.0,0.0,0.0,0.0,0.0,0.0,0.0,0.0,0.0,0.0,0.0,0.0,0.0,0.0,0.0,0.0,0.0,0.0,0.0,0.0,0.0,0.0,0.0,0.0,0.0,0.0,0.0,0.0,0.0,0.0,0.0,0.0,0.0,0.0,0.0,0.0,0.0,0.0,0.0,0.0,0.0,0.0,0.0,0.0,0.0,0.0,0.0,0.0,0.0,0.0,0.0,0.0,0.0,0.0,0.0,0.0,0.0,0.0,0.0,0.0,0.0,0.0,0.0,0.0,0.0,0.0,0.0,0.0,0.0,0.0,0.0,0.0,0.0,0.0,0.0,0.0,0.0,0.0,0.0,0.0,0.0,0.0,0.0,0.0,0.0,0.0,0.0,0.0,0.0,0.0,0.0,0.0,0.0,0.0,0.0,0.0,0.0,0.0,0.0,0.0,0.0,0.0,0.0,0.0,0.0,0.0,0.0,0.0,0.0,0.0,0.0,0.0,0.0,0.0,0.0,0.0,0.0,0.0,0.0,0.0,0.0,0.0,0.0,0.0,0.0,0.0,0.0,0.0,0.0,0.0,0.0,0.0,0.0,0.0,0.0,0.0,0.0,0.0,0.0,0.0,0.0,0.0,0.0,0.0,0.0,0.0,0.0,0.0,0.0,0.0,0.0,0.0,0.0,0.0,0.0,0.0,0.0,0.0,0.0,0.0,0.0,0.0,0.0,0.0,0.0,0.0,0.0,0.0,0.0,0.0,0.0,0.0,0.0,0.0,0.0,0.0,0.0,0.0,0.0,0.0,0.0,0.0,0.0,0.0,0.0,0.0,0.0,0.0,0.0,0.0,0.0,0.0,0.0,0.0,0.0,0.0,0.0,0.0,0.0,0.0,0.0,0.0,0.0,0.0,0.0,0.0,0.0,0.0,0.0,0.0,0.0,0.0,0.0,0.0,0.0,0.0,0.0,0.0,0.0,0.0,0.0,0.0,0.0,0.0,0.0,0.0,0.0,0.0,0.0,0.0,0.0,0.0,0.0,0.0,0.0,0.0,0.0,0.0,0.0,0.0,0.0,0.0,0.0,0.0,0.0,0.0,0.0,0.0,0.0,0.0,0.0,0.0,0.0,0.0,0.0,0.0,0.0,0.0,0.0,0.0,0.0,0.0,0.0,0.0,0.0,0.0,0.0,0.0,0.0,0.0,0.0,0.0,0.0,0.0,0.0,0.0,0.0,0.0,0.0,0.0,0.0,0.0,0.0,0.0,0.0,0.0,0.0,0.0,0.0,0.0,0.0,0.0,0.0,0.0,0.0,0.0,0.0,0.0,0.0,0.0,0.0,0.0,0.0,0.0,0.0,0.0,0.0,0.0,0.0,0.0,0.0,0.0,0.0,0.0,0.0,0.0,0.0,0.0,0.0,0.0,0.0,0.0,0.0,0.0,0.0,0.0,0.0,0.0,0.0,0.0,0.0,0.0,0.0,0.0,0.0,0.0,0.0,0.0,0.0,0.0,0.0,0.0,0.0,0.0,0.0,0.0,0.0,0.0,0.0,0.0,0.0,0.0,0.0,0.0,0.0,0.0,0.0,0.0,0.0,0.0,0.0,0.0,0.0,0.0,0.0,0.0,0.0,0.0,0.0,0.0,0.0,0.0,0.0,0.0,0.0,0.0,0.0,0.0,0.0,0.0,0.0,0.0,0.0,0.0,0.0,0.0,0.0,0.0,0.0,0.0,0.0,0.0,0.0,0.0,0.0,0.0,0.0,0.0,0.0,0.0,0.0,0.0,0.0,0.0,0.0,0.0,0.0,0.0,0.0,0.0,0.0,0.0,0.0,0.0,0.0,0.0,0.0,0.0,0.0,0.0,0.0,0.0,0.0,0.0,0.0,0.0,0.0,0.0,0.0,0.0,0.0,0.0,0.0,0.0,0.0,0.0,0.0,0.0,0.0,0.0,0.0,0.0,0.0,0.0,0.0,0.0,0.0,0.0,0.0,0.0,0.0,0.0,0.0,0.0,0.0,0.0,0.0,0.0,0.0,0.0,0.0,0.0,0.0,0.0,0.0,0.0,0.0,0.0,0.0,0.0,0.0,0.0,0.0,0.0,0.0,0.0,0.0,0.0,0.0,0.0,0.0,0.0,0.0,0.0,0.0,0.0,0.0,0.0,0.0,0.0,0.0,0.0,0.0,0.0,0.0,0.0,0.0,0.0,0.0,0.0,0.0,0.0,0.0,0.0,0.0,0.0,0.0,0.0,0.0,0.0,0.0,0.0,0.0,0.0,0.0,0.0,0.0,0.0,0.0,0.0,0.0,0.0,0.0,0.0,0.0,0.0,0.0,0.0,0.0,0.0,0.0,0.0,0.0,0.0,0.0,0.0,0.0,0.0,0.0,0.0,0.0,0.0,0.0,0.0,0.0,0.0,0.0,0.0,0.0,0.0,0.0,0.0,0.0,0.0,0.0,0.0,0.0,0.0,0.0,0.0,0.0,0.0,0.0,0.0,0.0,0.0,0.0,0.0,0.0,0.0,0.0,0.0,0.0,0.0,0.0,0.0,0.0,0.0,0.0,0.0,0.0,0.0,0.0,0.0,0.0,0.0,0.0,0.0,0.0,0.0,0.0,0.0,0.0,0.0,0.0,0.0,0.0,0.0,0.0,0.0,0.0,0.0,0.0,0.0,0.0,0.0,0.0,0.0,0.0,0.0,0.0,0.0,0.0,0.0,0.0,0.0,0.0,0.0,0.0,0.0,0.0,0.0,0.0,0.0,0.0,0.0,0.0,0.0,0.0,0.0,0.0,0.0,0.0,0.0,0.0,0.0,0.0,0.0,0.0,0.0,0.0,0.0,0.0,0.0,0.0,0.0,0.0,0.0,0.0,0.0,0.0,0.0,0.0,0.0,0.0,0.0,0.0,0.0,0.0,0.0,0.0,0.0,0.0,0.0,0.0,0.0,0.0,0.0,0.0,0.0,0.0,0.0,0.0,0.0,0.0,0.0,0.0,0.0,0.0,0.0,0.0,0.0,0.0,0.0,0.0,0.0,0.0,0.0,0.0,0.0,0.0,0.0,0.0,0.0,0.0,0.0,0.0,0.0,0.0,0.0,0.0,0.0,0.0,0.0,0.0,0.0,0.0,0.0,0.0,0.0,0.0,0.0,0.0,0.0,0.0,0.0,0.0,0.0,0.0,0.0,0.0,0.0,0.0,0.0,0.0,0.0,0.0,0.0,0.0,0.0,0.0,0.0,0.0,0.0,0.0,0.0,0.0,0.0,0.0,0.0,0.0,0.0,0.0,0.0,0.0,0.0,0.0,0.0,0.0,0.0,0.0,0.0,0.0,0.0,0.0,0.0,0.0,0.0,0.0,0.0,0.0,0.0,0.0,0.0,0.0,0.0,0.0,0.0,0.0,0.0,0.0,0.0,0.0,0.0,0.0,0.0,0.0,0.0,0.0,0.0,0.0,0.0,0.0,0.0,0.0,0.0,0.0,0.0,0.0,0.0,0.0,0.0,0.0,0.0,0.0,0.0,0.0,0.0,0.0,0.0,0.0,0.0,0.0,0.0,0.0,0.0,0.0,0.0,0.0,0.0,0.0,0.0,0.0,0.0,0.0,0.0,0.0,0.0,0.0,0.0,0.0,0.0,0.0,0.0,0.0,0.0,0.0,0.0,0.0,0.0,0.0,0.0,0.0,0.0,0.0,0.0,0.0,0.0,0.0,0.0,0.0,0.0,0.0,0.0,0.0,0.0,0.0,0.0,0.0,0.0,0.0,0.0,0.0,0.0,0.0,0.0,0.0,0.0,0.0,0.0,0.0,0.0,0.0,0.0,0.0,0.0,0.0,0.0,0.0,0.0,0.0,0.0,0.0,0.0,0.0,0.0,0.0,0.0,0.0,0.0,0.0,0.0,0.0,0.0,0.0,0.0,0.0,0.0,0.0,0.0,0.0,0.0,0.0,0.0,0.0,0.0,0.0,0.0,0.0,0.0,0.0,0.0,0.0,0.0,0.0,0.0,0.0,0.0,0.0,0.0,0.0,0.0,0.0,0.0,0.0,0.0,0.0,0.0,0.0,0.0,0.0,0.0,0.0,0.0,0.0,0.0,0.0,0.0,0.0,0.0,0.0,0.0,0.0,0.0,0.0,0.0,0.0,0.0,0.0,0.0,0.0,0.0,0.0,0.0,0.0,0.0,0.0,0.0,0.0,0.0,0.0,0.0,0.0,0.0,0.0,0.0,0.0,0.0,0.0,0.0,0.0,0.0,0.0,0.0,0.0,0.0,0.0,0.0,0.0,0.0,0.0,0.0,0.0,0.0,0.0,0.0,0.0,0.0,0.0,0.0,0.0,0.0,0.0,0.0,0.0,0.0,0.0,0.0,0.0,0.0,0.0,0.0,0.0,0.0,0.0,0.0,0.0,0.0,0.0,0.0,0.0,0.0,0.0,0.0,0.0,0.0,0.0,0.0,0.0,0.0,0.0,0.0,0.0,0.0,0.0,0.0,0.0,0.0,0.0,0.0,0.0,0.0,0.0,0.0,0.0,0.0,0.0,0.0,0.0,0.0,0.0,0.0,0.0,0.0,0.0,0.0,0.0,0.0,0.0,0.0,0.0,0.0,0.0,0.0,0.0,0.0,0.0,0.0,0.0,0.0,0.0,0.0,0.0,0.0,0.0,0.0,0.0,0.0,0.0,0.0,0.0,0.0,0.0,0.0,0.0,0.0,0.0,0.0,0.0,0.0,0.0,0.0,0.0,0.0,0.0,0.0,0.0,0.0,0.0,0.0,0.0,0.0,0.0,0.0,0.0,0.0,0.0,0.0,0.0,0.0,0.0,0.0,0.0,0.0,0.0,0.0,0.0,0.0,0.0,0.0,0.0,0.0,0.0,0.0,0.0,0.0,0.0,0.0,0.0,0.0,0.0,0.0,0.0,0.0,0.0,0.0,0.0,0.0,0.0,0.0,0.0,0.0,0.0,0.0,0.0,0.0,0.0,0.0,0.0,0.0,0.0,0.0,0.0,0.0,0.0,0.0,0.0,0.0,0.0,0.0,0.0,0.0,0.0,0.0,0.0,0.0,0.0,0.0,0.0,0.0,0.0,0.0,0.0,0.0,0.0,0.0,0.0,0.0,0.0,0.0,0.0,0.0,0.0,0.0,0.0,0.0,0.0,0.0,0.0,0.0,0.0,0.0,0.0,0.0,0.0,0.0,0.0,0.0,0.0,0.0,0.0,0.0,0.0,0.0,0.0,0.0,0.0,0.0,0.0,0.0,0.0,0.0,0.0,0.0,0.0,0.0,0.0,0.0,0.0,0.0,0.0,0.0,0.0,0.0,0.0,0.0,0.0,0.0,0.0,0.0,0.0,0.0,0.0,0.0,0.0,0.0,0.0,0.0,0.0,0.0,0.0,0.0,0.0,0.0,0.0,0.0,0.0,0.0,0.0,0.0,0.0,0.0,0.0,0.0,0.0,0.0,0.0,0.0,0.0,0.0,0.0,0.0,0.0,0.0,0.0,0.0,0.0,0.0,0.0,0.0,0.0,0.0,0.0,0.0,0.0,0.0,0.0,0.0,0.0,0.0,0.0,0.0,0.0,0.0,0.0,0.0,0.0,0.0,0.0,0.0,0.0,0.0,0.0,0.0,0.0,0.0,0.0,0.0,0.0,0.0,0.0,0.0,0.0,0.0,0.0,0.0,0.0,0.0,0.0,0.0,0.0,0.0,-1.684,0.0,0.0,0.0,0.0,0.0,0.0,0.0,0.0,0.0,0.0,0.0,0.0,0.0,0.0,0.0,0.0,0.0,0.0,0.0,0.0,0.0,0.0,0.0,0.0,0.0,0.0,0.0,0.0,0.0,0.0,0.0,0.0,0.0,0.0,0.0,0.0,0.0,0.0,0.0,0.0,-1.8578,-1.9037,-1.8716,-1.8516,-1.8394,0.0,0.0,0.0,0.0,0.0,0.0,0.0,0.0,0.0,0.0,0.0,0.0,0.0,0.0,0.0,0.0,0.0,0.0,0.0,0.0,0.0,0.0,0.0,0.0,0.0,0.0,0.0,0.0,0.0,0.0,0.0,0.0,0.0,0.0,0.0,0.0,0.0,0.0,0.0,0.0,0.0,0.0,0.0,0.0,0.0,0.0,0.0,0.0,0.0,0.0,0.0,0.0,0.0,0.0,0.0,0.0,0.0,0.0,0.0,0.0,0.0,0.0,0.0,0.0,0.0,0.0,0.0,0.0,0.0,0.0,0.0,-1.7651,0.0,0.0,0.0,0.0,0.0,0.0,0.0,0.0,0.0,0.0,0.0,0.0,0.0,0.0,0.0,0.0,0.0,0.0,0.0,0.0,0.0,0.0,0.0,0.0,0.0,0.0,0.0,0.0,0.0,0.0,0.0,0.0,0.0,0.0,0.0,0.0,0.0,0.0,0.0,-1.9146,-1.9507,-1.9371,-1.9091,-1.8662,-1.8467,0.0,0.0,0.0,0.0,0.0,0.0,0.0,0.0,0.0,0.0,0.0,0.0,0.0,0.0,0.0,0.0,0.0,0.0,0.0,0.0,0.0,0.0,0.0,0.0,0.0,0.0,0.0,0.0,0.0,0.0,0.0,0.0,0.0,0.0,0.0,0.0,0.0,0.0,0.0,0.0,0.0,0.0,0.0,0.0,0.0,0.0,0.0,0.0,0.0,0.0,0.0,0.0,0.0,0.0,0.0,0.0,0.0,0.0,0.0,0.0,0.0,0.0,0.0,-1.9168,-1.9423,-1.9604,-1.9855,-2.0004,-2.005,-1.9509,-1.8945,-1.8397,-1.7961,0.0,0.0,0.0,0.0,0.0,0.0,0.0,0.0,0.0,0.0,0.0,0.0,0.0,0.0,0.0,0.0,0.0,0.0,0.0,0.0,0.0,-1.8685,-1.8568,-1.8696,-1.8573,-1.8382,0.0,0.0,0.0,0.0,0.0,0.0,0.0,0.0,0.0,0.0,0.0,-1.9954,-1.9987,-1.9879,-1.9781,-1.9684,-1.9337,-1.914,-1.914,0.0,0.0,0.0,0.0,0.0,0.0,0.0,0.0,0.0,0.0,0.0,0.0,0.0,0.0,0.0,0.0,0.0,0.0,0.0,0.0,0.0,0.0,0.0,0.0,0.0,0.0,0.0,0.0,0.0,0.0,0.0,0.0,0.0,0.0,0.0,0.0,0.0,0.0,0.0,0.0,0.0,-1.4255,-1.4543,0.0,0.0,0.0,0.0,0.0,0.0,0.0,0.0,0.0,0.0,0.0,0.0,0.0,-1.7482,-1.7889,-1.8212,-1.8544,-1.8968,-1.9041,-1.9251,-1.9614,-1.9982,-2.0393,-2.0777,-2.1052,0.0,-1.9386,-1.8848,0.0,0.0,0.0,0.0,0.0,0.0,0.0,0.0,0.0,0.0,0.0,0.0,0.0,0.0,0.0,0.0,0.0,0.0,0.0,0.0,0.0,-1.8999,-1.8863,-1.8709,-1.864,-1.8452,-1.8111,0.0,0.0,0.0,0.0,0.0,0.0,0.0,0.0,0.0,-2.0009,-2.0118,-2.0118,-2.0042,-2.0009,-2.0009,-1.9747,-1.9572,-1.9473,-1.9407,0.0,0.0,0.0,0.0,0.0,0.0,0.0,0.0,0.0,0.0,0.0,0.0,0.0,0.0,0.0,0.0,0.0,0.0,0.0,0.0,0.0,0.0,0.0,0.0,0.0,0.0,0.0,0.0,0.0,0.0,0.0,0.0,0.0,0.0,0.0,0.0,0.0,0.0,0.0,-1.4699,-1.4904,-1.5253,-1.4911,-1.4753,0.0,0.0,0.0,0.0,0.0,0.0,0.0,0.0,0.0,-1.6822,-1.7406,-1.7902,-1.827,-1.8732,-1.9203,-1.9716,-1.9972,-2.0236,-2.0509,-2.0813,-2.1093,-2.1415,-2.1573,-2.1353,-2.0788,-2.0226,-1.9507,-1.8713,0.0,0.0,0.0,0.0,-1.6035,-1.6378,0.0,0.0,0.0,0.0,0.0,0.0,0.0,0.0,0.0,0.0,0.0,0.0,-1.916,-1.917,-1.9011,-1.864,-1.8704,-1.8651,-1.8334,-1.8816,0.0,0.0,0.0,0.0,0.0,0.0,0.0,-2.0118,-2.0118,-2.0118,-2.0118,-2.0118,-2.0118,-2.0118,-2.0009,-1.9846,-1.9671,-1.9605,-1.9473,-1.9241,0.0,0.0,0.0,0.0,0.0,0.0,0.0,0.0,0.0,0.0,0.0,0.0,0.0,0.0,0.0,0.0,0.0,0.0,0.0,0.0,0.0,0.0,0.0,0.0,0.0,0.0,0.0,0.0,0.0,0.0,0.0,0.0,0.0,0.0,0.0,0.0,0.0,-1.5251,-1.5452,-1.572,-1.5544,-1.5412,0.0,0.0,0.0,0.0,0.0,0.0,-1.6362,-1.6873,-1.7152,-1.722,-1.7879,-1.8398,-1.8686,-1.9295,-1.9814,-2.0343,-2.0691,-2.1007,-2.1273,-2.1498,-2.1771,-2.2072,-2.2072,-2.2072,-2.21,-2.1314,-2.0479,-1.962,-1.8698,-1.7996,-1.746,-1.6955,-1.6931,-1.7154,0.0,0.0,0.0,0.0,0.0,0.0,0.0,0.0,0.0,0.0,0.0,-1.9172,-1.9208,-1.909,-1.8907,-1.8614,-1.9018,-1.916,-1.889,-1.9356,-1.9861,-2.032,-2.0354,0.0,0.0,0.0,0.0,-2.0118,-2.0118,-2.0118,-2.0118,-2.0118,-2.0118,-2.0118,-2.0074,-2.0009,-1.9868,-1.9671,-1.9407,-1.9065,0.0,0.0,0.0,0.0,0.0,0.0,0.0,0.0,0.0,0.0,0.0,0.0,0.0,0.0,0.0,0.0,0.0,0.0,0.0,0.0,0.0,0.0,0.0,0.0,0.0,0.0,0.0,0.0,0.0,0.0,0.0,0.0,0.0,0.0,0.0,0.0,0.0,0.0,0.0,-1.5688,-1.585,0.0,0.0,0.0,0.0,-1.5688,-1.6065,-1.6387,-1.656,-1.7329,-1.7838,-1.8023,-1.9021,-1.9498,-1.9557,-2.0052,-2.0378,-2.0397,-2.0648,-2.1042,-2.1476,-2.1673,-2.2125,-2.2737,-2.2737,-2.2899,-2.3049,-2.1713,-2.1041,-2.0741,-1.9855,-1.9383,-1.9146,-1.8731,-1.8581,-1.8638,0.0,0.0,0.0,0.0,0.0,0.0,0.0,0.0,0.0,-1.9127,-1.9101,-1.9078,-1.9078,-1.9025,-1.8881,-1.8614,-1.9042,-1.9179,-1.8925,-1.9677,-2.0228,-2.04,0.0,0.0,0.0,0.0,-2.0443,-2.0118,-2.0118,-2.0118,-2.0118,-2.0118,-2.0118,-2.0118,-2.0118,-2.0074,-2.0009,-1.9944,-1.9802,-1.9572,-1.9098,-1.862,0.0,0.0,0.0,0.0,0.0,0.0,0.0,0.0,0.0,0.0,0.0,0.0,0.0,0.0,0.0,0.0,0.0,0.0,0.0,0.0,0.0,0.0,0.0,0.0,0.0,0.0,0.0,0.0,0.0,0.0,0.0,0.0,0.0,0.0,0.0,0.0,0.0,-1.6075,-1.6038,0.0,-1.5996,-1.6005,-1.6015,-1.6015,-1.6726,-1.7237,-1.744,-1.8077,-1.8488,-1.8571,-1.9029,-1.921,-1.9092,-1.9383,-1.9614,-1.9775,-2.0047,-2.047,-2.1057,-2.1275,-2.1731,-2.2349,-2.2349,-2.2513,-2.2707,-2.211,-2.1729,-2.1467,-2.085,-2.0441,-2.0113,-1.9989,-1.9824,-1.9668,0.0,0.0,0.0,0.0,0.0,0.0,0.0,0.0,0.0,-1.9186,-1.9078,-1.8987,-1.8987,-1.8987,-1.8952,-1.8834,-1.93,-1.9505,-1.9419,-2.0194,-2.0664,-2.0664,-2.0954,0.0,0.0,-2.0637,-2.0443,-2.0118,-2.0118,-2.0118,-2.0118,-2.0118,-2.0118,-2.0118,-2.0118,-2.0118,-2.0118,-2.0118,-2.0009,-1.9835,-1.9308,-1.8898,-1.8519,0.0,0.0,0.0,0.0,0.0,0.0,0.0,0.0,0.0,0.0,0.0,0.0,0.0,0.0,0.0,0.0,0.0,0.0,0.0,0.0,0.0,0.0,0.0,0.0,0.0,0.0,0.0,0.0,0.0,0.0,0.0,0.0,0.0,0.0,0.0,-1.6136,-1.626,-1.6249,-1.6284,-1.6412,-1.6517,-1.6611,-1.6722,-1.7377,-1.7821,-1.7957,-1.8392,-1.8689,-1.8689,-1.8936,-1.9003,-1.8889,-1.9138,-1.9328,-1.9486,-1.9842,-2.0289,-2.0822,-2.1229,-2.1764,-2.2361,-2.2543,-2.2758,-2.2972,-2.2863,-2.2777,-2.2656,-2.1871,-2.1349,-2.1047,-2.1047,-2.0796,-2.0418,0.0,0.0,0.0,0.0,0.0,0.0,0.0,-1.9133,-1.9486,-1.9249,-1.9078,-1.8987,-1.8987,-1.8987,-1.9069,-1.9272,-1.9789,-2.0187,-2.0377,-2.0914,-2.119,-2.119,0.0,0.0,-2.0701,-2.0508,-2.0313,-2.0118,-2.0118,-2.0118,-2.0118,-2.0118,-2.0118,-2.0118,-2.0118,-2.0118,-2.0118,-2.0129,-2.0064,-1.9889,-1.9341,-1.9008,-1.8741,0.0,0.0,0.0,0.0,0.0,0.0,0.0,0.0,0.0,0.0,0.0,0.0,0.0,0.0,0.0,0.0,0.0,0.0,0.0,0.0,0.0,0.0,0.0,0.0,0.0,0.0,0.0,0.0,0.0,0.0,0.0,0.0,0.0,-1.58,-1.6015,-1.6238,-1.6238,-1.6547,-1.6905,-1.7262,-1.7337,-1.7472,-1.779,-1.8004,-1.8107,-1.8107,-1.8316,-1.8403,-1.8403,-1.8817,-1.9014,-1.9006,-1.943,-1.962,-1.9629,-2.0129,-2.053,-2.0844,-2.1686,-2.231,-2.2802,-2.3299,-2.3672,-2.383,-2.3914,-2.411,-2.4202,-2.2791,-2.2131,-2.1946,-2.1926,-2.1512,-2.0946,0.0,0.0,0.0,0.0,0.0,0.0,0.0,-1.917,-1.9486,-1.9249,-1.9078,-1.8987,-1.8987,-1.8919,-1.8973,-1.9272,-1.9714,-2.008,-2.0377,-2.0914,-2.119,-2.119,0.0,0.0,-2.0701,-2.0508,-2.0313,-2.0118,-2.0118,-2.0118,-2.0118,-2.0118,-2.0118,-2.0118,-2.0118,-2.0118,-2.014,-2.0522,-2.0664,-2.0564,-1.9776,-1.944,-1.9308,0.0,0.0,0.0,0.0,0.0,0.0,0.0,0.0,0.0,0.0,0.0,0.0,0.0,0.0,0.0,0.0,0.0,0.0,0.0,0.0,0.0,0.0,0.0,0.0,0.0,0.0,0.0,0.0,0.0,0.0,0.0,0.0,-1.7127,-1.6532,-1.6754,-1.6984,-1.6984,-1.7278,-1.7525,-1.7671,-1.7679,-1.7719,-1.7806,-1.8097,-1.8249,-1.8249,-1.8534,-1.876,-1.8986,-1.9391,-1.9633,-1.9802,-1.9993,-2.0228,-2.0419,-2.031,-2.0495,-2.0934,-2.1179,-2.1548,-2.1999,-2.2159,-2.2339,-2.2557,-2.2726,-2.3102,-2.3485,-2.3198,-2.3164,-2.3257,-2.29,-2.2438,-2.2004,0.0,0.0,0.0,0.0,0.0,0.0,0.0,-1.9256,-1.9629,-1.9249,-1.9143,-1.9052,-1.9025,-1.9057,-1.9238,-1.9589,-1.9971,-2.0333,-2.073,-2.1029,-2.119,0.0,0.0,-2.0839,-2.0701,-2.0508,-2.0313,-2.0118,-2.0118,-2.0118,-2.0118,-2.0118,-2.0118,-2.0118,-2.0325,-2.0445,-2.0478,-2.0993,-2.12,-2.1144,-2.0647,-2.037,-2.0268,-1.9668,-1.9565,-1.9634,-1.9023,-1.8919,-1.8984,-1.8337,0.0,0.0,0.0,0.0,0.0,0.0,0.0,0.0,0.0,0.0,0.0,0.0,0.0,0.0,0.0,0.0,0.0,0.0,0.0,0.0,0.0,0.0,0.0,0.0,-1.7814,-1.7628,-1.7223,-1.735,-1.7528,-1.7528,-1.7695,-1.787,-1.7977,-1.7993,-1.8057,-1.82,-1.8497,-1.8699,-1.8699,-1.922,-1.96,-1.9731,-2.0149,-2.0394,-2.052,-2.0361,-2.0378,-2.0523,-2.037,-2.0434,-2.0777,-2.1024,-2.1287,-2.1524,-2.1769,-2.1907,-2.2054,-2.2306,-2.2743,0.0,0.0,0.0,0.0,0.0,-2.3368,-2.3098,0.0,0.0,0.0,0.0,0.0,0.0,0.0,-1.9392,-1.9836,-1.9302,-1.9223,-1.9143,-1.9013,-1.932,-1.9677,-2.0093,-2.0432,-2.0792,-2.1187,-2.1221,0.0,-2.119,-2.0999,-2.0839,-2.0733,-2.0508,-2.0313,-2.0118,-2.0107,-2.0118,-2.0118,-2.0118,-2.0118,-2.0129,-2.0642,-2.0894,-2.0927,-2.1439,-2.1669,-2.168,-2.1734,-2.1574,-2.1312,-2.0984,-2.0928,-2.0952,-2.0278,-2.0124,-2.0135,-1.9089,0.0,0.0,0.0,0.0,0.0,0.0,0.0,0.0,0.0,0.0,0.0,0.0,0.0,0.0,0.0,0.0,0.0,0.0,0.0,0.0,0.0,0.0,0.0,0.0,-1.789,-1.789,-1.789,-1.789,-1.7918,-1.7878,-1.791,-1.8009,-1.8327,-1.8404,-1.8555,-1.8905,-1.916,-1.9315,-1.9402,0.0,0.0,0.0,0.0,-2.1298,-2.1298,-2.0768,-2.05,-2.0451,-2.0462,-2.0456,-2.0514,-2.1079,-2.1318,-2.142,-2.1869,-2.2123,-2.2182,-2.2426,-2.2878,-2.3457,-2.39,-2.4175,-2.4322,-2.4146,-2.411,-2.4156,0.0,0.0,0.0,0.0,0.0,0.0,0.0,-1.9662,-2.0003,-1.9591,-1.9328,-1.9143,-1.9013,-1.9332,-1.9773,-2.0226,-2.0629,-2.0976,-2.1333,0.0,-2.119,-2.119,-2.0999,-2.0903,-2.0871,-2.0561,-2.0378,-2.0346,-2.0183,-2.0118,-2.0118,-2.0118,-2.0118,-2.0129,-2.0642,-2.0894,-2.096,-2.18,-2.2182,-2.2204,-2.2586,-2.2233,-2.1522,-2.1301,-2.1231,-2.1196,-2.0882,-2.0801,-2.0757,-2.028,-1.9917,-1.9515,-1.8855,0.0,0.0,0.0,0.0,0.0,0.0,0.0,0.0,0.0,0.0,0.0,0.0,0.0,0.0,0.0,0.0,0.0,0.0,0.0,0.0,-1.8629,-1.8629,-1.8629,-1.8629,-1.8629,-1.8518,-1.8232,-1.8446,-1.8653,-1.8716,-1.8907,-1.919,-1.9562,-1.9813,-2.0171,-2.0716,-2.1116,-2.1484,-2.1928,-2.2289,-2.2452,-2.247,-2.1977,-2.1619,-2.1418,0.0,0.0,-2.1119,-2.1242,-2.1522,-2.1971,-2.2072,-2.2224,-2.2426,-2.2728,-2.3379,-2.4285,-2.4238,-2.4164,-2.4081,-2.41,-2.4249,-2.4443,0.0,0.0,0.0,0.0,0.0,0.0,0.0,-1.9843,-2.022,-1.9668,-1.942,-1.921,-1.9025,-1.9559,-2.0046,-2.0267,-2.0919,-2.1331,0.0,-2.1336,-2.1285,-2.119,-2.1094,-2.0999,-2.0903,-2.0743,-2.0561,-2.041,-2.0313,-2.0216,-2.0118,-2.0118,-2.0118,-2.0118,-2.0904,-2.1255,-2.1321,-2.2248,-2.2663,-2.2684,-2.2914,-2.2717,-2.2291,-2.2194,-2.2147,-2.2111,-2.1908,-2.1835,-2.1769,-2.1196,-2.0787,-2.0398,-1.9552,-1.8913,-1.8442,0.0,0.0,0.0,0.0,0.0,0.0,0.0,0.0,0.0,0.0,0.0,0.0,0.0,0.0,-1.8565,0.0,0.0,-1.8781,-1.8781,-1.8781,-1.8781,-1.8781,-1.8986,-1.8962,-1.8605,-1.8724,-1.8899,-1.9082,-1.9331,-1.9664,-2.0037,-2.0531,-2.0987,-2.147,-2.218,-2.2757,-2.314,-2.3329,-2.339,-2.3251,-2.2633,-2.2182,-2.1928,-2.1623,-2.1573,-2.1725,-2.1979,-2.2224,-2.2526,-2.2627,-2.2778,-2.2929,-2.3179,-2.3678,-2.4313,-2.451,-2.4689,-2.4831,-2.4888,-2.5078,-2.5315,0.0,0.0,0.0,0.0,0.0,0.0,0.0,0.0,-2.0293,-1.9773,-1.9591,-1.9356,-1.9078,-1.9841,-2.0473,-2.0646,-2.1315,-2.1686,0.0,-2.1463,-2.1411,-2.1296,-2.1296,-2.119,-2.0987,-2.0967,-2.0807,-2.0496,-2.0475,-2.0346,-2.0151,-2.0151,-2.0151,-2.0151,-2.1057,-2.1505,-2.1647,-2.2499,-2.2925,-2.3001,-2.3001,-2.3001,-2.3001,-2.3001,-2.3001,-2.2964,-2.2815,-2.2777,-2.2665,-2.1921,-2.1512,-2.1156,-2.0118,-1.9499,-1.9091,-1.8731,-1.8717,0.0,0.0,0.0,0.0,0.0,0.0,0.0,0.0,0.0,-1.9325,-1.9288,-1.9058,-1.8874,-1.8874,-1.8827,-1.8781,-1.8781,-1.8929,-1.8977,-1.8977,-1.9382,-1.9502,-1.9159,-1.9081,-1.92,-1.9542,-1.9852,-2.0189,-2.0549,-2.1252,-2.1808,-2.2175,-2.3154,-2.386,-2.418,-2.4214,-2.4134,-2.3877,-2.3129,-2.2577,-2.2325,-2.2274,-2.2325,-2.2426,-2.2929,-2.3179,-2.3329,-2.3619,-2.3777,-2.3768,-2.4026,-2.4223,-2.452,-2.4971,-2.543,-2.583,-2.5742,-2.5917,-2.6197,0.0,0.0,0.0,0.0,0.0,0.0,0.0,0.0,0.0,-2.0143,-1.9914,-1.9617,-1.9223,-2.0128,-2.1088,-2.1921,-2.1928,0.0,-2.1862,-2.1718,-2.1667,-2.1635,-2.1635,-2.1561,-2.1356,-2.1221,-2.1063,-2.0839,-2.0722,-2.0572,-2.0378,-2.0378,-2.0281,-2.014,-2.0708,-2.1222,-2.1625,-2.2171,-2.263,-2.3001,-2.3001,-2.3001,-2.3001,-2.3001,-2.3001,-2.3001,-2.2964,-2.2964,-2.2889,-2.244,-2.2035,-2.1578,-2.076,-2.0177,-1.9781,-1.953,0.0,-1.9537,-1.9676,-2.0066,-2.0465,-2.0837,-2.0755,-2.0548,0.0,0.0,-1.9754,-1.9579,-1.9342,-1.9142,-1.9142,-1.8966,-1.8781,-1.8781,-1.9284,-1.9682,-1.9682,-2.0181,-2.0442,-2.0168,-2.0111,-2.0127,-2.0168,-2.0651,-2.109,-2.1419,-2.1985,-2.2565,-2.3205,-2.3746,-2.4267,-2.4767,-2.4815,-2.4686,-2.443,-2.3836,-2.3429,-2.3179,-2.2929,-2.3079,-2.3529,-2.3836,-2.4233,-2.4677,-2.5206,-2.545,-2.5441,-2.545,-2.5645,-2.5897,-2.5945,-2.6149,-2.6352,-2.5878,-2.6024,-2.6448,0.0,0.0,0.0,0.0,0.0,0.0,0.0,0.0,0.0,0.0,-1.9864,-1.9746,-1.9368,-2.0143,-2.1107,-2.2101,-2.2123,0.0,-2.1894,-2.1843,-2.1781,-2.1698,-2.1698,-2.1655,-2.158,-2.14,-2.1253,-2.1063,-2.0914,-2.0722,-2.0572,-2.0572,-2.054,-2.0465,-2.0831,-2.1128,-2.1336,-2.2021,-2.2422,-2.263,-2.2892,-2.3001,-2.3001,-2.3001,-2.3001,-2.3001,-2.3001,-2.3001,0.0,0.0,-2.2402,-2.2025,-2.1339,-2.1006,-2.0759,-2.046,-2.0527,0.0,-2.1074,-2.1312,-2.1476,0.0,-2.1767,-2.1588,-2.1195,-2.0826,-2.0419,-2.0073,-1.97,-1.9371,-1.9234,-1.8966,-1.8945,0.0,-1.9602,-1.9914,-2.0261,-2.0694,-2.0966,-2.0819,-2.1156,-2.1147,-2.0646,-2.1072,-2.1526,-2.1879,-2.2562,-2.3228,-2.3777,-2.4282,-2.4833,-2.5342,-2.5235,-2.4981,-2.4735,-2.4381,-2.4134,-2.3985,-2.4035,-2.4273,-2.4658,-2.506,-2.546,-2.5858,-2.6052,-2.6149,-2.6149,-2.6149,-2.6245,-2.6342,-2.6342,-2.64,-2.6448,-2.6265,-2.641,-2.6747,0.0,0.0,0.0,0.0,0.0,0.0,0.0,0.0,0.0,0.0,0.0,-1.9876,-1.9684,-2.0256,-2.1005,-2.1897,0.0,0.0,0.0,-2.1987,-2.1937,-2.1824,-2.1824,-2.1824,-2.1761,-2.16,-2.1463,-2.1328,-2.1158,-2.0967,-2.083,-2.0797,-2.0733,-2.0723,-2.0896,-2.1041,-2.1152,-2.1708,-2.2098,-2.2346,-2.2684,-2.2881,-2.3001,-2.3001,-2.3001,-2.3001,-2.3001,-2.3001,0.0,0.0,-2.2665,-2.2424,-2.1991,-2.1783,-2.159,-2.1322,-2.1461,-2.1749,-2.2101,-2.2274,0.0,-2.2574,-2.2564,-2.2441,-2.1919,-2.1508,-2.1051,-2.0518,-2.0011,-1.9633,-1.9502,-1.9249,-1.9284,-1.9836,-2.0204,-2.0551,-2.101,-2.15,-2.1727,-2.157,-2.2013,-2.2072,-2.1354,-2.1694,-2.2103,-2.2316,-2.3138,-2.3737,-2.4084,-2.4587,-2.5137,-2.5674,-2.5528,-2.5323,-2.5226,-2.502,-2.4922,-2.4922,-2.5118,-2.5362,-2.5645,-2.61,-2.6448,-2.6736,-2.6736,-2.6736,-2.6736,-2.6736,-2.6736,-2.6736,-2.6736,-2.6736,-2.6736,-2.6736,-2.6794,-2.69,0.0,0.0,0.0,0.0,0.0,0.0,0.0,0.0,0.0,0.0,0.0,0.0,0.0,0.0,-2.096,-2.138,0.0,0.0,0.0,-2.2197,-2.2197,-2.2197,-2.2185,-2.2092,-2.1894,-2.1894,-2.1812,-2.1667,-2.1474,-2.1305,-2.119,-2.0999,-2.0818,-2.0701,-2.0723,-2.0851,-2.1096,-2.113,-2.1601,-2.2313,-2.2335,-2.2608,-2.3001,-2.3001,-2.3001,-2.3001,-2.3001,0.0,-2.3001,-2.3001,-2.2852,-2.2714,-2.2762,-2.2431,0.0,-2.2091,-2.2091,-2.2122,-2.2344,0.0,-2.3057,-2.3091,-2.3091,-2.2882,-2.223,-2.1874,-2.1508,-2.0835,-2.0246,-1.9946,-2.0063,-1.9911,-1.9891,-2.0208,-2.1218,-2.1927,-2.1944,-2.2725,-2.312,-2.2509,-2.2778,-2.2837,0.0,-2.2769,-2.2937,-2.2946,-2.3637,-2.4084,-2.4084,-2.4587,-2.5177,-2.5693,-2.5693,-2.58,-2.6042,-2.6052,-2.6052,-2.6052,-2.6042,-2.6197,-2.6448,-2.6757,-2.7034,-2.7262,-2.7262,-2.7262,-2.7262,-2.7262,-2.7262,-2.7262,-2.7262,-2.7262,-2.7262,-2.7262,-2.7129,-2.69,0.0,0.0,0.0,0.0,0.0,0.0,0.0,0.0,0.0,0.0,0.0,0.0,0.0,0.0,0.0,0.0,0.0,0.0,0.0,-2.2197,-2.2197,-2.2197,-2.2197,-2.2154,-2.2092,-2.1956,-2.1874,-2.1843,-2.1686,-2.1592,-2.1529,-2.1466,-2.1328,-2.1158,-2.1063,-2.0973,-2.0861,-2.103,-2.1194,-2.1441,-2.2062,-2.2375,-2.2586,-2.2881,-2.3001,-2.3001,0.0,0.0,-2.3001,-2.3001,-2.3144,-2.3324,-2.3062,-2.3094,-2.3134,-2.2678,-2.2644,-2.2838,-2.3057,0.0,-2.3864,-2.3993,-2.4046,-2.3797,-2.2969,-2.2441,-2.1909,-2.0916,-2.0434,-2.0175,-2.0121,-2.0123,-2.041,-2.1283,-2.1737,-2.2244,-2.304,-2.3258,-2.3397,-2.3279,-2.3288,0.0,0.0,0.0,0.0,-2.3438,-2.4183,-2.4726,-2.4903,-2.5401,-2.5858,-2.6197,-2.6245,-2.6294,-2.6352,-2.6352,-2.6448,-2.6651,-2.6832,-2.6918,-2.7023,-2.7119,-2.7214,-2.7309,-2.7309,-2.7309,-2.7309,-2.7309,-2.7309,-2.7309,-2.7309,-2.7309,-2.7309,-2.7309,-2.7262,-2.7177,0.0,0.0,0.0,0.0,0.0,0.0,0.0,0.0,0.0,0.0,0.0,0.0,0.0,0.0,0.0,0.0,0.0,0.0,0.0,0.0,-2.1993,-2.2185,-2.2197,-2.2197,-2.2197,-2.2061,-2.1999,-2.1999,-2.1843,-2.1761,-2.1761,-2.173,-2.1592,-2.1388,-2.1305,-2.1094,-2.0777,-2.095,-2.1052,-2.1129,-2.1733,-2.2149,-2.2429,-2.275,-2.2933,0.0,0.0,0.0,-2.3001,-2.3001,-2.3209,-2.3449,-2.3459,-2.3604,-2.3681,-2.3197,-2.3144,-2.3319,-2.3667,-2.4133,-2.4594,-2.4722,-2.4637,-2.4272,-2.345,-2.275,-2.1998,-2.0925,-2.0528,-2.0359,-2.032,-2.0458,-2.0958,-2.1999,-2.2406,-2.2888,-2.3741,-2.3886,-2.3945,-2.3985,-2.3886,-2.3886,0.0,0.0,0.0,-2.4134,-2.4873,-2.5411,-2.5596,-2.5994,-2.6352,-2.6651,-2.6651,-2.6688,-2.6784,-2.6784,-2.688,-2.7034,-2.7214,-2.7309,-2.7309,-2.7309,-2.7309,-2.7309,-2.7309,-2.7309,-2.7309,-2.7309,-2.7309,-2.7309,-2.7309,-2.7309,-2.7309,-2.7309,-2.7309,-2.7309,0.0,0.0,0.0,0.0,0.0,0.0,0.0,0.0,0.0,0.0,0.0,0.0,0.0,0.0,0.0,0.0,0.0,0.0,0.0,0.0,0.0,-2.2125,-2.2149,-2.2161,-2.2197,-2.2197,-2.2197,-2.2197,-2.1999,-2.1937,-2.1894,-2.1792,-2.1624,-2.142,-2.142,-2.1242,-2.0903,-2.0903,-2.1089,-2.1386,-2.1408,-2.1842,-2.2535,-2.259,0.0,0.0,0.0,0.0,-2.3001,-2.3001,-2.3012,-2.3134,-2.3878,-2.396,-2.3767,-2.358,-2.3547,-2.3667,-2.4122,-2.4722,-2.52,-2.52,-2.485,-2.4337,-2.3667,-2.275,-2.183,-2.0906,-2.0554,-2.0459,0.0,0.0,-2.1512,-2.2416,-2.3229,-2.3827,-2.4134,-2.4587,-2.4833,0.0,0.0,0.0,0.0,0.0,0.0,-2.503,0.0,-2.6149,-2.6149,-2.64,-2.6651,-2.69,-2.69,-2.7034,-2.7309,-2.7309,-2.7309,-2.7309,-2.7309,-2.7309,-2.7309,-2.7309,-2.7309,-2.7309,-2.7309,-2.7309,-2.7309,-2.7309,-2.7309,-2.7309,-2.7309,-2.7309,-2.7309,-2.7309,-2.7309,-2.7309,0.0,0.0,0.0,0.0,0.0,0.0,0.0,0.0,0.0,0.0,0.0,0.0,0.0,0.0,0.0,0.0,0.0,0.0,0.0,0.0,0.0,0.0,0.0,0.0,0.0,0.0,0.0,-2.2197,-2.2154,-2.2123,-2.2123,-2.2104,-2.1968,-2.1769,-2.1686,-2.1423,-2.1094,-2.0967,-2.0886,-2.0893,0.0,-2.1419,-2.1561,0.0,0.0,0.0,0.0,0.0,0.0,0.0,0.0,0.0,0.0,-2.4116,-2.3874,-2.4149,-2.4262,-2.4368,-2.4818,-2.5073,-2.5242,-2.5433,-2.4999,-2.4315,-2.3667,-2.2784,-2.184,-2.0974,-2.0626,-2.0659,0.0,0.0,0.0,-2.3211,-2.3728,0.0,-2.5157,-2.5079,0.0,-2.5353,0.0,-2.5177,-2.546,-2.5897,0.0,0.0,-2.6602,-2.6699,-2.6699,-2.6928,-2.7119,-2.7225,-2.7225,-2.7214,-2.7309,-2.7309,-2.7309,-2.7309,-2.7309,-2.7309,-2.7309,-2.7309,-2.7309,-2.7309,-2.7309,-2.7309,-2.7309,-2.7309,-2.7309,-2.7309,-2.7309,-2.7309,-2.7309,-2.7309,-2.7309,-2.7309,0.0,0.0,0.0,0.0,0.0,0.0,0.0,0.0,0.0,0.0,0.0,0.0,0.0,0.0,0.0,0.0,0.0,0.0,0.0,0.0,0.0,0.0,0.0,0.0,0.0,0.0,0.0,0.0,0.0,0.0,-2.2197,-2.2197,-2.2092,-2.1894,-2.1812,-2.1655,-2.1403,-2.119,0.0,0.0,0.0,0.0,0.0,0.0,0.0,0.0,0.0,0.0,0.0,0.0,0.0,-2.3589,-2.392,-2.4046,-2.4137,-2.4315,0.0,-2.4871,-2.5031,-2.52,-2.538,-2.5295,-2.4743,-2.4013,-2.3353,-2.2476,-2.1518,-2.0612,-2.0526,0.0,-2.0916,-2.157,0.0,0.0,0.0,0.0,-2.5596,-2.5654,-2.5713,0.0,-2.5907,0.0,-2.6197,-2.6496,-2.6794,0.0,-2.7081,-2.7081,-2.7081,-2.7214,-2.7309,-2.7309,-2.7309,-2.7309,-2.7309,-2.7309,-2.7309,-2.7309,-2.7309,-2.7309,-2.7309,-2.7309,-2.7309,-2.7309,0.0,-2.7309,-2.7309,-2.7309,-2.7309,-2.7309,-2.7309,-2.7309,-2.7309,-2.7309,-2.7309,-2.7309,0.0,0.0,0.0,0.0,0.0,0.0,0.0,0.0,0.0,0.0,0.0,0.0,0.0,0.0,0.0,0.0,0.0,0.0,0.0,0.0,0.0,0.0,0.0,0.0,0.0,0.0,0.0,0.0,0.0,0.0,0.0,0.0,0.0,0.0,0.0,0.0,0.0,0.0,0.0,0.0,0.0,0.0,0.0,0.0,0.0,0.0,0.0,0.0,0.0,0.0,-2.3285,-2.3607,-2.348,-2.3899,-2.4413,-2.4302,-2.4724,-2.5158,-2.4946,-2.5168,-2.5306,-2.4861,-2.4219,-2.3527,-2.2896,-2.2043,-2.114,-2.0224,0.0,-2.0554,-2.0767,-2.1527,-2.2517,-2.3619,0.0,-2.5216,-2.58,-2.6245,-2.6496,-2.6554,-2.6544,-2.6651,-2.69,-2.6948,-2.7034,-2.7262,-2.7309,-2.7309,-2.7309,-2.7309,-2.7309,-2.7309,-2.7309,-2.7309,-2.7309,-2.7309,-2.7309,-2.7309,-2.7309,-2.7309,-2.7309,-2.7309,-2.7309,-2.7309,-2.7309,-2.7309,-2.7309,-2.7309,-2.7309,-2.7309,-2.7309,-2.7309,-2.7309,-2.7309,-2.7309,-2.7309,0.0,0.0,0.0,0.0,0.0,0.0,0.0,0.0,0.0,0.0,-1.8244,-1.8419,0.0,0.0,0.0,0.0,0.0,0.0,0.0,0.0,0.0,0.0,0.0,0.0,0.0,0.0,0.0,0.0,0.0,0.0,0.0,0.0,0.0,0.0,0.0,0.0,0.0,0.0,0.0,0.0,0.0,0.0,0.0,0.0,0.0,0.0,0.0,0.0,0.0,0.0,-2.3056,-2.3198,-2.3525,-2.3881,-2.425,-2.4585,-2.4953,-2.5158,-2.4946,-2.469,-2.438,-2.4057,-2.3493,-2.2882,-2.2564,-2.1919,0.0,0.0,-2.0389,-2.038,-2.1023,-2.1773,-2.28,-2.4128,0.0,0.0,0.0,0.0,-2.6602,0.0,0.0,0.0,0.0,0.0,0.0,0.0,0.0,-2.7309,-2.7309,-2.7309,-2.7309,-2.7309,-2.7309,-2.7309,-2.7309,-2.7309,-2.7309,-2.7309,-2.7309,-2.7309,-2.7309,-2.7309,-2.7309,-2.7309,-2.7309,0.0,-2.7309,-2.7309,-2.7309,-2.7309,-2.7309,-2.7309,-2.7309,-2.7309,-2.7309,-2.7309,0.0,0.0,0.0,0.0,0.0,0.0,0.0,-1.8406,-1.8274,-1.8299,-1.8082,-1.8065,-1.844,-1.8011,0.0,0.0,0.0,0.0,0.0,0.0,0.0,0.0,0.0,0.0,0.0,0.0,-2.1536,-2.1777,0.0,0.0,0.0,-2.2197,-2.2197,0.0,0.0,0.0,0.0,0.0,0.0,0.0,0.0,0.0,0.0,0.0,0.0,0.0,0.0,0.0,0.0,0.0,-2.2805,-2.3045,-2.3274,-2.3613,-2.3935,-2.421,-2.4548,-2.4755,-2.4414,-2.4176,-2.3831,-2.3222,-2.2838,-2.2432,-2.1802,0.0,0.0,0.0,-2.0115,-2.0206,-2.0553,-2.1502,0.0,0.0,0.0,0.0,0.0,0.0,0.0,0.0,0.0,0.0,0.0,0.0,0.0,0.0,0.0,-2.7309,-2.7309,-2.7309,-2.7309,-2.7309,-2.7309,-2.7309,-2.7309,-2.7309,-2.7309,-2.7309,-2.7309,-2.7309,-2.7309,-2.7309,-2.7309,-2.7309,-2.7309,-2.7309,-2.7309,-2.7309,-2.7309,-2.7309,-2.7309,-2.7309,-2.7309,-2.7309,-2.7309,-2.7309,0.0,0.0,0.0,0.0,0.0,0.0,0.0,-1.8851,-1.8615,-1.8502,-1.8281,-1.8058,-1.7875,-1.7556,-1.7387,0.0,0.0,0.0,0.0,0.0,0.0,0.0,0.0,0.0,0.0,0.0,0.0,-2.1404,-2.1825,0.0,0.0,0.0,0.0,0.0,-2.2154,-2.2061,0.0,0.0,0.0,0.0,0.0,0.0,0.0,0.0,0.0,0.0,0.0,0.0,0.0,0.0,-2.2553,-2.287,-2.2931,-2.3264,-2.3616,-2.3602,-2.3941,-2.4158,-2.3599,-2.3424,-2.3232,-2.2397,-2.2132,-2.19,-2.1177,-2.0952,0.0,0.0,-1.9848,-2.0008,-2.0044,-2.1052,-2.2249,0.0,-2.4687,0.0,0.0,0.0,0.0,0.0,0.0,0.0,0.0,0.0,0.0,0.0,0.0,0.0,-2.7309,-2.7309,-2.7309,-2.7309,-2.7309,-2.7309,-2.7309,-2.7309,-2.7309,-2.7309,-2.7309,-2.7309,-2.7309,-2.7309,-2.7309,-2.7309,-2.7309,-2.7309,-2.7309,-2.7309,-2.7309,-2.7309,-2.7309,-2.7309,-2.7309,-2.7309,-2.7309,-2.7309,0.0,0.0,0.0,0.0,0.0,0.0,0.0,-2.0274,-1.9915,-1.9128,-1.8955,-1.8604,-1.7794,-1.7419,-1.7107,0.0,0.0,0.0,0.0,0.0,0.0,0.0,0.0,0.0,0.0,0.0,0.0,-2.1404,-2.1452,0.0,0.0,0.0,0.0,0.0,0.0,-2.1937,-2.1894,0.0,0.0,0.0,0.0,0.0,0.0,0.0,0.0,0.0,0.0,0.0,0.0,0.0,0.0,-2.2419,-2.2648,-2.3037,-2.3358,-2.3012,0.0,0.0,-2.2506,-2.2244,-2.2141,-2.1616,-2.1329,-2.1132,-2.1042,0.0,0.0,-1.9973,-1.9741,-1.969,-1.9831,-2.0755,-2.1935,-2.3069,0.0,-2.5596,0.0,0.0,0.0,0.0,0.0,0.0,0.0,0.0,0.0,0.0,0.0,0.0,-2.7309,-2.7309,-2.7309,-2.7309,-2.7309,-2.7309,-2.7309,-2.7309,-2.7309,-2.7309,-2.7309,-2.7309,-2.7309,-2.7309,-2.7309,-2.7309,-2.7309,-2.7309,0.0,-2.7309,-2.7309,-2.7309,-2.7309,-2.7309,-2.7309,-2.7309,-2.7309,-2.7309,0.0,0.0,0.0,0.0,0.0,0.0,-2.0556,-2.0486,-2.0217,-1.9723,-1.9553,-1.9277,-1.8722,-1.8104,-1.7492,-1.6867,0.0,0.0,0.0,0.0,0.0,0.0,0.0,0.0,0.0,0.0,-1.9969,-2.0327,-2.0932,0.0,0.0,0.0,0.0,0.0,0.0,-2.1706,-2.1588,0.0,0.0,0.0,0.0,0.0,0.0,0.0,0.0,0.0,0.0,0.0,0.0,0.0,0.0,0.0,-2.244,-2.2492,0.0,0.0,-2.2735,-2.27,-2.2072,-2.1805,-2.1544,-2.088,-2.0654,-2.051,-2.0201,0.0,-2.0065,-1.9554,-1.9425,-1.9382,-1.9428,-2.0121,-2.1104,-2.2249,0.0,0.0,-2.5664,0.0,0.0,0.0,0.0,0.0,0.0,0.0,0.0,0.0,0.0,0.0,-2.7309,-2.7309,-2.7309,-2.7309,-2.7309,-2.7309,-2.7309,-2.7309,-2.7309,-2.7309,-2.7309,-2.7309,-2.7309,-2.7309,-2.7309,-2.7309,-2.7309,-2.7309,0.0,-2.7309,-2.7309,-2.7309,-2.7309,-2.7309,-2.7309,-2.7309,-2.7309,-2.7309,0.0,0.0,0.0,0.0,0.0,-2.0468,-2.1169,-2.1132,-2.0865,-2.0332,-2.0172,-1.9903,-1.936,-1.8715,-1.7987,-1.7127,-1.66,0.0,0.0,0.0,0.0,0.0,0.0,0.0,0.0,0.0,-1.9471,-1.9527,-2.0245,-2.0694,0.0,0.0,-2.1545,-2.1698,0.0,0.0,0.0,0.0,0.0,0.0,0.0,0.0,0.0,0.0,0.0,0.0,0.0,0.0,0.0,0.0,0.0,0.0,0.0,0.0,0.0,0.0,-2.2049,-2.1861,-2.1494,-2.1174,-2.0855,-2.0303,-2.0164,-2.0027,0.0,0.0,-1.97,-1.9279,-1.9188,-1.9188,-1.9096,-1.9635,-2.0381,-2.1371,0.0,-2.3754,-2.4886,0.0,0.0,0.0,0.0,0.0,0.0,0.0,0.0,0.0,0.0,0.0,-2.7309,-2.7309,-2.7309,-2.7309,-2.7309,-2.7309,-2.7309,-2.7309,-2.7309,-2.7309,-2.7309,-2.7309,-2.7309,-2.7309,-2.7309,-2.7309,-2.7309,-2.7309,0.0,-2.7309,-2.7309,-2.7309,-2.7309,-2.7309,-2.7309,-2.7309,-2.7309,-2.7309,0.0,0.0,0.0,0.0,0.0,0.0,-2.2423,-2.2586,-2.2175,-2.1033,-2.0896,-2.048,-1.9436,-1.9048,-1.8481,-1.7488,-1.6672,0.0,0.0,0.0,0.0,0.0,0.0,0.0,0.0,0.0,-1.8857,-1.9411,-1.9411,-1.994,-2.0917,-2.0917,-2.1181,-2.1698,0.0,0.0,0.0,0.0,0.0,0.0,0.0,0.0,0.0,0.0,0.0,0.0,0.0,0.0,0.0,0.0,0.0,0.0,0.0,0.0,0.0,0.0,-2.1086,-2.0855,-2.0518,-2.0205,-1.9998,-1.9926,-1.9762,-1.9587,0.0,0.0,-1.9533,-1.9242,-1.9188,-1.9096,-1.8874,-1.9355,-2.0002,-2.0611,-2.1867,0.0,-2.4337,0.0,0.0,0.0,0.0,0.0,0.0,0.0,0.0,0.0,0.0,0.0,-2.7309,-2.7309,-2.7309,-2.7309,-2.7309,-2.7309,-2.7309,-2.7309,-2.7309,-2.7309,-2.7309,-2.7309,-2.7309,-2.7309,-2.7309,-2.7309,-2.7309,-2.7309,0.0,-2.7309,-2.7309,-2.7309,-2.7309,-2.7309,-2.7309,-2.7309,-2.7309,-2.7309,0.0,0.0,0.0,0.0,0.0,0.0,0.0,-2.2615,-2.23,-2.1498,-2.1376,-2.1081,-2.027,-1.9697,-1.9113,-1.8408,-1.7373,0.0,0.0,0.0,0.0,0.0,0.0,0.0,0.0,0.0,-1.8275,-1.8721,-1.9032,-1.9257,-1.9401,-2.0102,-2.0442,-2.0466,-2.0787,0.0,0.0,0.0,0.0,0.0,0.0,0.0,0.0,0.0,0.0,0.0,0.0,0.0,0.0,0.0,0.0,0.0,0.0,0.0,0.0,-2.0225,0.0,0.0,-2.0467,-2.0119,-1.9785,-1.9716,-1.9387,-1.9066,-1.9066,0.0,-1.902,-1.892,-1.892,-1.892,-1.8827,-1.8969,-1.9347,-1.9994,-2.1114,0.0,0.0,0.0,0.0,0.0,0.0,0.0,0.0,0.0,0.0,0.0,0.0,0.0,-2.7309,-2.7309,-2.7309,-2.7309,-2.7309,-2.7309,-2.7309,-2.7309,-2.7309,-2.7309,-2.7309,-2.7309,-2.7309,-2.7309,-2.7309,-2.7309,-2.7309,-2.7309,-2.7309,-2.7309,-2.7309,-2.7309,-2.7309,-2.7309,-2.7309,-2.7309,-2.7309,-2.7309,0.0,0.0,0.0,0.0,0.0,0.0,0.0,-2.2615,-2.237,-2.1688,-2.1568,-2.1288,-2.066,-2.0087,-1.9494,-1.8871,-1.8007,0.0,0.0,0.0,0.0,0.0,0.0,0.0,0.0,-1.7333,-1.7766,-1.815,-1.8421,-1.8589,-1.8645,-1.946,-1.9831,-1.9907,-2.0465,-2.0701,0.0,0.0,0.0,0.0,0.0,0.0,-2.0074,0.0,0.0,0.0,0.0,0.0,0.0,0.0,0.0,0.0,0.0,0.0,0.0,0.0,-1.9684,-2.0133,0.0,-1.9727,-1.944,-1.929,-1.9015,0.0,0.0,0.0,-1.8781,-1.8781,-1.8781,-1.8781,-1.8781,-1.8781,-1.8993,-1.9682,-2.0755,0.0,0.0,0.0,0.0,0.0,0.0,0.0,0.0,0.0,0.0,0.0,0.0,-2.7309,-2.7309,-2.7309,-2.7309,-2.7309,-2.7309,-2.7309,-2.7309,-2.7309,-2.7309,-2.7309,-2.7404,-2.7394,-2.7404,-2.7536,-2.7584,-2.7584,-2.7584,-2.7489,0.0,-2.7394,-2.7357,-2.7309,-2.7309,-2.7309,-2.7309,-2.7309,-2.7309,-2.7309,0.0,0.0,0.0,0.0,0.0,0.0,0.0,-2.2592,-2.2347,-2.1664,-2.1447,-2.1166,-2.061,-2.0195,-1.9674,-1.8908,0.0,0.0,0.0,0.0,0.0,0.0,0.0,0.0,-1.6587,-1.694,-1.7318,-1.7711,-1.7711,-1.7947,-1.8423,-1.8932,-1.9425,-1.9831,-2.0422,-2.0669,-2.0637,-2.0475,-2.0281,-2.0118,-2.0118,-2.0074,0.0,0.0,0.0,0.0,0.0,0.0,0.0,0.0,0.0,0.0,0.0,0.0,0.0,0.0,0.0,0.0,0.0,-1.9097,0.0,0.0,0.0,0.0,0.0,0.0,0.0,-1.8781,-1.8781,-1.8781,-1.8781,-1.8781,-1.8977,-1.9586,-2.073,0.0,0.0,0.0,0.0,0.0,0.0,0.0,0.0,0.0,0.0,0.0,0.0,-2.7309,-2.7309,-2.7309,-2.7309,-2.7309,-2.7309,-2.7309,-2.7309,-2.7309,-2.7309,-2.7299,-2.7489,-2.7631,-2.7631,-2.7904,-2.7998,0.0,-2.7998,-2.7857,-2.7631,-2.7631,-2.7489,-2.7309,-2.7309,-2.7309,-2.7309,-2.7309,-2.7309,-2.7309,0.0,0.0,0.0,0.0,0.0,0.0,0.0,0.0,0.0,0.0,-2.118,-2.0797,-2.0055,-1.9901,-1.9644,0.0,0.0,0.0,0.0,0.0,0.0,0.0,0.0,0.0,-1.6439,-1.655,-1.6946,-1.7711,-1.7711,-1.7712,-1.7751,-1.857,-1.8964,-1.9017,-1.9853,-2.0248,-2.0248,-2.0183,-2.0151,-2.0118,-2.0118,-2.0042,0.0,0.0,0.0,0.0,-1.9175,-1.8942,0.0,0.0,0.0,0.0,0.0,0.0,0.0,0.0,-1.8442,-1.8669,-1.8175,0.0,-1.8832,-1.873,-1.8763,-1.8781,0.0,0.0,0.0,0.0,0.0,0.0,0.0,0.0,0.0,0.0,0.0,0.0,0.0,0.0,0.0,0.0,0.0,0.0,0.0,0.0,0.0,0.0,-2.7309,-2.7309,-2.7309,-2.7309,-2.7309,-2.7309,-2.7309,-2.7309,-2.7309,-2.7309,-2.7404,-2.7547,-2.7594,-2.7726,-2.7904,-2.7998,-2.7998,-2.7998,-2.7998,-2.7951,-2.7904,-2.7904,-2.7773,-2.7547,-2.7547,-2.7452,-2.7309,-2.7309,-2.7309,-2.7309,0.0,0.0,0.0,0.0,0.0,0.0,0.0,0.0,0.0,0.0,0.0,0.0,0.0,0.0,0.0,0.0,0.0,0.0,0.0,0.0,0.0,0.0,0.0,-1.5684,-1.63,-1.6311,-1.6703,-1.7529,-1.7529,-1.749,-1.7418,-1.8368,-1.8758,-1.8731,-1.9682,-2.0118,-2.0118,-2.0118,-2.0118,-2.0074,-2.0042,0.0,0.0,0.0,0.0,0.0,-1.8875,-1.8539,0.0,-1.8124,-1.7914,-1.7649,0.0,0.0,0.0,0.0,-1.7838,-1.8,-1.7538,-1.8087,-1.8704,-1.8378,-1.8544,-1.8781,0.0,0.0,0.0,0.0,0.0,0.0,0.0,0.0,0.0,0.0,-2.1104,0.0,0.0,0.0,0.0,0.0,0.0,0.0,0.0,0.0,0.0,0.0,-2.7309,-2.7309,-2.7309,-2.7309,-2.7309,-2.7309,-2.7309,-2.7309,-2.7309,-2.7404,-2.7489,-2.7584,-2.7867,-2.8055,-2.8196,-2.8326,-2.8373,-2.8373,-2.8373,-2.8279,-2.8196,-2.8196,-2.8055,-2.7762,-2.7762,-2.7631,-2.7452,-2.7452,-2.7404,-2.7309,0.0,0.0,0.0,0.0,0.0,0.0,0.0,0.0,0.0,0.0,0.0,0.0,0.0,0.0,0.0,0.0,0.0,0.0,0.0,0.0,0.0,0.0,0.0,-1.5635,-1.6185,-1.6249,-1.6609,-1.7306,-1.7306,-1.7278,-1.7261,-1.821,-1.8714,-1.8888,-1.9683,-2.0009,-2.0009,-2.0009,-2.0009,-2.0009,-1.9911,0.0,0.0,0.0,0.0,0.0,0.0,0.0,0.0,-1.7638,-1.7317,-1.6943,-1.7042,0.0,0.0,0.0,0.0,0.0,-1.7139,-1.7878,-1.8568,-1.7945,-1.8303,-1.8827,-1.8874,0.0,0.0,0.0,0.0,0.0,0.0,0.0,0.0,0.0,0.0,0.0,0.0,0.0,0.0,0.0,0.0,0.0,0.0,0.0,-2.7309,-2.7309,-2.7309,-2.7309,-2.7309,-2.7309,-2.7309,-2.7309,-2.7309,-2.7309,-2.7357,-2.7489,-2.7631,-2.7726,-2.816,-2.8441,-2.8488,-2.871,-2.8803,-2.8803,0.0,0.0,-2.8441,-2.8441,-2.829,-2.8045,-2.8045,-2.7914,-2.7678,-2.7631,-2.7489,-2.7357,0.0,0.0,0.0,0.0,0.0,0.0,0.0,0.0,0.0,0.0,0.0,0.0,0.0,0.0,0.0,0.0,0.0,0.0,0.0,0.0,0.0,-1.7254,-1.6256,-1.5857,-1.6196,-1.648,-1.6845,-1.7306,-1.7306,-1.7211,-1.706,-1.7992,-1.8814,-1.9468,-1.9607,-1.9671,-1.9671,-1.9671,-1.9671,-1.9671,-1.9638,0.0,0.0,0.0,0.0,0.0,0.0,0.0,0.0,-1.7339,-1.7224,-1.7099,-1.6914,0.0,0.0,0.0,0.0,0.0,-1.7139,-1.7626,-1.8135,-1.7858,-1.8303,-1.8874,-1.9104,0.0,0.0,0.0,0.0,0.0,0.0,0.0,0.0,0.0,0.0,0.0,0.0,0.0,0.0,0.0,0.0,0.0,0.0,0.0,-2.7309,-2.7309,-2.7309,-2.7309,-2.7309,-2.7309,-2.7309,-2.7309,-2.7309,-2.7404,-2.7536,-2.7584,-2.7831,-2.8301,-2.8348,-2.8535,-2.8757,-2.8803,-2.8803,-2.8803,0.0,-2.8757,-2.8757,-2.8757,-2.8571,-2.8348,-2.8348,-2.8149,-2.7904,-2.7678,-2.7584,-2.7547,0.0,0.0,0.0,0.0,0.0,0.0,0.0,0.0,0.0,0.0,0.0,0.0,0.0,0.0,0.0,0.0,0.0,0.0,0.0,0.0,0.0,-1.7314,-1.6729,-1.6429,-1.6469,-1.6638,-1.6911,-1.7306,-1.7183,-1.7078,-1.7032,-1.7903,-1.8763,-1.9605,-1.9605,-1.9605,-1.9605,-1.9605,-1.9605,-1.9572,0.0,0.0,0.0,0.0,0.0,0.0,0.0,0.0,0.0,0.0,-1.6883,-1.6698,-1.666,0.0,0.0,0.0,0.0,0.0,-1.7176,-1.7568,-1.7957,-1.8053,-1.8446,-1.8874,-1.9142,0.0,0.0,0.0,0.0,0.0,0.0,0.0,0.0,0.0,0.0,0.0,0.0,0.0,0.0,0.0,0.0,0.0,0.0,-2.7309,-2.7309,-2.7309,-2.7309,-2.7309,-2.7309,-2.7309,-2.7309,-2.7309,-2.7404,-2.7584,-2.7809,-2.7961,-2.816,-2.8395,-2.8535,-2.8664,-2.8803,-2.8803,-2.8803,-2.8803,0.0,-2.8803,-2.8803,-2.8803,-2.871,-2.8628,-2.8628,-2.843,-2.8149,-2.7726,-2.7547,-2.7404,0.0,0.0,0.0,0.0,0.0,0.0,0.0,0.0,0.0,0.0,0.0,0.0,0.0,0.0,0.0,0.0,0.0,0.0,0.0,0.0,-1.7602,-1.7338,-1.7156,-1.6928,-1.6696,-1.6779,-1.6978,-1.7239,-1.7078,-1.7062,-1.7213,-1.78,-1.8575,-1.9473,-1.9473,-1.9473,-1.9473,-1.9473,-1.9473,-1.9473,0.0,0.0,0.0,0.0,0.0,0.0,0.0,0.0,0.0,0.0,0.0,0.0,0.0,0.0,0.0,-1.6692,-1.6689,-1.6776,-1.7183,-1.7517,-1.7902,-1.8208,0.0,-1.8966,-1.9279,0.0,0.0,0.0,0.0,0.0,0.0,0.0,0.0,0.0,0.0,-2.5655,-2.6768,-2.7129,-2.7309,-2.7309,-2.7309,-2.7309,-2.7309,-2.7309,-2.7309,-2.7309,-2.7309,-2.7309,-2.7309,-2.7309,-2.7309,-2.7309,-2.7499,-2.7726,-2.7998,-2.8243,-2.8441,-2.8488,-2.871,-2.8803,-2.8803,-2.8803,-2.8803,-2.8803,-2.8803,-2.8803,-2.8803,-2.8803,-2.8803,-2.8803,-2.8803,-2.8617,-2.8243,-2.7773,-2.7489,-2.7309,0.0,0.0,0.0,0.0,0.0,0.0,0.0,0.0,0.0,0.0,0.0,0.0,0.0,0.0,0.0,0.0,0.0,0.0,0.0,0.0,-1.7945,-1.7683,-1.7534,-1.7213,-1.6707,-1.7066,-1.7168,-1.7011,-1.7011,-1.7291,-1.782,-1.7781,-1.8248,-1.9142,-1.9142,-1.9142,-1.9142,-1.9142,-1.9142,-1.9108,-1.8908,0.0,0.0,0.0,0.0,0.0,0.0,0.0,0.0,0.0,0.0,0.0,0.0,0.0,-1.7025,-1.6771,-1.6689,-1.6776,-1.7183,-1.7517,-1.7902,-1.8208,-1.8747,0.0,-1.9745,-2.0192,0.0,-2.1212,0.0,0.0,0.0,0.0,0.0,0.0,0.0,-2.587,-2.6768,0.0,-2.7309,-2.7309,-2.7309,-2.7309,-2.7309,-2.7309,-2.7309,-2.7309,-2.7309,-2.7309,-2.7309,-2.7309,-2.7309,-2.7309,-2.7499,-2.7726,-2.7998,-2.8243,-2.8535,-2.8757,-2.8803,-2.8803,-2.8803,-2.8803,-2.8803,-2.8803,-2.8803,-2.8803,-2.8803,-2.8803,-2.8803,-2.8803,-2.8803,-2.8466,-2.7998,-2.7726,-2.7489,-2.7309,0.0,0.0,0.0,0.0,0.0,0.0,0.0,0.0,0.0,0.0,0.0,0.0,0.0,0.0,0.0,0.0,0.0,0.0,0.0,-1.8166,-1.7881,-1.7711,-1.7562,-1.7296,-1.689,-1.7047,-1.7078,-1.7011,-1.7141,-1.7396,-1.7781,-1.803,-1.8464,-1.9108,-1.9108,-1.9108,-1.9108,-1.9108,-1.9042,-1.8908,-1.8841,-1.8607,0.0,0.0,0.0,0.0,0.0,0.0,0.0,0.0,-1.6287,-1.616,-1.6292,-1.6371,-1.6492,-1.6525,-1.6517,-1.6733,-1.7616,-1.7951,-1.8237,-1.8946,-1.9592,0.0,0.0,-2.0645,-2.1311,-2.2097,-2.2627,0.0,0.0,0.0,0.0,0.0,0.0,-2.6125,-2.6995,-2.7214,-2.7309,-2.7309,-2.7309,-2.7309,-2.7309,-2.7309,-2.7309,-2.7309,-2.7309,-2.7347,-2.7499,-2.7499,-2.7536,-2.7715,-2.7961,-2.816,-2.8243,-2.8524,-2.871,-2.8803,-2.8803,-2.8803,-2.8803,-2.8803,-2.8803,-2.8803,-2.8803,-2.8803,-2.8803,-2.8803,-2.8803,-2.8803,-2.8628,-2.8337,-2.7998,-2.7678,-2.7489,-2.7309,0.0,0.0,0.0,0.0,0.0,0.0,0.0,0.0,0.0,0.0,0.0,0.0,0.0,0.0,0.0,0.0,0.0,0.0,-1.8313,-1.8002,-1.7772,-1.7645,-1.744,-1.7234,-1.7011,-1.6927,-1.687,-1.687,-1.7101,-1.7437,-1.7915,-1.8247,-1.8652,-1.9108,-1.9108,-1.9108,-1.9108,-1.9042,-1.8942,-1.8774,-1.8674,-1.8405,0.0,0.0,0.0,0.0,0.0,0.0,0.0,0.0,-1.6253,-1.6021,-1.6301,-1.6296,-1.6245,-1.6443,-1.6637,-1.6982,-1.7938,-1.8398,-1.8767,-1.9513,0.0,0.0,-2.0862,-2.1356,-2.2033,-2.275,-2.3329,0.0,0.0,0.0,0.0,0.0,-2.5875,-2.6252,-2.7175,-2.7309,-2.7309,-2.7309,-2.7309,-2.7309,-2.7309,-2.7309,-2.7309,-2.7309,-2.7357,-2.7452,-2.7584,-2.7678,-2.7809,-2.7987,-2.8243,-2.8395,-2.8395,-2.8664,-2.8803,-2.8803,-2.8803,-2.8803,-2.8803,-2.8803,-2.8803,-2.8803,-2.8803,-2.8803,-2.8803,-2.8803,-2.8803,-2.8757,-2.8488,-2.8243,-2.7998,-2.7678,-2.7489,-2.7309,0.0,0.0,0.0,0.0,0.0,0.0,0.0,0.0,0.0,0.0,0.0,0.0,0.0,0.0,0.0,0.0,0.0,0.0,-1.8111,-1.7849,-1.7645,-1.7507,-1.7179,-1.7011,-1.7011,-1.674,-1.6609,-1.6609,-1.6877,-1.7471,-1.8414,-1.8414,-1.8662,-1.9108,-1.9108,-1.9108,-1.9108,-1.8875,-1.8808,-1.8774,-1.8438,-1.8303,-1.8202,0.0,0.0,0.0,0.0,0.0,0.0,0.0,-1.6515,-1.6269,-1.6578,-1.6566,-1.6435,-1.6656,-1.7151,-1.7673,-1.8097,-1.8797,-1.951,0.0,0.0,0.0,-2.1926,-2.2476,-2.2838,-2.3057,0.0,-2.4206,-2.4206,0.0,0.0,-2.573,-2.5875,-2.6252,-2.7175,-2.7309,-2.7309,-2.7309,-2.7309,-2.7309,-2.7309,-2.7309,-2.7309,-2.7309,-2.7499,-2.7584,-2.7584,-2.7857,-2.7998,-2.7998,-2.8243,-2.8395,-2.8395,-2.8664,-2.8803,-2.8803,-2.8803,-2.8803,-2.8803,-2.8803,-2.8803,-2.8803,-2.8803,-2.8803,-2.8803,-2.8803,-2.8803,-2.8757,-2.8488,-2.8243,-2.7998,-2.7678,-2.7489,-2.7309,0.0,0.0,0.0,0.0,0.0,0.0,0.0,0.0,0.0,0.0,0.0,0.0,0.0,0.0,0.0,0.0,0.0,0.0,-1.7822,-1.7645,-1.7534,-1.7496,-1.7179,-1.6955,-1.6864,-1.6877,-1.6888,-1.6888,-1.7295,-1.7792,-1.8414,-1.8745,-1.8973,-1.9108,-1.9108,-1.9108,-1.9108,-1.8875,-1.8707,-1.8549,-1.8212,-1.794,-1.7666,0.0,0.0,0.0,0.0,0.0,0.0,0.0,0.0,0.0,-1.6415,-1.6435,-1.6482,-1.6974,-1.7503,-1.8103,-1.908,-1.972,0.0,0.0,0.0,0.0,0.0,-2.2794,0.0,0.0,0.0,-2.4411,-2.4411,0.0,0.0,-2.573,-2.5875,-2.6252,-2.7175,-2.7309,-2.7309,-2.7309,-2.7309,-2.7309,-2.7309,-2.7309,-2.7309,-2.7309,-2.7499,-2.7678,-2.7857,-2.8149,-2.8384,-2.856,-2.8664,-2.8664,-2.8664,-2.8757,-2.8803,-2.8803,-2.8803,-2.8803,-2.8803,-2.8803,-2.8803,-2.8803,-2.8803,-2.8803,-2.8803,-2.8803,-2.8803,-2.8757,-2.8488,-2.8348,-2.8254,-2.7773,-2.7547,-2.7489,0.0,0.0,0.0,0.0,0.0,0.0,0.0,0.0,0.0,0.0,0.0,0.0,0.0,0.0,0.0,0.0,0.0,0.0,0.0,-1.7534,-1.744,-1.7301,-1.705,-1.6921,-1.6893,-1.696,-1.7182,-1.7574,-1.7854,-1.8216,-1.8694,-1.8973,-1.9108,-1.9108,-1.9108,-1.9108,-1.9065,-1.8808,-1.8617,-1.8448,-1.8032,-1.7865,-1.7742,0.0,0.0,0.0,0.0,0.0,0.0,0.0,0.0,0.0,-1.6577,0.0,-1.667,-1.7487,-1.8154,-1.8871,-1.9817,0.0,0.0,0.0,0.0,0.0,0.0,0.0,0.0,0.0,0.0,-2.4497,-2.4497,-2.4497,0.0,-2.573,-2.5875,-2.6252,-2.7175,-2.7309,-2.7309,-2.7309,-2.7309,-2.7309,-2.7309,-2.7309,-2.7309,-2.7394,-2.7631,-2.7857,-2.8139,-2.843,-2.8617,-2.8803,-2.8803,-2.8803,-2.8803,-2.8803,-2.8803,-2.8803,-2.8803,-2.8803,-2.8803,-2.8803,-2.8803,-2.8803,-2.8803,-2.8803,-2.8803,-2.8803,-2.8803,-2.8803,-2.8617,-2.8488,-2.8348,-2.7914,-2.7678,-2.7584,0.0,0.0,0.0,0.0,0.0,0.0,0.0,0.0,0.0,0.0,0.0,0.0,0.0,0.0,0.0,0.0,0.0,0.0,0.0,0.0,-1.7329,-1.7011,-1.6896,-1.6901,-1.7006,-1.7089,-1.7533,-1.8414,-1.8414,-1.8652,-1.9108,-1.9108,-1.9108,-1.9108,-1.9108,-1.9108,-1.9075,-1.8684,-1.8502,-1.8508,-1.7944,-1.7919,-1.8214,-1.746,0.0,0.0,0.0,0.0,0.0,0.0,0.0,0.0,-1.6968,-1.6959,-1.7014,-1.8088,-1.9006,-1.9858,-2.0489,0.0,0.0,0.0,0.0,0.0,0.0,0.0,0.0,0.0,0.0,-2.4497,-2.4497,-2.4497,-2.4776,-2.5678,-2.5854,-2.6231,-2.7123,-2.7278,-2.7309,-2.7309,-2.7309,-2.7309,-2.7309,-2.7309,-2.7404,-2.7594,-2.7857,-2.8139,-2.8395,-2.8664,-2.8803,-2.8803,-2.8803,-2.8803,-2.8803,-2.8803,-2.8803,-2.8803,-2.8803,-2.8803,-2.8803,-2.8803,-2.8803,-2.8803,-2.8803,-2.8803,-2.8803,-2.8803,-2.8803,-2.8803,-2.8803,-2.8664,-2.8395,-2.8092,-2.7857,-2.7584,0.0,0.0,0.0,0.0,0.0,0.0,0.0,0.0,0.0,0.0,0.0,0.0,0.0,0.0,0.0,0.0,0.0,0.0,0.0,0.0,-1.7095,-1.7011,-1.7119,-1.712,-1.7006,-1.7729,-1.8185,-1.8414,-1.8414,-1.8652,-1.9108,-1.9108,-1.9108,-1.9108,-1.9108,-1.9108,-1.9075,-1.8684,-1.8717,-1.8968,-1.8075,-1.7867,-1.8064,-1.7285,-1.6945,0.0,0.0,0.0,0.0,0.0,0.0,0.0,-1.7017,-1.7367,-1.7921,-1.9024,-1.9918,-2.0734,0.0,-2.241,0.0,0.0,0.0,0.0,0.0,0.0,0.0,0.0,-2.4497,-2.4497,-2.4497,-2.4497,-2.4683,-2.5285,-2.5658,-2.6117,-2.6687,-2.7081,-2.7309,-2.7309,-2.7309,-2.7309,-2.7309,-2.7441,-2.7536,-2.7584,-2.8055,-2.8348,-2.8395,-2.8664,-2.8803,-2.8803,-2.8803,-2.8803,-2.8803,-2.8803,-2.8803,-2.8803,-2.8803,-2.8803,-2.8803,-2.8803,-2.8803,-2.8803,-2.8803,-2.8803,-2.8803,-2.8803,-2.8803,-2.8803,-2.8803,-2.8757,-2.8664,-2.8186,-2.7951,-2.7857,0.0,0.0,0.0,0.0,0.0,0.0,0.0,0.0,0.0,0.0,0.0,0.0,0.0,0.0,0.0,0.0,0.0,0.0,0.0,0.0,-1.7023,-1.7144,-1.7137,-1.7333,-1.7678,-1.8133,-1.8517,-1.8745,-1.8745,-1.887,-1.9108,-1.9108,-1.9108,-1.9108,-1.9108,-1.9222,-1.944,-1.91,-1.9192,-1.9474,-1.8632,-1.8451,-1.8601,-1.7796,-1.7571,-1.7661,-1.7351,0.0,0.0,0.0,0.0,0.0,0.0,0.0,-1.8162,-1.9307,-2.0087,-2.086,0.0,0.0,0.0,0.0,0.0,0.0,0.0,0.0,0.0,0.0,-2.4497,-2.4497,-2.4497,-2.4497,-2.4652,-2.5117,-2.542,-2.5802,-2.6521,-2.6822,-2.7061,-2.7278,-2.7309,-2.7357,-2.7441,-2.7536,-2.7726,-2.7961,-2.8254,-2.8441,-2.8571,-2.871,-2.8803,-2.8803,-2.8803,-2.8803,-2.8803,-2.8803,-2.8803,-2.8803,-2.8803,-2.8803,-2.8803,-2.8803,-2.8803,-2.8803,-2.8803,-2.8803,-2.8803,-2.8803,-2.8803,-2.8803,-2.8803,-2.871,-2.8571,-2.8139,-2.7904,-2.7773,0.0,0.0,0.0,0.0,0.0,0.0,0.0,0.0,0.0,0.0,0.0,0.0,0.0,0.0,0.0,0.0,0.0,0.0,0.0,0.0,0.0,-1.7223,-1.7251,-1.7626,-1.8393,-1.8486,-1.8714,-1.9108,-1.9108,-1.9108,-1.9108,-1.9108,-1.915,-1.9222,-1.9222,-1.9482,-1.9872,-1.9708,-1.9798,-1.9998,-1.9377,-1.922,-1.9315,-1.8545,-1.8438,-1.8652,-1.8282,-1.8155,-1.8207,-1.7995,0.0,0.0,0.0,0.0,-1.8455,-1.9573,-2.0246,-2.0862,0.0,0.0,0.0,0.0,0.0,0.0,0.0,0.0,0.0,0.0,-2.4497,-2.4497,-2.4497,-2.4497,-2.4621,-2.5003,-2.5137,-2.5492,-2.6237,-2.6521,-2.676,-2.7143,-2.7258,-2.7404,-2.7584,-2.7678,-2.7925,-2.8348,-2.8441,-2.8581,-2.8803,-2.8803,-2.8803,-2.8803,-2.8803,-2.8803,-2.8803,-2.8803,-2.8803,-2.8803,-2.8803,-2.8803,-2.8803,-2.8803,-2.8803,-2.8803,-2.8803,-2.8803,-2.8803,-2.8803,-2.8803,-2.8803,-2.8757,-2.8617,-2.8348,-2.8045,-2.7773,-2.7584,0.0,0.0,0.0,0.0,0.0,0.0,0.0,0.0,0.0,0.0,0.0,0.0,0.0,0.0,0.0,0.0,0.0,0.0,-1.7011,0.0,0.0,-1.7036,-1.7781,-1.8257,-1.8414,-1.8808,-1.9046,-1.9108,-1.9108,0.0,0.0,0.0,0.0,-1.9699,-1.9699,-1.9913,-2.0302,-2.018,-2.0339,-2.0626,-1.9844,-1.9631,-1.975,-1.911,-1.8789,-1.8705,-1.8625,-1.8829,-1.9071,-1.8824,-1.8842,0.0,0.0,0.0,-1.9677,-2.0438,-2.1066,-2.1747,0.0,0.0,0.0,0.0,0.0,0.0,0.0,0.0,0.0,0.0,-2.4497,-2.4497,-2.4497,-2.4497,-2.4518,-2.458,-2.4921,-2.523,-2.5344,-2.6082,-2.6635,-2.6708,-2.7202,-2.7584,-2.7584,-2.8019,-2.8301,-2.8395,-2.8628,-2.8757,-2.8803,-2.8803,-2.8803,-2.8803,-2.8803,-2.8803,-2.8803,-2.8803,-2.8803,-2.8803,-2.8803,-2.8803,-2.8803,-2.8803,-2.8803,-2.8803,-2.8803,-2.8803,-2.8803,-2.8803,-2.8803,-2.8757,-2.8524,-2.8441,-2.8348,-2.7831,-2.7631,-2.7584,0.0,0.0,0.0,0.0,0.0,0.0,0.0,0.0,0.0,0.0,0.0,0.0,0.0,0.0,0.0,-1.7145,-1.7039,-1.7034,-1.7169,-1.738,-1.7594,-1.7781,-1.8164,-1.8528,-1.8797,-1.8994,-1.9108,-1.9108,0.0,0.0,0.0,-1.9717,-1.981,0.0,0.0,-2.0389,-2.0777,-2.0715,-2.0899,-2.1168,-2.0675,-2.0468,-2.0411,-2.0148,-2.0083,-2.0141,-2.0255,-2.0492,-2.0683,-2.0361,-2.0189,-2.0126,-1.9929,0.0,0.0,0.0,-2.0792,0.0,-2.2432,0.0,0.0,0.0,0.0,0.0,0.0,0.0,0.0,0.0,-2.4497,-2.4497,-2.4497,-2.4497,-2.4497,-2.4497,-2.4662,-2.489,-2.5148,-2.5575,-2.5951,-2.6337,-2.6637,-2.6946,-2.7243,-2.7482,-2.7653,-2.7768,-2.7903,-2.7949,-2.7949,-2.7949,-2.8069,-2.8342,-2.8353,-2.8484,-2.8803,-2.8484,-2.8222,-2.7949,-2.7949,-2.7949,-2.7949,-2.7949,-2.8289,-2.8803,-2.8803,-2.8803,-2.8803,-2.8803,-2.8803,-2.8803,-2.8664,-2.8269,-2.7743,-2.7511,-2.7111,-2.6624,0.0,0.0,0.0,0.0,0.0,0.0,0.0,0.0,0.0,0.0,0.0,0.0,0.0,0.0,0.0,0.0,-1.7137,-1.7208,-1.739,-1.7708,-1.804,-1.8361,-1.8528,-1.8745,-1.9098,-1.9222,-1.9285,-1.9285,0.0,0.0,-1.9979,-2.0389,-2.042,0.0,-2.0452,-2.0855,0.0,0.0,-2.1374,-2.154,-2.1359,-2.1265,-2.1231,-2.1164,-2.1319,-2.1578,-2.1789,-2.2016,-2.2178,-2.1739,-2.1512,-2.1306,-2.0964,-2.0712,0.0,0.0,0.0,0.0,0.0,0.0,0.0,0.0,0.0,0.0,0.0,0.0,0.0,0.0,-2.4497,-2.4497,-2.4497,-2.4497,-2.4497,-2.4497,-2.4497,-2.4621,-2.4962,-2.5194,-2.548,-2.5981,-2.6262,-2.657,-2.6959,-2.7038,-2.716,-2.7271,-2.7315,-2.7315,-2.7315,-2.7315,-2.7479,-2.7794,-2.7805,-2.8025,-2.8431,-2.8036,-2.7676,-2.7315,-2.7315,-2.7315,-2.7315,-2.7315,-2.7708,-2.8431,-2.8431,-2.8431,-2.8431,-2.8431,-2.8431,-2.8431,-2.8351,-2.7847,-2.7115,-2.7059,-2.6529,-2.5875,0.0,0.0,0.0,0.0,0.0,0.0,0.0,0.0,0.0,0.0,0.0,0.0,-1.7306,-1.7306,-1.7396,-1.7658,-1.7565,-1.7531,-1.7667,-1.8102,-1.8383,-1.8414,-1.8839,0.0,-1.9108,-1.9533,-1.9761,0.0,0.0,0.0,-2.0364,-2.0866,-2.1062,-2.1041,-2.1036,-2.1331,-2.1766,0.0,0.0,-2.1769,-2.1589,-2.1729,-2.2116,-2.1909,-2.2141,-2.2513,-2.2543,-2.2815,-2.3072,-2.2608,-2.2572,-2.2604,-2.2148,-2.2015,-2.198,0.0,0.0,0.0,0.0,0.0,0.0,0.0,0.0,0.0,0.0,0.0,0.0,0.0,-2.4497,-2.4497,-2.4497,-2.4497,-2.4497,-2.4497,-2.4497,-2.4507,-2.4528,-2.5161,-2.5574,-2.5639,-2.6404,-2.6959,-2.7004,-2.716,-2.7271,-2.7315,-2.7315,-2.7315,-2.7315,-2.7315,-2.7326,-2.7348,-2.7348,-2.7359,-2.7392,-2.7359,-2.7337,-2.7315,-2.7315,-2.7315,-2.7315,-2.7315,-2.7337,-2.7392,-2.7392,-2.7392,-2.7392,-2.7392,-2.7392,-2.7347,-2.7158,-2.6913,-2.6613,-2.6367,-2.6121,-2.5875,0.0,0.0,0.0,0.0,0.0,0.0,0.0,0.0,0.0,0.0,0.0,0.0,0.0,-1.7748,-1.7806,-1.8023,-1.8069,-1.8093,-1.8133,-1.86,-1.8859,-1.8859,-1.9295,-1.9409,-1.9108,-1.9554,-1.9793,0.0,0.0,-2.054,-2.0876,-2.1342,-2.1559,-2.1559,-2.1559,-2.1652,-2.1807,-2.1807,0.0,0.0,0.0,0.0,0.0,0.0,0.0,0.0,0.0,0.0,-2.4004,-2.3705,-2.3504,-2.3363,-2.2882,-2.2662,-2.2495,0.0,0.0,0.0,0.0,0.0,0.0,0.0,0.0,0.0,0.0,0.0,0.0,0.0,-2.4497,-2.4497,-2.4497,-2.4497,-2.4497,-2.4497,-2.4497,-2.4497,-2.4497,-2.4889,-2.5198,-2.5327,-2.5787,-2.6163,-2.6291,-2.6366,-2.6409,-2.6409,-2.6409,-2.6409,-2.6409,-2.6409,-2.6551,-2.6824,-2.6835,-2.6835,-2.6835,-2.6835,-2.6715,-2.6409,-2.6409,-2.6409,-2.6409,-2.6409,-2.6409,-2.6409,-2.6409,-2.6747,-2.7315,-2.7315,-2.7315,-2.7271,-2.7238,-2.6788,-2.6158,-2.6026,-2.5572,-2.5016,0.0,0.0,0.0,0.0,0.0,0.0,0.0,0.0,0.0,0.0,0.0,0.0,0.0,0.0,-1.8306,-1.8526,-1.8702,-1.8771,-1.8717,-1.9154,-1.937,-1.9336,-1.9772,-1.9876,-1.953,-2.001,-2.0249,0.0,0.0,0.0,0.0,-2.1662,-2.189,-2.2035,-2.2035,-2.2035,0.0,0.0,0.0,-2.2729,0.0,0.0,-2.3453,0.0,0.0,0.0,0.0,0.0,-2.4454,-2.4282,-2.4067,-2.3841,-2.345,-2.3232,0.0,0.0,0.0,0.0,-2.2979,0.0,0.0,0.0,0.0,0.0,0.0,0.0,0.0,0.0,-2.4497,-2.4497,-2.4497,-2.4497,-2.4497,-2.4497,-2.4497,-2.454,-2.4615,-2.4871,-2.5073,-2.5295,-2.5549,-2.5728,-2.5906,-2.5895,-2.5895,-2.5895,-2.5895,0.0,-2.5895,-2.5895,-2.6048,-2.6376,-2.6387,-2.6387,-2.6387,-2.6387,-2.6223,-2.5895,-2.5895,-2.5895,-2.5895,-2.5895,-2.5895,-2.5895,-2.5895,-2.6256,-2.6846,-2.6846,-2.6846,-2.6846,-2.6846,-2.6336,-2.5668,-2.5668,-2.5219,-2.4658,0.0,0.0,0.0,0.0,0.0,0.0,0.0,0.0,0.0,-1.7966,0.0,0.0,0.0,0.0,0.0,-1.9199,-1.949,-1.9548,-1.9349,-1.9779,-1.9962,-1.9813,-2.0203,-2.0395,-2.0385,-2.0876,-2.1114,0.0,0.0,0.0,0.0,0.0,-2.2076,-2.2511,-2.2511,-2.2522,-2.2532,0.0,-2.278,-2.3205,0.0,-2.3484,-2.394,0.0,0.0,0.0,-2.4497,-2.4497,0.0,-2.4282,0.0,0.0,0.0,0.0,0.0,0.0,0.0,0.0,0.0,0.0,0.0,0.0,0.0,0.0,0.0,0.0,0.0,0.0,-2.4497,-2.4497,-2.4497,-2.4497,-2.4497,-2.4497,-2.4497,-2.4615,-2.4861,-2.5073,-2.5295,-2.5559,-2.577,-2.5895,-2.5895,-2.5895,-2.5895,-2.5895,-2.5895,-2.5895,-2.5895,-2.5895,-2.5895,-2.5895,-2.5895,-2.5895,-2.5895,-2.5895,-2.5895,-2.5895,-2.5895,-2.5895,-2.5895,-2.5895,-2.5895,-2.5895,-2.5895,-2.5895,-2.5895,-2.5895,-2.5895,-2.5895,-2.5895,-2.5591,-2.52,-2.52,-2.5073,-2.4903,0.0,0.0,0.0,0.0,0.0,0.0,0.0,0.0,0.0,0.0,0.0,0.0,-1.9168,-1.9748,-2.0117,-2.0191,-2.0441,-2.0535,-2.0327,-2.0418,-2.041,-2.0245,-2.0679,-2.0736,-2.0395,-2.0876,-2.1114,0.0,0.0,0.0,0.0,0.0,0.0,0.0,-2.2998,-2.3184,-2.3474,-2.3143,0.0,-2.3691,-2.3691,-2.396,0.0,0.0,0.0,0.0,0.0,-2.4497,-2.4497,0.0,-2.4421,-2.4368,0.0,0.0,0.0,0.0,0.0,0.0,-2.398,0.0,0.0,0.0,0.0,0.0,0.0,0.0,0.0,-2.4497,-2.4497,-2.4497,-2.4497,-2.4497,-2.4497,-2.4497,-2.4658,-2.4818,-2.4903,-2.5253,-2.5517,-2.5601,-2.577,-2.5895,-2.5895,-2.5895,-2.5895,0.0,-2.5895,-2.5895,-2.5895,-2.5895,-2.5895,-2.5895,-2.5895,-2.5895,-2.5895,-2.5895,-2.5895,-2.5895,-2.5895,-2.5895,-2.5895,-2.5895,-2.5895,-2.5895,-2.5895,-2.5895,-2.5895,-2.5895,-2.5895,-2.5895,-2.5895,-2.5591,-2.52,-2.52,-2.5073,-2.4903,0.0,0.0,0.0,0.0,0.0,0.0,0.0,0.0,0.0,0.0,0.0,0.0,-2.0249,-2.0727,-2.1029,-2.1029,-2.1164,-2.1174,-2.0963,-2.1144,-2.1132,-2.0963,-2.1303,-2.138,-2.111,-2.1306,-2.1497,0.0,0.0,0.0,0.0,0.0,0.0,0.0,0.0,0.0,0.0,0.0,0.0,0.0,-2.4157,0.0,0.0,-2.4658,-2.47,0.0,0.0,0.0,-2.4786,-2.4786,-2.4786,0.0,0.0,0.0,0.0,0.0,0.0,0.0,0.0,0.0,0.0,0.0,0.0,0.0,-2.5099,-2.5099,-2.5099,0.0,-2.491,-2.4786,-2.4786,-2.4631,-2.4497,-2.4497,-2.4786,-2.5031,-2.5031,-2.5338,-2.5644,-2.5728,-2.5822,-2.5895,-2.5895,-2.5895,-2.5895,-2.5895,-2.5895,-2.5895,-2.5895,-2.5895,-2.5895,-2.5895,-2.5895,-2.5895,-2.5895,-2.5895,-2.5895,-2.5895,-2.5895,-2.5895,-2.5895,-2.5895,-2.5895,-2.5895,-2.5895,-2.5895,-2.5895,-2.5895,-2.5895,-2.5895,-2.5895,-2.5686,-2.538,-2.538,-2.5295,-2.5211,0.0,0.0,0.0,0.0,0.0,0.0,0.0,0.0,0.0,0.0,-1.9976,-2.0598,-2.1494,-2.1636,-2.1669,-2.1669,-2.1723,-2.1675,-2.1463,-2.1894,-2.2069,-2.1849,-2.2119,-2.2296,-2.2296,-2.2105,-2.2237,0.0,0.0,0.0,0.0,0.0,0.0,0.0,0.0,0.0,0.0,0.0,0.0,-2.4655,-2.456,-2.47,0.0,0.0,-2.5062,-2.5275,-2.5275,-2.5307,-2.536,-2.536,-2.536,0.0,0.0,0.0,0.0,0.0,-2.5619,0.0,0.0,0.0,0.0,0.0,0.0,0.0,-2.5875,-2.5875,-2.5875,-2.5875,-2.5575,-2.5261,-2.5261,-2.4879,-2.4569,-2.4612,-2.4945,-2.52,-2.52,-2.5464,-2.5686,-2.5895,-2.5895,-2.5895,-2.5895,-2.5895,-2.5895,-2.5895,-2.5895,-2.5895,-2.5895,-2.5895,-2.5895,-2.5895,-2.5895,-2.5895,-2.5895,-2.5895,-2.5895,-2.5895,-2.5895,-2.5895,-2.5895,-2.5895,-2.5895,-2.5895,-2.5895,-2.5895,-2.5895,-2.5895,-2.5895,-2.5895,-2.5864,-2.5728,-2.5559,-2.5559,-2.5559,-2.5559,-2.0006,0.0,0.0,0.0,0.0,0.0,0.0,0.0,0.0,0.0,-2.1002,-2.1374,-2.157,-2.1942,-2.2182,-2.2182,-2.251,-2.2655,-2.2433,-2.2875,-2.303,-2.2839,-2.3225,-2.3469,-2.3469,-2.343,-2.3433,-2.3568,0.0,0.0,0.0,0.0,0.0,0.0,0.0,0.0,0.0,0.0,0.0,-2.5569,-2.5061,0.0,-2.5158,-2.5158,-2.5391,-2.5775,-2.5775,-2.603,-2.6415,-2.6415,-2.6415,-2.6415,0.0,0.0,0.0,-2.6175,0.0,0.0,0.0,0.0,0.0,0.0,-2.5875,0.0,-2.5875,-2.5875,-2.5875,0.0,-2.5813,-2.5751,-2.5751,-2.5399,-2.5132,-2.534,-2.5284,-2.52,-2.52,-2.5549,-2.5864,-2.5895,-2.5895,-2.5895,-2.5895,-2.5895,-2.5895,-2.5895,-2.5895,-2.5895,-2.5895,-2.5895,-2.5895,-2.5895,-2.5895,-2.5895,-2.5895,-2.5895,-2.5895,-2.5895,-2.5895,-2.5895,-2.5895,-2.5895,-2.5895,-2.5895,-2.5895,-2.5895,-2.5895,-2.5895,-2.5895,-2.5895,-2.5728,-2.5506,-2.5285,-2.5285,-2.5285,-2.5295,-1.9925,0.0,0.0,0.0,0.0,0.0,0.0,0.0,0.0,0.0,0.0,-2.204,-2.2269,-2.2728,-2.2986,-2.2986,-2.346,-2.3705,-2.359,-2.3818,-2.3909,-2.3791,-2.3917,-2.3995,-2.3995,-2.3865,-2.3892,-2.4136,0.0,0.0,0.0,0.0,0.0,0.0,0.0,0.0,0.0,0.0,-2.5776,-2.6076,-2.5604,0.0,-2.6119,-2.6119,-2.6313,-2.6605,-2.6605,-2.6767,-2.6982,-2.6982,-2.6982,0.0,-2.6893,-2.701,-2.7158,0.0,-2.6852,-2.6903,0.0,0.0,0.0,-2.6615,-2.6615,0.0,0.0,-2.6615,-2.6615,-2.6615,-2.6428,-2.6273,-2.6273,0.0,-2.5267,-2.5564,-2.538,-2.5242,-2.538,-2.5686,-2.5895,-2.5895,-2.5895,-2.5895,-2.5895,-2.5895,-2.5895,-2.5895,-2.5895,-2.5895,-2.5895,-2.5895,-2.5895,-2.5895,-2.5895,-2.5895,-2.5895,-2.5895,-2.5895,-2.5895,-2.5895,-2.5895,-2.5895,-2.5895,-2.5895,-2.5895,-2.5895,-2.5895,-2.5895,-2.5895,-2.5895,-2.5895,-2.5696,-2.5601,-2.5549,-2.5422,-2.5464,-2.5549,-2.003,0.0,0.0,0.0,0.0,0.0,0.0,0.0,0.0,0.0,0.0,0.0,0.0,0.0,0.0,-2.3836,-2.4257,-2.4486,-2.4486,-2.4574,-2.4618,-2.4618,-2.4563,-2.4526,-2.4526,-2.4304,-2.4405,-2.475,0.0,0.0,0.0,0.0,0.0,0.0,0.0,0.0,0.0,0.0,0.0,-2.6595,0.0,-2.6614,-2.705,-2.705,-2.7192,-2.7468,-2.7555,-2.7588,-2.7588,-2.7588,-2.7588,-2.7544,-2.741,-2.759,0.0,0.0,0.0,0.0,0.0,0.0,0.0,0.0,0.0,-2.7357,0.0,0.0,0.0,-2.7309,-2.7009,0.0,0.0,0.0,0.0,0.0,0.0,0.0,0.0,-2.574,0.0,-2.5906,-2.5895,-2.5895,-2.5895,-2.5895,-2.5895,-2.5895,-2.5895,-2.5895,-2.5895,-2.5895,-2.5895,-2.5895,-2.5895,-2.5895,-2.5895,-2.5895,-2.5895,-2.5895,-2.5895,-2.5895,-2.5895,-2.5895,-2.5895,-2.5895,-2.5895,-2.5895,-2.5895,-2.5895,-2.5895,-2.5895,-2.5696,-2.5686,-2.5812,-2.5644,-2.5686,-2.5853,-2.158,-2.1294,0.0,0.0,0.0,0.0,0.0,0.0,0.0,0.0,0.0,0.0,0.0,0.0,0.0,0.0,-2.4454,-2.4486,-2.4486,-2.4869,-2.5139,-2.5139,-2.5502,-2.569,-2.569,-2.569,-2.5681,-2.5735,-2.5735,0.0,0.0,0.0,0.0,0.0,-2.6269,0.0,0.0,0.0,-2.739,0.0,-2.7782,-2.7564,0.0,-2.7271,-2.7533,-2.7969,-2.844,-2.8639,-2.8639,0.0,-2.8639,-2.8639,0.0,-2.8626,-2.8634,-2.8355,0.0,0.0,0.0,0.0,0.0,0.0,-2.7715,0.0,-2.7584,0.0,-2.7309,-2.7309,0.0,0.0,0.0,0.0,0.0,0.0,0.0,0.0,-2.6087,-2.5637,-2.5422,-2.5853,-2.5895,-2.5895,-2.5895,-2.5895,-2.5895,-2.5895,-2.5895,-2.5895,-2.5895,-2.5895,-2.5895,-2.5895,-2.5895,-2.5895,-2.5895,-2.5895,-2.5895,-2.5895,-2.5895,-2.5895,-2.5895,-2.5895,-2.5895,-2.5895,-2.5895,-2.5895,-2.5895,-2.5895,-2.5895,-2.5895,-2.5696,-2.5601,-2.5644,-2.5601,-2.5601,-2.5644,-2.2218,-2.1823,0.0,0.0,0.0,0.0,0.0,0.0,0.0,0.0,0.0,0.0,0.0,0.0,0.0,0.0,0.0,-2.5306,-2.5306,-2.5491,0.0,-2.56,-2.5786,-2.5895,-2.5895,-2.5895,-2.5895,-2.5895,-2.5895,0.0,0.0,0.0,0.0,0.0,-2.6813,0.0,-2.7064,0.0,-2.7805,0.0,0.0,0.0,0.0,-2.8145,-2.8276,-2.8484,-2.8727,-2.8803,-2.8803,0.0,-2.8803,0.0,0.0,0.0,0.0,-2.8664,0.0,0.0,0.0,0.0,0.0,0.0,0.0,0.0,-2.7809,0.0,-2.7668,0.0,0.0,0.0,0.0,0.0,0.0,0.0,-2.6382,0.0,0.0,0.0,-2.569,0.0,0.0,0.0,-2.5906,-2.5895,-2.5895,-2.5895,-2.5895,-2.5895,-2.5895,-2.5895,-2.5895,-2.5895,-2.5895,-2.5895,-2.5895,-2.5895,-2.5895,-2.5895,-2.5895,-2.5895,-2.5895,-2.5895,-2.5895,-2.5895,-2.5895,-2.5895,-2.5895,-2.5895,-2.5895,-2.5906,-2.5812,-2.577,-2.577,-2.5644,-2.5686,-2.578,-2.3177,0.0,0.0,0.0,0.0,0.0,0.0,0.0,0.0,0.0,0.0,0.0,-2.4858,-2.5175,0.0,0.0,-2.5699,-2.5895,-2.5895,-2.5895,-2.5961,-2.6092,-2.6103,-2.6157,-2.6289,-2.6289,-2.6289,-2.6289,-2.6289,0.0,0.0,0.0,0.0,0.0,0.0,-2.7512,-2.75,0.0,-2.8233,-2.8265,-2.8661,-2.8803,-2.8803,-2.8803,-2.8803,-2.8803,-2.8803,-2.8803,-2.8803,-2.8803,-2.8803,0.0,-2.8803,-2.8803,-2.8803,0.0,0.0,0.0,-2.8488,0.0,0.0,0.0,0.0,0.0,0.0,0.0,0.0,0.0,0.0,0.0,0.0,0.0,0.0,0.0,0.0,-2.6389,0.0,0.0,0.0,0.0,0.0,0.0,0.0,-2.5853,-2.5895,-2.5895,-2.5895,-2.5895,-2.5895,-2.5895,-2.5895,-2.5895,-2.5895,-2.5895,-2.5895,-2.5895,-2.5895,-2.5895,-2.5895,-2.5895,-2.5895,-2.5895,-2.5895,-2.5895,-2.5895,-2.5895,-2.5895,-2.5895,-2.5895,-2.5895,-2.5895,-2.5895,-2.5895,-2.5738,-2.577,-2.5895,-2.4814,-2.3613,0.0,0.0,0.0,0.0,0.0,0.0,0.0,0.0,0.0,0.0,0.0,0.0,0.0,0.0,-2.5895,-2.5895,-2.5895,-2.5895,-2.6114,-2.654,-2.6562,-2.6769,-2.7261,-2.7272,-2.7272,-2.7272,-2.7272,0.0,0.0,0.0,0.0,0.0,0.0,-2.7969,-2.8002,-2.8528,-2.8781,-2.8781,-2.8792,-2.8803,-2.8803,0.0,-2.8803,-2.8803,-2.8803,0.0,0.0,-2.8803,-2.8803,0.0,0.0,0.0,0.0,0.0,0.0,0.0,0.0,0.0,0.0,-2.8757,0.0,0.0,0.0,0.0,-2.7998,0.0,0.0,0.0,0.0,0.0,0.0,0.0,0.0,0.0,0.0,0.0,0.0,0.0,0.0,0.0,0.0,-2.578,-2.5895,-2.5895,-2.5895,-2.5895,-2.5895,-2.5895,-2.5895,-2.5895,-2.5895,-2.5895,-2.5895,-2.5895,-2.5895,-2.5895,-2.5895,-2.5895,-2.5895,-2.5895,-2.5895,-2.5895,-2.5895,-2.5895,-2.5895,-2.5895,-2.5895,-2.5895,-2.5895,-2.5895,-2.5895,-2.5895,-2.5895,-2.5895,0.0,0.0,0.0,0.0,0.0,0.0,0.0,-2.4975,0.0,0.0,-2.5655,0.0,0.0,-2.5895,-2.5895,-2.5895,-2.5895,-2.6122,-2.6609,-2.6631,-2.6937,-2.7555,-2.7577,-2.7655,-2.7854,-2.7646,-2.7558,-2.7558,-2.7414,0.0,0.0,0.0,0.0,0.0,0.0,-2.8517,0.0,0.0,0.0,0.0,0.0,-2.8803,-2.8803,0.0,-2.8803,-2.8803,-2.8803,-2.8803,0.0,-2.8803,-2.8803,-2.8803,-2.8803,-2.8803,-2.8803,-2.8803,-2.8803,-2.8803,0.0,0.0,-2.8803,-2.8803,0.0,0.0,0.0,0.0,0.0,0.0,0.0,0.0,0.0,0.0,0.0,0.0,0.0,0.0,0.0,0.0,0.0,0.0,0.0,0.0,0.0,0.0,0.0,-2.5906,-2.5895,-2.5895,-2.5895,-2.5895,-2.5895,-2.5895,-2.5895,-2.5895,-2.5895,-2.5895,-2.5895,-2.5895,-2.5895,-2.5895,-2.5895,-2.5895,-2.5895,-2.5895,-2.5895,-2.5895,-2.5895,-2.5895,-2.5895,-2.5895,-2.5895,-2.5895,-2.5895,-2.5895,-2.5895,-2.5895,-2.614,0.0,0.0,0.0,0.0,0.0,0.0,0.0,0.0,0.0,-2.6104,0.0,-2.6032,0.0,-2.6231,0.0,-2.631,-2.6626,-2.7203,-2.7268,-2.7609,-2.8396,-2.8463,-2.8586,-2.8855,-2.8611,-2.8433,-2.8333,-2.8053,-2.7918,0.0,0.0,0.0,0.0,0.0,-2.8803,-2.8803,0.0,-2.8803,0.0,0.0,-2.8803,0.0,0.0,-2.8803,-2.8803,0.0,-2.8803,-2.8803,-2.8803,-2.8803,-2.8803,-2.8803,-2.8803,-2.8803,-2.8803,-2.8803,-2.8803,-2.8803,-2.8803,0.0,-2.8803,-2.8803,0.0,-2.8803,0.0,-2.8757,0.0,0.0,0.0,0.0,0.0,0.0,0.0,0.0,0.0,0.0,-2.6542,0.0,0.0,0.0,0.0,0.0,0.0,-2.577,-2.5906,-2.5895,-2.5895,0.0,-2.5895,-2.5895,-2.5895,-2.5895,-2.5895,-2.5895,-2.5895,-2.5895,-2.5895,-2.5895,-2.5895,-2.5895,-2.5895,-2.5895,-2.5895,-2.5895,-2.5895,-2.5895,-2.5895,-2.5895,-2.5895,-2.5895,-2.5895,-2.5895,-2.5895,-2.5895,-2.5895,-2.685,0.0,0.0,0.0,-2.5113,0.0,0.0,0.0,-2.6252,0.0,-2.6471,-2.6565,-2.6307,-2.6705,-2.6896,-2.6703,-2.7108,-2.7459,-2.7778,-2.7822,-2.8243,-2.9203,-2.9226,-2.9543,-3.025,-3.0057,-2.9829,-2.9531,0.0,0.0,0.0,0.0,0.0,0.0,-2.8803,0.0,-2.8803,-2.8803,-2.8803,-2.8803,-2.8803,-2.8803,-2.8803,-2.8803,-2.8803,-2.8803,-2.8803,-2.8803,-2.8803,-2.8803,-2.8803,-2.8803,-2.8803,-2.8803,-2.8803,-2.8803,-2.8803,-2.8803,-2.8803,-2.8803,-2.8803,-2.8803,-2.8803,0.0,0.0,0.0,-2.8803,0.0,0.0,0.0,0.0,0.0,0.0,0.0,0.0,0.0,0.0,0.0,0.0,0.0,0.0,0.0,0.0,-2.5633,-2.5906,-2.5895,-2.5895,0.0,0.0,-2.5895,-2.5895,-2.5895,-2.5895,-2.5895,-2.5895,-2.5895,-2.5895,-2.5895,-2.5895,-2.5895,-2.5895,-2.5895,-2.5895,-2.5895,-2.5895,-2.5895,-2.5895,-2.5895,-2.5895,-2.5895,-2.5895,-2.5895,-2.5895,-2.5895,-2.5895,-2.5895,-2.7913,-2.7175,-2.6614,0.0,-2.6249,-2.5961,0.0,0.0,0.0,0.0,-2.7237,-2.7457,-2.7626,-2.7835,-2.7946,-2.7719,-2.7939,0.0,0.0,-2.9461,-2.9977,-3.098,-3.1015,-3.1119,-3.1294,-3.0713,-3.0397,-3.0306,-2.9485,0.0,-2.9035,0.0,0.0,0.0,0.0,0.0,-2.8803,-2.8803,-2.8803,-2.8803,-2.8803,-2.8803,-2.8803,0.0,-2.8803,-2.8803,-2.8803,-2.8803,-2.8803,-2.8803,-2.8803,-2.8803,-2.8803,-2.8803,-2.8803,-2.8803,-2.8803,-2.8803,-2.8803,-2.8803,-2.8803,-2.8803,-2.8803,-2.8803,0.0,0.0,0.0,0.0,0.0,0.0,0.0,0.0,0.0,0.0,0.0,0.0,0.0,0.0,0.0,-2.6086,0.0,0.0,0.0,-2.5601,-2.5738,-2.5906,-2.5895,0.0,0.0,0.0,-2.5895,-2.5895,-2.5895,-2.5895,-2.5895,-2.5895,-2.5895,-2.5895,-2.5895,-2.5895,-2.5895,-2.5895,-2.5895,-2.5895,-2.5895,-2.5895,-2.5895,-2.5895,-2.5895,-2.5895,-2.5895,-2.5895,-2.5895,-2.5895,-2.5895,-2.5895,-2.9107,-2.8527,0.0,-2.8071,0.0,0.0,-2.74,-2.7653,0.0,-2.8337,-2.8614,0.0,-2.8861,-2.9026,-2.912,-2.9045,-2.9228,0.0,-3.0458,0.0,-3.1149,-3.1945,-3.2101,-3.2189,-3.2264,-3.1681,-3.1238,-3.0892,-3.0034,0.0,-2.9082,0.0,0.0,0.0,0.0,-2.8803,0.0,-2.8803,-2.8803,-2.8803,-2.8803,-2.8803,0.0,-2.8803,-2.8803,-2.8803,-2.8803,-2.8803,-2.8803,-2.8803,-2.8803,-2.8803,-2.8803,-2.8803,-2.8803,-2.8803,-2.8803,-2.8803,-2.8803,-2.8803,-2.8803,-2.8803,-2.8803,-2.8803,-2.8803,-2.8803,-2.8803,0.0,-2.8803,-2.8803,0.0,0.0,0.0,0.0,0.0,0.0,0.0,0.0,0.0,0.0,-2.6553,0.0,-2.6054,-2.5858,-2.577,-2.5906,-2.5895,0.0,0.0,0.0,-2.5895,-2.5895,-2.5895,-2.5895,-2.5895,-2.5895,-2.5895,-2.5895,-2.5895,-2.5895,-2.5895,-2.5895,-2.5895,-2.5895,-2.5895,-2.5895,-2.5895,-2.5895,-2.5895,-2.5895,-2.5895,-2.5895,-2.5895,-2.5895,-2.5895,-2.5895,-3.0371,0.0,0.0,0.0,0.0,0.0,0.0,-2.9541,0.0,-2.9989,0.0,-3.0308,-3.0181,-3.0386,-3.0529,-3.0517,-3.0755,-3.1104,-3.1572,-3.1813,-3.2152,-3.2643,-3.2828,-3.3,-3.3159,-3.2729,-3.2176,-3.1472,-3.0623,0.0,0.0,0.0,0.0,0.0,0.0,0.0,0.0,-2.8885,-2.8885,-2.8885,-2.8885,-2.8896,-2.885,-2.885,-2.8803,-2.8803,-2.8803,-2.8803,-2.8803,-2.8803,-2.8803,-2.8803,-2.8803,-2.8803,-2.8803,-2.8803,-2.8803,-2.8803,-2.8803,-2.8803,-2.8803,-2.8803,-2.8803,-2.8803,-2.8803,-2.8803,-2.8803,-2.8803,-2.8803,-2.8803,-2.8803,0.0,0.0,0.0,0.0,0.0,0.0,0.0,0.0,0.0,0.0,0.0,0.0,0.0,0.0,0.0,0.0,0.0,0.0,0.0,-2.5895,-2.5895,-2.5895,-2.5895,-2.5895,-2.5895,-2.5895,-2.5895,-2.5895,-2.5895,-2.5895,-2.5895,-2.5895,-2.5895,-2.5895,-2.5895,-2.5895,-2.5895,-2.5895,-2.5895,-2.5895,-2.5895,-2.5895,-2.5895,-2.5895,-2.5895,-3.1413,0.0,0.0,0.0,0.0,-3.1744,-3.2496,-3.145,-3.0727,-3.1204,-3.1464,-3.1752,-3.2167,-3.2228,-3.2247,-3.2265,-3.2469,0.0,0.0,0.0,0.0,-3.4063,-3.4063,-3.4105,-3.4134,-3.333,-3.2772,-3.2457,0.0,0.0,0.0,0.0,0.0,0.0,0.0,0.0,-2.9393,-2.9393,0.0,-2.9393,-2.9393,-2.9255,-2.9035,-2.9035,-2.8943,-2.8803,-2.8803,-2.8803,-2.8803,-2.8803,-2.8803,-2.8803,-2.8803,-2.8803,-2.8803,-2.8803,-2.8803,-2.8803,-2.8803,-2.8803,-2.8803,-2.8803,-2.8803,-2.8803,-2.8803,-2.8803,-2.8803,-2.8803,-2.8803,-2.8803,-2.8803,0.0,0.0,0.0,0.0,0.0,0.0,0.0,0.0,0.0,0.0,-2.7461,0.0,0.0,0.0,0.0,0.0,0.0,0.0,0.0,-2.5895,0.0,-2.5895,0.0,0.0,0.0,-2.5895,-2.5895,-2.5895,-2.5895,-2.5895,-2.5895,-2.5895,-2.5895,-2.5895,-2.5895,-2.5895,-2.5895,-2.5895,-2.5895,-2.5895,-2.5895,-2.5895,-2.5895,-2.5895,-2.5895,-3.2647,0.0,0.0,0.0,0.0,0.0,0.0,-3.3488,-3.3024,-3.3055,-3.3135,-3.3279,-3.3547,-3.3471,-3.3471,-3.3573,-3.3573,-3.367,-3.3894,-3.423,-3.4439,-3.4551,-3.4688,-3.4784,-3.4784,-3.4092,-3.3501,-3.3074,0.0,0.0,0.0,0.0,0.0,0.0,0.0,-2.9634,0.0,0.0,0.0,-2.9691,-2.9691,-2.9542,-2.9301,-2.9301,-2.9174,-2.8943,-2.8943,-2.8896,-2.8803,-2.8803,-2.8803,-2.8803,-2.8803,-2.8803,-2.8803,-2.8803,-2.8803,-2.8803,-2.8803,-2.8803,-2.8803,-2.8803,-2.8803,-2.8803,-2.8803,-2.8803,-2.8803,-2.8803,-2.8803,-2.8803,-2.8803,-2.8803,0.0,0.0,0.0,0.0,0.0,0.0,-2.8391,0.0,0.0,0.0,0.0,0.0,0.0,0.0,0.0,0.0,0.0,0.0,-2.5895,0.0,0.0,0.0,-2.5895,0.0,-2.5895,-2.5895,-2.5895,-2.5895,-2.5895,-2.5895,-2.5895,-2.5895,-2.5895,-2.5895,-2.5895,-2.5895,-2.5895,-2.5895,-2.5895,-2.5895,-2.5895,-2.5895,-2.5895,-2.5895,0.0,-3.4153,0.0,0.0,-3.4481,-3.4688,-3.4799,-3.5059,-3.5072,-3.4605,-3.4564,-3.4577,-3.4605,-3.4452,-3.441,-3.4605,-3.4481,-3.4452,-3.4605,-3.4799,-3.4922,-3.4922,-3.51,-3.5236,-3.5236,-3.4784,-3.423,0.0,0.0,0.0,0.0,0.0,0.0,0.0,0.0,0.0,0.0,0.0,-3.0532,-3.0329,-3.0284,-3.0045,-2.9715,-2.9669,-2.9439,-2.9082,-2.9082,-2.8989,-2.8803,-2.8803,-2.8803,-2.8803,-2.8803,-2.8803,-2.8803,-2.8803,-2.8803,-2.8803,-2.8803,-2.8803,-2.8803,-2.8803,-2.8803,-2.8803,-2.8803,-2.8803,-2.8803,-2.8803,-2.8803,-2.8803,-2.8803,-2.8803,0.0,0.0,0.0,0.0,0.0,0.0,0.0,0.0,0.0,0.0,-2.8189,0.0,0.0,0.0,0.0,0.0,-2.6201,0.0,0.0,0.0,0.0,-2.6201,-2.6201,0.0,-2.6201,-2.6201,-2.6201,-2.6147,-2.6059,-2.6059,-2.5994,-2.5895,-2.5895,-2.5895,-2.5895,-2.5895,-2.5895,-2.5895,-2.5895,-2.5895,-2.5895,-2.5895,-2.5895,-2.5895,0.0,0.0,0.0,0.0,0.0,-3.5318,-3.5318,-3.5521,-3.5521,-3.5072,-3.5031,-3.5113,-3.5277,-3.5113,-3.5072,-3.5277,-3.5277,-3.5277,-3.5318,-3.5467,-3.5588,-3.5588,-3.5642,-3.5642,-3.5642,-3.5236,-3.4701,0.0,0.0,-3.1745,0.0,0.0,0.0,0.0,0.0,0.0,0.0,-3.2008,-3.1977,-3.1769,-3.1548,-3.1059,-3.0476,-3.0216,-2.9715,-2.9082,-2.9082,-2.8989,-2.8803,-2.8803,-2.8803,-2.8803,-2.8803,-2.8803,-2.8803,-2.8803,-2.8803,-2.8803,-2.8803,-2.8803,-2.8803,-2.8803,-2.8803,-2.8803,-2.8803,-2.8803,-2.8803,-2.8803,-2.8803,-2.8803,-2.8803,-2.8803,-2.8803,0.0,0.0,0.0,0.0,0.0,-2.8803,-2.8803,0.0,0.0,-2.8738,-2.8254,0.0,0.0,-2.7413,0.0,0.0,0.0,0.0,-2.7173,-2.7173,-2.7173,-2.7173,-2.7173,-2.7173,-2.7173,-2.7173,-2.6966,-2.6519,-2.6519,-2.6321,-2.5895,-2.5895,-2.5895,-2.5895,-2.5895,-2.5895,-2.5895,-2.5895,-2.5895,-2.5895,-2.5895,-2.5895,-2.5895,0.0,0.0,0.0,0.0,0.0,0.0,0.0,-3.5642,-3.5642,-3.548,-3.548,-3.548,-3.5562,-3.5521,-3.548,-3.5562,-3.5602,-3.5602,-3.5602,-3.5669,-3.571,-3.571,-3.571,-3.571,-3.571,-3.544,-3.5031,0.0,0.0,0.0,0.0,0.0,0.0,0.0,0.0,-3.2661,-3.3018,-3.3104,-3.292,-3.2575,-3.2183,-3.1625,-3.0982,-3.0578,-2.9988,-2.9347,-2.9347,-2.9117,-2.8803,-2.8803,-2.8803,-2.8803,-2.8803,-2.8803,-2.8803,-2.8803,-2.8803,-2.8803,-2.8803,-2.8803,-2.8803,-2.8803,-2.8803,-2.8803,-2.8803,-2.8803,-2.8803,-2.8803,-2.8803,-2.8803,-2.8803,-2.8803,-2.8803,-2.8803,0.0,0.0,0.0,0.0,0.0,-2.8803,0.0,-2.8803,0.0,-2.8628,0.0,0.0,0.0,0.0,0.0,0.0,0.0,-2.7315,0.0,-2.7315,-2.7315,-2.7315,-2.7315,-2.7315,-2.7315,-2.7217,-2.7031,-2.6715,-2.6322,-2.5895,-2.5895,-2.5895,-2.5895,-2.5895,-2.5895,-2.5895,-2.5895,-2.5895,-2.5895,-2.5895,-2.5895,-2.5895,-3.571,0.0,-3.571,0.0,-3.571,-3.571,-3.571,-3.571,-3.571,-3.571,-3.571,-3.571,-3.571,-3.571,-3.571,-3.571,-3.571,-3.571,-3.571,-3.571,-3.571,-3.571,-3.571,0.0,-3.571,-3.5562,-3.5263,-3.4812,-3.4063,0.0,0.0,0.0,0.0,0.0,-3.3292,-3.3687,-3.4008,-3.4092,-3.3827,-3.3377,-3.2907,-3.2283,-3.156,-3.1116,-3.0442,-2.9715,-2.9715,-2.9347,-2.8896,-2.8896,-2.885,-2.8803,-2.8803,-2.8803,-2.8803,-2.8803,-2.8803,-2.8803,-2.8803,-2.8803,-2.8803,-2.8803,-2.8803,-2.8803,-2.8803,-2.8803,-2.8803,-2.8803,-2.8803,-2.8803,-2.8803,-2.8803,-2.8803,-2.8803,0.0,0.0,0.0,-2.8803,0.0,-2.8803,-2.8803,-2.8803,-2.8803,-2.8803,0.0,0.0,0.0,0.0,0.0,0.0,0.0,0.0,0.0,0.0,-2.7741,-2.7741,-2.7741,-2.7741,-2.7741,-2.7665,-2.7501,-2.6857,-2.6322,-2.5895,-2.5895,-2.5895,-2.5895,-2.5895,-2.5895,-2.5895,-2.5895,-2.5895,-2.5895,-2.5895,-2.5895,-2.5895,-3.571,-3.571,-3.571,-3.571,-3.571,-3.571,-3.571,-3.571,-3.571,-3.571,-3.571,-3.571,-3.571,-3.571,-3.571,-3.571,-3.571,-3.571,-3.571,-3.571,-3.571,0.0,0.0,-3.571,-3.571,-3.571,-3.5521,-3.5086,0.0,0.0,-3.3398,0.0,-3.3654,-3.4118,-3.4522,-3.4675,-3.4716,-3.499,-3.4825,-3.4356,-3.3882,-3.3159,-3.2351,-3.1881,-3.1071,-3.017,-3.017,-2.9715,-2.9082,-2.9082,-2.8943,-2.8803,-2.8803,-2.8803,-2.8803,-2.8803,-2.8803,-2.8803,-2.8803,-2.8803,-2.8803,-2.8803,-2.8803,-2.8803,-2.8803,-2.8803,-2.8803,-2.8803,-2.8803,-2.8803,-2.8803,-2.8803,-2.8803,-2.8803,0.0,0.0,0.0,-2.8803,0.0,-2.8803,-2.8803,-2.8803,-2.8803,-2.8803,0.0,0.0,0.0,0.0,0.0,0.0,0.0,-2.8781,-2.8781,0.0,-2.8781,-2.8781,-2.8781,-2.8781,-2.8781,-2.8484,-2.7958,-2.702,-2.6322,-2.5895,-2.5895,-2.5895,-2.5895,-2.5895,-2.5895,-2.5895,-2.5895,-2.5895,-2.5895,-2.5895,-2.5895,-2.5895,-3.571,-3.571,-3.571,-3.571,-3.571,-3.571,-3.571,-3.571,-3.571,-3.571,-3.571,-3.571,-3.571,-3.571,-3.571,0.0,-3.571,-3.571,0.0,-3.571,-3.571,-3.571,-3.571,-3.571,-3.571,-3.571,-3.5562,-3.5318,0.0,0.0,0.0,-3.423,-3.4481,-3.4784,-3.5072,-3.5263,-3.5386,-3.5467,-3.5345,-3.5018,-3.4439,-3.3725,-3.3,-3.2394,-3.1693,-3.0937,-3.0758,-3.0306,-2.9817,-2.9691,-2.9508,-2.9255,-2.9255,-2.9082,-2.8803,-2.8803,-2.8803,-2.8803,-2.8803,-2.8803,-2.8803,-2.8803,-2.8803,-2.8803,-2.8803,-2.8803,-2.8803,-2.8803,-2.8803,-2.8803,-2.8803,-2.8803,-2.8803,-2.8803,-2.8803,0.0,-2.8803,0.0,-2.8803,-2.8803,-2.8803,-2.8803,-2.8803,-2.8803,0.0,0.0,0.0,0.0,0.0,0.0,0.0,0.0,-2.8803,0.0,-2.8803,-2.8803,-2.8803,-2.8803,-2.8803,-2.8331,-2.7534,-2.7184,-2.666,-2.5895,-2.5895,-2.5895,-2.5895,-2.5895,-2.5895,-2.5895,-2.5895,-2.5895,-2.5895,-2.5895,-2.5895,-2.5895,-3.571,-3.571,-3.571,-3.571,-3.571,-3.571,-3.571,-3.571,-3.571,-3.571,-3.571,-3.571,-3.571,-3.571,0.0,-3.571,-3.571,-3.571,-3.571,-3.571,-3.571,-3.571,-3.571,-3.571,-3.571,-3.571,0.0,-3.5521,-3.5318,-3.5072,-3.4771,-3.4881,-3.51,-3.5318,-3.548,-3.5602,-3.571,-3.571,-3.5602,-3.5358,-3.4853,-3.4314,-3.3725,-3.3215,-3.2599,-3.1933,-3.1757,-3.127,-3.0701,-3.0499,-3.0182,-2.9897,-2.9806,-2.9577,-2.9255,-2.8989,-2.8896,-2.8896,-2.8896,-2.8896,-2.8943,-2.9035,-2.8989,-2.8896,-2.8803,-2.8803,-2.8803,-2.8803,-2.8803,-2.8803,-2.8803,-2.8803,-2.8803,-2.8803,-2.8803,-2.8803,-2.8803,0.0,-2.8803,0.0,0.0,0.0,0.0,-2.8803,-2.8803,0.0,0.0,0.0,0.0,0.0,-2.8803,-2.8803,-2.8803,-2.8803,-2.8803,-2.8803,-2.8803,-2.8803,-2.8803,-2.8289,-2.7315,-2.7315,-2.6791,-2.5895,-2.5895,-2.5895,-2.5895,-2.5895,-2.5895,-2.5895,-2.5895,-2.5895,-2.5895,-2.5895,-2.5895,-2.5895,-3.571,-3.571,-3.571,-3.571,-3.571,-3.571,-3.571,-3.571,-3.571,-3.571,-3.571,-3.571,-3.571,-3.571,-3.571,-3.571,0.0,0.0,-3.571,-3.571,-3.571,-3.571,-3.571,-3.571,-3.571,-3.571,-3.571,-3.571,-3.5521,-3.544,-3.544,-3.544,-3.5521,-3.571,-3.571,-3.571,-3.571,-3.571,-3.5602,-3.5399,-3.5195,-3.4867,-3.4439,-3.4243,-3.3713,-3.3079,-3.3079,-3.2476,-3.1669,-3.1472,-3.1116,-3.0656,-3.0397,-3.0295,-3.017,-2.9393,-2.9174,-2.9174,-2.9174,-2.9174,-2.922,-2.9485,-2.9359,-2.9128,-2.8943,-2.885,-2.8803,-2.8803,-2.8803,-2.8803,-2.8803,-2.8803,-2.8803,-2.8803,-2.8803,-2.8803,-2.8803,-2.8803,-2.8803,0.0,0.0,0.0,-2.8803,-2.8803,-2.8803,0.0,0.0,0.0,0.0,0.0,-2.8803,-2.8803,-2.8803,-2.8803,-2.8803,-2.8803,-2.8803,-2.8803,-2.8803,-2.8289,-2.7315,-2.7315,-2.6791,-2.5895,-2.5895,-2.5895,-2.5895,-2.5895,-2.5895,-2.5895,-2.5895,-2.5895,-2.5895,-2.5895,-2.5895,-2.5895,0.0,0.0,-3.571,-3.571,-3.571,-3.571,-3.571,-3.571,-3.571,-3.571,-3.571,-3.571,-3.571,-3.571,-3.571,-3.571,-3.571,-3.571,-3.571,-3.571,-3.571,-3.571,-3.571,-3.571,-3.571,-3.571,-3.571,-3.571,-3.5642,-3.5642,-3.5642,-3.5642,-3.5642,-3.571,-3.571,-3.571,-3.571,-3.571,-3.5669,-3.5602,-3.5399,-3.5154,-3.4908,-3.4647,-3.4343,-3.405,-3.3882,-3.3471,-3.2945,-3.2661,-3.2302,-3.1877,-3.1625,-3.1581,-3.1371,-3.025,-2.9943,-2.9943,-2.9943,-2.9943,-2.9943,-3.0034,-2.9863,-2.9703,-2.9657,-2.9312,-2.9035,-2.9035,-2.8896,-2.8803,-2.8803,-2.8803,-2.8803,-2.8803,-2.8803,-2.8803,-2.8803,-2.8803,-2.8803,0.0,-2.8803,-2.8803,-2.8803,-2.8803,-2.8803,0.0,0.0,0.0,-2.8803,-2.8803,-2.8803,-2.8803,-2.8803,-2.8803,-2.8803,-2.8803,-2.8803,-2.8803,-2.8803,-2.8289,-2.7315,-2.7315,-2.6791,-2.5895,-2.5895,-2.5895,-2.5895,-2.5895,-2.5895,-2.5895,-2.5895,-2.5895,-2.5895,-2.5895,-2.5895,-2.5895,-3.571,-3.571,-3.571,-3.571,-3.571,-3.571,-3.571,-3.571,-3.571,-3.571,-3.571,-3.571,-3.571,-3.571,-3.571,-3.571,-3.571,-3.571,-3.571,-3.571,-3.571,-3.571,-3.571,-3.571,-3.571,-3.571,-3.571,-3.571,-3.571,-3.571,-3.571,-3.571,-3.571,-3.571,-3.571,-3.571,-3.571,-3.571,-3.571,-3.5669,-3.5602,-3.548,-3.5358,-3.5223,-3.5018,-3.4853,-3.4729,-3.4397,-3.3979,-3.3742,-3.339,-3.3061,-3.2729,-3.2643,-3.2469,-3.1713,-3.1104,-3.0713,-3.0713,-3.0713,-3.0713,-3.0713,-3.0634,-3.0465,-3.0284,-2.9909,-2.9531,-2.9312,-2.9128,-2.8896,-2.8803,-2.8803,-2.8803,-2.8803,-2.8803,-2.8803,-2.8803,-2.8803,-2.8803,-2.8803,-2.8803,-2.8803,-2.8803,-2.8803,-2.8803,-2.8803,-2.8803,0.0,-2.8803,-2.8803,-2.8803,-2.8803,-2.8803,-2.8803,-2.8803,-2.8803,-2.8803,-2.8803,-2.8803,-2.8289,-2.7315,-2.7315,-2.6791,-2.5895,-2.5895,-2.5895,-2.5895,-2.5895,-2.5895,-2.5895,-2.5895,-2.5895,-2.5895,-2.5895,-2.5895,-2.5895,-3.571,-3.571,-3.571,-3.571,-3.571,-3.571,-3.571,-3.571,-3.571,-3.571,-3.571,-3.571,-3.571,-3.571,-3.571,-3.571,-3.571,-3.571,-3.571,-3.571,-3.571,-3.571,-3.571,-3.571,-3.571,-3.571,-3.571,-3.571,-3.571,-3.571,-3.571,-3.571,-3.571,-3.571,-3.571,-3.571,-3.571,-3.571,-3.571,-3.571,-3.571,-3.571,-3.571,-3.571,-3.5602,-3.544,-3.544,-3.5182,-3.4758,-3.4605,-3.441,-3.416,-3.3725,-3.3611,-3.3556,-3.33,-3.2513,-3.1737,-3.1617,-3.156,-3.156,-3.156,-3.1516,-3.1383,-3.0982,-3.0578,-3.017,-2.9715,-2.9347,-2.9035,-2.885,-2.8803,-2.8803,-2.8803,-2.8803,-2.8803,-2.8803,0.0,-2.8803,-2.8803,-2.8803,-2.8803,-2.8803,-2.8803,-2.8803,-2.8803,-2.8803,-2.8803,-2.8803,-2.8803,-2.8803,-2.8803,-2.8803,-2.8803,-2.8803,-2.8803,-2.8803,-2.8803,-2.8803,-2.8289,-2.7315,-2.7315,-2.6791,-2.5895,-2.5895,-2.5895,-2.5895,-2.5895,-2.5895,-2.5895,-2.5895,-2.5895,-2.5895,-2.5895,-2.5895,-2.5895,-3.571,-3.571,-3.571,-3.571,-3.571,-3.571,-3.571,-3.571,-3.571,-3.571,-3.571,-3.571,-3.571,-3.571,-3.571,-3.571,-3.571,-3.571,-3.571,-3.571,-3.571,-3.571,-3.571,-3.571,-3.571,-3.571,-3.571,-3.571,-3.571,-3.571,-3.571,-3.571,-3.571,-3.571,-3.571,-3.571,-3.571,-3.571,-3.571,-3.571,-3.571,-3.571,-3.571,-3.571,-3.5669,-3.5642,-3.5642,-3.5521,-3.5277,-3.5277,-3.5113,-3.4908,-3.4592,-3.4509,-3.4468,-3.4217,-3.405,-3.3755,-3.2945,-3.2742,-3.2742,-3.2742,-3.2612,-3.2407,-3.2176,-3.1448,-3.0633,-3.0216,-2.9577,-2.9035,-2.885,-2.8803,-2.8803,-2.8803,-2.8803,-2.8803,-2.8803,0.0,-2.8803,-2.8803,-2.8803,-2.8803,-2.8803,-2.8803,-2.8803,-2.8803,-2.8803,-2.8803,-2.8803,-2.8803,-2.8803,-2.8803,-2.8803,-2.8803,-2.8803,-2.8803,-2.8803,-2.8803,-2.8803,-2.8289,-2.7315,-2.7315,-2.6791,-2.5895,-2.5895,-2.5895,-2.5895,-2.5895,-2.5895,-2.5895,-2.5895,-2.5895,-2.5895,-2.5895,-2.5895,-2.5937,-3.571,-3.571,-3.571,-3.571,-3.571,-3.571,-3.571,-3.571,-3.571,-3.571,-3.571,-3.571,-3.571,-3.571,-3.571,-3.571,-3.571,-3.571,-3.571,-3.571,-3.571,-3.571,-3.571,-3.571,-3.571,-3.571,-3.571,-3.571,-3.571,-3.571,-3.571,-3.571,-3.571,-3.571,-3.571,-3.571,-3.571,-3.571,-3.571,-3.571,-3.571,-3.571,-3.571,-3.571,-3.571,-3.571,-3.571,-3.5642,-3.5562,-3.5562,-3.5521,-3.5399,-3.5141,-3.5059,-3.5018,-3.4825,-3.4535,-3.4147,-3.3725,-3.3513,-3.3373,-3.3373,-3.33,-3.3172,-3.284,-3.212,-3.1315,-3.0566,-2.9806,-2.9209,-2.885,-2.8803,-2.8803,-2.8803,-2.8803,-2.8803,-2.8803,-2.8803,-2.8803,-2.8803,-2.8803,-2.8803,-2.8803,-2.8803,-2.8803,-2.8803,-2.8803,-2.8803,-2.8803,-2.8803,-2.8803,-2.8803,-2.8803,-2.8803,-2.8803,-2.8803,-2.8803,-2.8803,-2.8803,-2.8289,-2.7315,-2.7315,-2.6791,-2.5895,-2.5895,-2.5895,-2.5895,-2.5895,-2.5895,-2.5895,-2.5895,-2.5895,-2.5895,-2.5895,-2.5979,-2.6104,-3.571,-3.571,-3.571,-3.571,-3.571,-3.571,-3.571,-3.571,-3.571,-3.571,-3.571,-3.571,-3.571,-3.571,-3.571,-3.571,-3.571,-3.571,-3.571,-3.571,-3.571,-3.571,-3.571,-3.571,-3.571,-3.571,-3.571,-3.571,-3.571,-3.571,-3.571,-3.571,-3.571,-3.571,-3.571,-3.571,-3.571,-3.571,-3.571,-3.571,-3.571,-3.571,-3.571,-3.571,-3.571,-3.571,-3.571,-3.571,-3.571,-3.571,-3.571,-3.5669,-3.5521,-3.548,-3.544,-3.5277,-3.4825,-3.4369,-3.4298,-3.4105,-3.3937,-3.381,-3.381,-3.3683,-3.3197,-3.2525,-3.1725,-3.0791,-3.0034,-2.9347,-2.8896,-2.8803,-2.8803,-2.8803,0.0,-2.8803,-2.8803,-2.8803,-2.8803,-2.8803,-2.8803,-2.8803,-2.8803,-2.8803,-2.8803,-2.8803,-2.8803,-2.8803,-2.8803,-2.8803,-2.8803,-2.8803,-2.8803,-2.8803,-2.8803,-2.8803,-2.8803,-2.8803,-2.8803,-2.8289,-2.7315,-2.7315,-2.6791,-2.5895,-2.5895,-2.5895,-2.5895,-2.5895,-2.5895,-2.5895,-2.5895,-2.5895,-2.5895,-2.5895,-2.6032,-2.6229,-3.571,-3.571,-3.571,-3.571,-3.571,-3.571,-3.571,-3.571,-3.571,-3.571,-3.571,-3.571,-3.571,-3.571,-3.571,-3.571,-3.571,-3.571,-3.571,-3.571,-3.571,-3.571,-3.571,-3.571,-3.571,-3.571,-3.571,-3.571,-3.571,-3.571,-3.571,-3.571,-3.571,-3.571,-3.571,-3.571,-3.571,-3.571,-3.571,-3.571,-3.571,-3.571,-3.571,-3.571,-3.571,-3.571,-3.571,-3.571,-3.571,-3.571,-3.571,-3.571,-3.5669,-3.5669,-3.5669,-3.5669,-3.548,-3.5236,-3.4839,-3.4714,-3.4632,-3.416,-3.4076,-3.3907,-3.3253,-3.2525,-3.1725,-3.0791,-3.0034,-2.9347,-2.8896,-2.8803,-2.8803,-2.8803,0.0,0.0,-2.8803,-2.8803,-2.8803,-2.8803,-2.8803,-2.8803,-2.8803,-2.8803,-2.8803,-2.8803,-2.8803,-2.8803,-2.8803,-2.8803,-2.8803,-2.8803,-2.8803,-2.8803,-2.8803,-2.8803,-2.8803,-2.8803,-2.8803,-2.8289,-2.7315,-2.7315,-2.6791,-2.5895,-2.5895,-2.5895,-2.5895,-2.5895,-2.5895,-2.5895,-2.5895,-2.5895,-2.5895,-2.5895,-2.6032,-2.6271,-3.571,-3.571,-3.571,-3.571,-3.571,-3.571,-3.571,-3.571,-3.571,-3.571,-3.571,-3.571,-3.571,-3.571,-3.571,-3.571,-3.571,-3.571,-3.571,-3.571,-3.571,-3.571,-3.571,-3.571,-3.571,-3.571,-3.571,-3.571,-3.571,-3.571,-3.571,-3.571,-3.571,-3.571,-3.571,-3.571,-3.571,-3.571,-3.571,-3.571,-3.571,-3.571,-3.571,-3.571,-3.571,-3.571,-3.571,-3.571,-3.571,-3.571,-3.571,-3.571,-3.571,-3.571,-3.571,-3.571,-3.5642,-3.5521,-3.5086,-3.488,-3.4673,-3.4202,-3.4118,-3.3949,-3.3398,-3.2742,-3.2033,-3.1359,-3.0656,-3.0034,-2.9554,-2.9462,-2.937,-2.9035,0.0,-2.8943,-2.8803,-2.8803,-2.8803,-2.8803,-2.8803,-2.8803,-2.8803,-2.8803,-2.8803,-2.8803,-2.8803,-2.8803,-2.8803,-2.8803,-2.8803,-2.8803,-2.8803,-2.8803,-2.8803,-2.8803,-2.8803,-2.8803,-2.8803,-2.8289,-2.7315,-2.7315,-2.6791,-2.5895,-2.5895,-2.5895,-2.5895,-2.5895,-2.5895,-2.5895,-2.5895,-2.5895,-2.5895,-2.5895,-2.6229,-2.6727,-3.571,-3.571,-3.571,-3.571,-3.571,-3.571,-3.571,-3.571,-3.571,-3.571,-3.571,-3.571,-3.571,-3.571,-3.571,-3.571,-3.571,-3.571,-3.571,-3.571,-3.571,-3.571,-3.571,-3.571,-3.571,-3.571,-3.571,-3.571,-3.571,-3.571,-3.571,-3.571,-3.571,-3.571,-3.571,-3.571,-3.571,-3.571,-3.571,-3.571,-3.571,-3.571,-3.571,-3.571,-3.571,-3.571,-3.571,-3.571,-3.571,-3.571,-3.571,-3.571,-3.571,-3.571,-3.571,-3.571,-3.571,-3.5602,-3.5195,-3.5003,-3.4756,-3.4118,-3.3979,-3.3823,-3.3313,-3.2797,-3.2264,-3.1713,-3.1193,-3.0713,-3.0273,-3.0148,-3.0011,-2.9634,-2.9451,-2.9324,-2.9174,-2.8989,-2.8896,-2.8896,-2.885,-2.8803,-2.8803,-2.8803,-2.8803,-2.8803,-2.8803,-2.8803,-2.8803,-2.8803,-2.8803,-2.8803,-2.8803,-2.8803,-2.8803,-2.8803,-2.8803,-2.8803,-2.8803,-2.8289,-2.7315,-2.7315,-2.6791,-2.5895,-2.5895,-2.5895,-2.5895,-2.5895,-2.5895,-2.5895,-2.5895,-2.5895,-2.5895,-2.5895,-2.6313,-2.6974,-3.571,-3.571,-3.571,-3.571,-3.571,-3.571,-3.571,-3.571,-3.571,-3.571,-3.571,-3.571,-3.571,-3.571,-3.571,-3.571,-3.571,-3.571,-3.571,-3.571,-3.571,-3.571,-3.571,-3.571,-3.571,-3.571,-3.571,-3.571,-3.571,-3.571,-3.571,-3.571,-3.571,-3.571,-3.571,-3.571,-3.571,-3.571,-3.571,-3.571,-3.571,-3.571,-3.571,-3.571,-3.571,-3.571,-3.571,-3.571,-3.571,-3.571,-3.571,-3.571,-3.571,-3.571,-3.571,-3.571,-3.571,-3.5602,-3.5195,-3.5086,-3.4867,-3.3937,-3.3713,-3.3543,-3.284,-3.255,-3.2257,-3.1725,-3.146,-3.125,-3.0946,-3.0734,-3.0623,-3.0623,-3.0193,-2.9886,-2.9886,-2.9462,-2.9082,-2.9082,-2.8943,-2.8803,-2.8803,-2.8803,-2.8803,-2.8803,-2.8803,-2.8803,-2.8803,-2.8803,-2.8803,-2.8803,-2.8803,-2.8803,-2.8803,-2.8803,-2.8803,-2.8803,-2.8803,-2.8289,-2.7315,-2.7315,-2.6791,-2.5895,-2.5895,-2.5895,-2.5895,-2.5895,-2.5895,-2.5895,-2.5895,-2.5895,-2.5895,-2.5895,-2.6313,-2.7015,-3.571,-3.571,-3.571,-3.571,-3.571,-3.571,-3.571,-3.571,-3.571,-3.571,-3.571,-3.571,-3.571,-3.571,-3.571,-3.571,-3.571,-3.571,-3.571,-3.571,-3.571,-3.571,-3.571,-3.571,-3.571,-3.571,-3.571,-3.571,-3.571,-3.571,-3.571,-3.571,-3.571,-3.571,-3.571,-3.571,-3.571,-3.571,-3.571,-3.571,-3.571,-3.571,-3.571,-3.571,-3.571,-3.571,-3.571,-3.571,-3.571,-3.571,-3.571,-3.571,-3.571,-3.571,-3.571,-3.571,-3.571,-3.5602,-3.5195,-3.5086,-3.4908,-3.416,-3.3992,-3.3894,-3.3471,-3.327,-3.3056,-3.2914,-3.2655,-3.2426,-3.2208,-3.1989,-3.1725,-3.1359,-3.0892,-3.0499,-3.0136,-2.968,-2.9301,-2.9128,-2.8943,-2.8803,-2.8803,-2.8803,-2.8803,-2.8803,-2.8803,-2.8803,-2.8803,-2.8803,-2.8803,-2.8803,-2.8803,-2.8803,-2.8803,-2.8803,-2.8803,-2.8803,-2.8803,-2.8289,-2.7315,-2.7315,-2.6791,-2.5895,-2.5895,-2.5895,-2.5895,-2.5895,-2.5895,-2.5895,-2.5895,-2.5895,-2.5895,-2.5895,-2.6426,-2.7185,-3.571,-3.571,-3.571,-3.571,-3.571,-3.571,-3.571,-3.571,-3.571,-3.571,-3.571,-3.571,-3.571,-3.571,-3.571,-3.571,-3.571,-3.571,-3.571,-3.571,-3.571,-3.571,-3.571,-3.571,-3.571,-3.571,-3.571,-3.571,-3.571,-3.571,-3.571,-3.571,-3.571,-3.571,-3.571,-3.571,-3.571,-3.571,-3.571,-3.571,-3.571,-3.571,-3.571,-3.571,-3.571,-3.571,-3.571,-3.571,-3.571,-3.571,-3.571,-3.571,-3.571,-3.571,-3.571,-3.571,-3.571,-3.5602,-3.5195,-3.5086,-3.4962,-3.4369,-3.416,-3.4034,-3.3755,-3.3598,-3.3513,-3.3513,-3.3386,-3.3245,-3.3129,-3.2914,-3.2655,-3.2251,-3.1737,-3.116,-3.0713,-3.0091,-2.9542,-2.9312,-2.8989,-2.885,-2.8896,-2.8943,-2.8943,-2.8943,-2.8943,-2.8896,-2.8803,-2.8803,-2.8803,-2.8803,-2.8803,-2.8803,-2.8803,-2.8803,-2.8803,-2.8803,-2.8803,-2.8289,-2.7315,-2.7315,-2.6791,-2.5895,-2.5895,-2.5895,-2.5895,-2.5895,-2.5895,-2.5895,-2.5895,-2.5895,-2.5895,-2.599,-2.6509,-2.7255,-3.571,-3.571,-3.571,-3.571,-3.571,-3.571,-3.571,-3.571,-3.571,-3.571,-3.571,-3.571,-3.571,-3.571,-3.571,-3.571,-3.571,-3.571,-3.571,-3.571,-3.571,-3.571,-3.571,-3.571,-3.571,-3.571,-3.571,-3.571,-3.571,-3.571,-3.571,-3.571,-3.571,-3.571,-3.571,-3.571,-3.571,-3.571,-3.571,-3.571,-3.571,-3.571,-3.571,-3.571,-3.571,-3.571,-3.571,-3.571,-3.571,-3.571,-3.571,-3.571,-3.571,-3.571,-3.571,-3.571,-3.571,-3.5642,-3.5236,-3.5127,-3.499,-3.4535,-3.4272,-3.4076,-3.3797,-3.3755,-3.3755,-3.3755,-3.3755,-3.3755,-3.3755,-3.3598,-3.3398,-3.3197,-3.2525,-3.1901,-3.1383,-3.0556,-2.9874,-2.9577,-2.9163,-2.8989,-2.9174,-2.922,-2.9174,-2.9174,-2.9128,-2.9035,-2.885,-2.8803,-2.8803,-2.8803,-2.8803,-2.8803,-2.8803,-2.8803,-2.8803,-2.8803,-2.8803,-2.8289,-2.7315,-2.7315,-2.6791,-2.5895,-2.5895,-2.5895,-2.5895,-2.5895,-2.5895,-2.5895,-2.5895,-2.5895,-2.5937,-2.6115,-2.6633,-2.7226,-3.571,-3.571,-3.571,-3.571,-3.571,-3.571,-3.571,-3.571,-3.571,-3.571,-3.571,-3.571,-3.571,-3.571,-3.571,-3.571,-3.571,-3.571,-3.571,-3.571,-3.571,-3.571,-3.571,-3.571,-3.571,-3.571,-3.571,-3.571,-3.571,-3.571,-3.571,-3.571,-3.571,-3.571,-3.571,-3.571,-3.571,-3.571,-3.571,-3.571,-3.571,-3.571,-3.571,-3.571,-3.571,-3.571,-3.571,-3.571,-3.571,-3.571,-3.571,-3.571,-3.571,-3.571,-3.571,-3.571,-3.571,-3.5642,-3.5399,-3.5236,-3.5044,-3.4797,-3.4535,-3.4314,-3.4272,-3.4272,-3.4272,-3.4272,-3.4272,-3.4272,-3.4272,-3.4063,-3.3865,-3.3598,-3.3,-3.232,-3.1705,-3.0937,-3.0352,-3.008,-2.9829,-2.9737,-2.9943,-2.9943,-2.9909,-2.9748,-2.9542,-2.9301,-2.9035,-2.8896,-2.8803,-2.8803,-2.8803,-2.8803,-2.8803,-2.8803,-2.8803,-2.8803,-2.8803,-2.8289,-2.7315,-2.7315,-2.6791,-2.5895,-2.5895,-2.5895,-2.5895,-2.5895,-2.5895,-2.5895,-2.5895,-2.5895,-2.5937,-2.6115,-2.652,-2.7085,-3.5898,-3.5804,-3.571,-3.571,-3.571,-3.571,-3.571,-3.571,-3.571,-3.571,-3.571,-3.571,-3.571,-3.571,-3.571,-3.571,-3.571,-3.571,-3.571,-3.571,-3.571,-3.571,-3.571,-3.571,-3.571,-3.571,-3.571,-3.571,-3.571,-3.571,-3.571,-3.571,-3.571,-3.571,-3.571,-3.571,-3.571,-3.571,-3.571,-3.571,-3.571,-3.571,-3.571,-3.571,-3.571,-3.571,-3.571,-3.571,-3.571,-3.571,-3.571,-3.571,-3.571,-3.571,-3.571,-3.571,-3.571,-3.5669,-3.544,-3.5318,-3.5154,-3.488,-3.4756,-3.4701,-3.4439,-3.4397,-3.4397,-3.4397,-3.4397,-3.4397,-3.4397,-3.4314,-3.416,-3.3937,-3.3386,-3.2797,-3.2133,-3.146,-3.0925,-3.0578,-3.0442,-3.0487,-3.0713,-3.0713,-3.0589,-3.0273,-2.992,-2.9497,-2.9128,-2.8896,-2.8803,-2.8803,-2.8803,-2.8803,-2.8803,-2.8803,-2.8803,-2.8803,-2.8528,-2.8025,-2.7304,-2.7086,-2.6594,-2.5895,-2.5895,-2.5895,-2.5895,-2.5895,-2.5895,-2.5895,-2.5895,-2.5895,-2.5937,-2.6271,-2.6715,-2.7249,-3.6166,-3.5938,-3.5764,-3.5764,-3.5723,-3.571,-3.571,-3.571,-3.571,-3.571,-3.571,-3.571,-3.571,-3.571,-3.571,-3.571,-3.571,-3.571,-3.571,-3.571,-3.571,-3.571,-3.571,-3.571,-3.571,-3.571,-3.571,-3.571,-3.571,-3.571,-3.571,-3.571,-3.571,-3.571,-3.571,-3.571,-3.571,-3.571,-3.571,-3.571,-3.571,-3.571,-3.571,-3.571,-3.571,-3.571,-3.571,-3.571,-3.571,-3.571,-3.571,-3.571,-3.571,-3.571,-3.571,-3.571,-3.571,-3.5669,-3.5521,-3.544,-3.5318,-3.5003,-3.5003,-3.499,-3.4605,-3.4481,-3.4481,-3.4481,-3.4439,-3.4397,-3.4397,-3.4397,-3.4314,-3.4118,-3.3738,-3.3215,-3.2599,-3.2077,-3.1637,-3.125,-3.1226,-3.1315,-3.1516,-3.1528,-3.1261,-3.0758,-3.0239,-2.9737,-2.922,-2.8943,-2.8803,-2.885,-2.885,-2.8896,-2.8932,-2.8896,-2.8806,-2.8718,-2.8145,-2.7664,-2.7293,-2.6791,-2.6322,-2.5895,-2.5895,-2.5895,-2.5895,-2.5895,-2.5895,-2.5895,-2.5895,-2.5895,-2.5937,-2.6396,-2.688,-2.736,-3.6365,-3.6192,-3.6032,-3.6032,-3.5844,-3.571,-3.571,-3.571,-3.571,-3.571,-3.571,-3.571,-3.571,-3.571,-3.571,-3.571,-3.571,-3.571,-3.571,-3.571,-3.571,-3.571,-3.571,-3.571,-3.571,-3.571,-3.571,-3.571,-3.571,-3.571,-3.571,-3.571,-3.571,-3.571,-3.571,-3.571,-3.571,-3.571,-3.571,-3.571,-3.571,-3.571,-3.571,-3.571,-3.571,-3.571,-3.571,-3.571,-3.571,-3.571,-3.571,-3.571,-3.571,-3.571,-3.571,-3.571,-3.571,-3.5669,-3.5669,-3.5521,-3.5399,-3.5318,-3.5195,-3.5072,-3.5031,-3.488,-3.4756,-3.4756,-3.4577,-3.4397,-3.4397,-3.4397,-3.4314,-3.4118,-3.3852,-3.3513,-3.2988,-3.2698,-3.2537,-3.245,-3.2612,-3.2643,-3.2537,-3.2332,-3.1937,-3.1261,-3.0544,-2.9943,-2.9485,-2.9035,-2.8896,-2.9035,-2.9082,-2.9163,-2.9393,-2.9174,-2.8872,-2.8441,-2.7721,-2.7381,-2.7293,-2.6791,-2.6322,-2.5895,-2.5895,-2.5895,-2.5895,-2.5895,-2.5895,-2.5895,-2.5895,-2.5895,-2.5937,-2.6157,-2.6437,-2.6715,-3.6589,-3.6325,-3.6086,-3.6086,-3.5898,-3.571,-3.571,-3.571,-3.571,-3.571,-3.571,-3.571,-3.571,-3.571,-3.571,-3.571,-3.571,-3.571,-3.571,-3.571,-3.571,-3.571,-3.571,-3.571,-3.571,-3.571,-3.571,-3.571,-3.571,-3.571,-3.571,-3.571,-3.571,-3.571,-3.571,-3.571,-3.571,-3.571,-3.571,-3.571,-3.571,-3.571,-3.571,-3.571,-3.571,-3.571,-3.571,-3.571,-3.571,-3.571,-3.571,-3.571,-3.571,-3.571,-3.571,-3.571,-3.571,-3.571,-3.571,-3.5642,-3.5562,-3.544,-3.544,-3.5399,-3.5277,-3.5195,-3.5086,-3.4839,-3.4714,-3.4618,-3.4618,-3.4701,-3.4784,-3.466,-3.4439,-3.4134,-3.3839,-3.3598,-3.3441,-3.33,-3.3343,-3.3288,-3.3099,-3.2766,-3.2245,-3.135,-3.0623,-2.9943,-2.9301,-2.8989,-2.8896,-2.9082,-2.9082,-2.922,-2.9485,-2.922,-2.8873,-2.8387,-2.7634,-2.7173,-2.6868,-2.6441,-2.6103,-2.5895,-2.5895,-2.5895,-2.5895,-2.5895,-2.5895,-2.5895,-2.5895,-2.5979,-2.6074,-2.6157,-2.6354,-2.6561]},{"header":{"parameterUnit":"m.s-1","parameterCategory":1,"la1":30.6,"la2":28.766,"lo1":-90.7593,"lo2":-88.6598,"dy":0.0162,"dx":0.0183,"nx":116,"ny":114,"refTime":"2023-08-12T12:00:00:Z","depth":0,"parameterNumber":3,"parameterNumberName":"V-component_of_WINDS"},"data":[0.0,0.0,0.0,0.0,0.0,0.0,0.0,0.0,0.0,0.0,0.0,0.0,0.0,0.0,0.0,0.0,0.0,0.0,0.0,0.0,0.0,0.0,0.0,0.0,0.0,0.0,0.0,0.0,0.0,0.0,0.0,0.0,0.0,0.0,0.0,0.0,0.0,0.0,0.0,0.0,0.0,0.0,0.0,0.0,0.0,0.0,0.0,0.0,0.0,0.0,0.0,0.0,0.0,0.0,0.0,0.0,0.0,0.0,0.0,0.0,0.0,0.0,0.0,0.0,0.0,0.0,0.0,0.0,0.0,0.0,0.0,0.0,0.0,0.0,0.0,0.0,0.0,0.0,0.0,0.0,0.0,0.0,0.0,0.0,0.0,0.0,0.0,0.0,0.0,0.0,0.0,0.0,0.0,0.0,0.0,0.0,0.0,0.0,0.0,0.0,0.0,0.0,0.0,0.0,0.0,0.0,0.0,0.0,0.0,0.0,0.0,0.0,0.0,0.0,0.0,0.0,0.0,0.0,0.0,0.0,0.0,0.0,0.0,0.0,0.0,0.0,0.0,0.0,0.0,0.0,0.0,0.0,0.0,0.0,0.0,0.0,0.0,0.0,0.0,0.0,0.0,0.0,0.0,0.0,0.0,0.0,0.0,0.0,0.0,0.0,0.0,0.0,0.0,0.0,0.0,0.0,0.0,0.0,0.0,0.0,0.0,0.0,0.0,0.0,0.0,0.0,0.0,0.0,0.0,0.0,0.0,0.0,0.0,0.0,0.0,0.0,0.0,0.0,0.0,0.0,0.0,0.0,0.0,0.0,0.0,0.0,0.0,0.0,0.0,0.0,0.0,0.0,0.0,0.0,0.0,0.0,0.0,0.0,0.0,0.0,0.0,0.0,0.0,0.0,0.0,0.0,0.0,0.0,0.0,0.0,0.0,0.0,0.0,0.0,0.0,0.0,0.0,0.0,0.0,0.0,0.0,0.0,0.0,0.0,0.0,0.0,0.0,0.0,0.0,0.0,0.0,0.0,0.0,0.0,0.0,0.0,0.0,0.0,0.0,0.0,0.0,0.0,0.0,0.0,0.0,0.0,0.0,0.0,0.0,0.0,0.0,0.0,0.0,0.0,0.0,0.0,0.0,0.0,0.0,0.0,0.0,0.0,0.0,0.0,0.0,0.0,0.0,0.0,0.0,0.0,0.0,0.0,0.0,0.0,0.0,0.0,0.0,0.0,0.0,0.0,0.0,0.0,0.0,0.0,0.0,0.0,0.0,0.0,0.0,0.0,0.0,0.0,0.0,0.0,0.0,0.0,0.0,0.0,0.0,0.0,0.0,0.0,0.0,0.0,0.0,0.0,0.0,0.0,0.0,0.0,0.0,0.0,0.0,0.0,0.0,0.0,0.0,0.0,0.0,0.0,0.0,0.0,0.0,0.0,0.0,0.0,0.0,0.0,0.0,0.0,0.0,0.0,0.0,0.0,0.0,0.0,0.0,0.0,0.0,0.0,0.0,0.0,0.0,0.0,0.0,0.0,0.0,0.0,0.0,0.0,0.0,0.0,0.0,0.0,0.0,0.0,0.0,0.0,0.0,0.0,0.0,0.0,0.0,0.0,0.0,0.0,0.0,0.0,0.0,0.0,0.0,0.0,0.0,0.0,0.0,0.0,0.0,0.0,0.0,0.0,0.0,0.0,0.0,0.0,0.0,0.0,0.0,0.0,0.0,0.0,0.0,0.0,0.0,0.0,0.0,0.0,0.0,0.0,0.0,0.0,0.0,0.0,0.0,0.0,0.0,0.0,0.0,0.0,0.0,0.0,0.0,0.0,0.0,0.0,0.0,0.0,0.0,0.0,0.0,0.0,0.0,0.0,0.0,0.0,0.0,0.0,0.0,0.0,0.0,0.0,0.0,0.0,0.0,0.0,0.0,0.0,0.0,0.0,0.0,0.0,0.0,0.0,0.0,0.0,0.0,0.0,0.0,0.0,0.0,0.0,0.0,0.0,0.0,0.0,0.0,0.0,0.0,0.0,0.0,0.0,0.0,0.0,0.0,0.0,0.0,0.0,0.0,0.0,0.0,0.0,0.0,0.0,0.0,0.0,0.0,0.0,0.0,0.0,0.0,0.0,0.0,0.0,0.0,0.0,0.0,0.0,0.0,0.0,0.0,0.0,0.0,0.0,0.0,0.0,0.0,0.0,0.0,0.0,0.0,0.0,0.0,0.0,0.0,0.0,0.0,0.0,0.0,0.0,0.0,0.0,0.0,0.0,0.0,0.0,0.0,0.0,0.0,0.0,0.0,0.0,0.0,0.0,0.0,0.0,0.0,0.0,0.0,0.0,0.0,0.0,0.0,0.0,0.0,0.0,0.0,0.0,0.0,0.0,0.0,0.0,0.0,0.0,0.0,0.0,0.0,0.0,0.0,0.0,0.0,0.0,0.0,0.0,0.0,0.0,0.0,0.0,0.0,0.0,0.0,0.0,0.0,0.0,0.0,0.0,0.0,0.0,0.0,0.0,0.0,0.0,0.0,0.0,0.0,0.0,0.0,0.0,0.0,0.0,0.0,0.0,0.0,0.0,0.0,0.0,0.0,0.0,0.0,0.0,0.0,0.0,0.0,0.0,0.0,0.0,0.0,0.0,0.0,0.0,0.0,0.0,0.0,0.0,0.0,0.0,0.0,0.0,0.0,0.0,0.0,0.0,0.0,0.0,0.0,0.0,0.0,0.0,0.0,0.0,0.0,0.0,0.0,0.0,0.0,0.0,0.0,0.0,0.0,0.0,0.0,0.0,0.0,0.0,0.0,0.0,0.0,0.0,0.0,0.0,0.0,0.0,0.0,0.0,0.0,0.0,0.0,0.0,0.0,0.0,0.0,0.0,0.0,0.0,0.0,0.0,0.0,0.0,0.0,0.0,0.0,0.0,0.0,0.0,0.0,0.0,0.0,0.0,0.0,0.0,0.0,0.0,0.0,0.0,0.0,0.0,0.0,0.0,0.0,0.0,0.0,0.0,0.0,0.0,0.0,0.0,0.0,0.0,0.0,0.0,0.0,0.0,0.0,0.0,0.0,0.0,0.0,0.0,0.0,0.0,0.0,0.0,0.0,0.0,0.0,0.0,0.0,0.0,0.0,0.0,0.0,0.0,0.0,0.0,0.0,0.0,0.0,0.0,0.0,0.0,0.0,0.0,0.0,0.0,0.0,0.0,0.0,0.0,0.0,0.0,0.0,0.0,0.0,0.0,0.0,0.0,0.0,0.0,0.0,0.0,0.0,0.0,0.0,0.0,0.0,0.0,0.0,0.0,0.0,0.0,0.0,0.0,0.0,0.0,0.0,0.0,0.0,0.0,0.0,0.0,0.0,0.0,0.0,0.0,0.0,0.0,0.0,0.0,0.0,0.0,0.0,0.0,0.0,0.0,0.0,0.0,0.0,0.0,0.0,0.0,0.0,0.0,0.0,0.0,0.0,0.0,0.0,0.0,0.0,0.0,0.0,0.0,0.0,0.0,0.0,0.0,0.0,0.0,0.0,0.0,0.0,0.0,0.0,0.0,0.0,0.0,0.0,0.0,0.0,0.0,0.0,0.0,0.0,0.0,0.0,0.0,0.0,0.0,0.0,0.0,0.0,0.0,0.0,0.0,0.0,0.0,0.0,0.0,0.0,0.0,0.0,0.0,0.0,0.0,0.0,0.0,0.0,0.0,0.0,0.0,0.0,0.0,0.0,0.0,0.0,0.0,0.0,0.0,0.0,0.0,0.0,0.0,0.0,0.0,0.0,0.0,0.0,0.0,0.0,0.0,0.0,0.0,0.0,0.0,0.0,0.0,0.0,0.0,0.0,0.0,0.0,0.0,0.0,0.0,0.0,0.0,0.0,0.0,0.0,0.0,0.0,0.0,0.0,0.0,0.0,0.0,0.0,0.0,0.0,0.0,0.0,0.0,0.0,0.0,0.0,0.0,0.0,0.0,0.0,0.0,0.0,0.0,0.0,0.0,0.0,0.0,0.0,0.0,0.0,0.0,0.0,0.0,0.0,0.0,0.0,0.0,0.0,0.0,0.0,0.0,0.0,0.0,0.0,0.0,0.0,0.0,0.0,0.0,0.0,0.0,0.0,0.0,0.0,0.0,0.0,0.0,0.0,0.0,0.0,0.0,0.0,0.0,0.0,0.0,0.0,0.0,0.0,0.0,0.0,0.0,0.0,0.0,0.0,0.0,0.0,0.0,0.0,0.0,0.0,0.0,0.0,0.0,0.0,0.0,0.0,0.0,0.0,0.0,0.0,0.0,0.0,0.0,0.0,0.0,0.0,0.0,0.0,0.0,0.0,0.0,0.0,0.0,0.0,0.0,0.0,0.0,0.0,0.0,0.0,0.0,0.0,0.0,0.0,0.0,0.0,0.0,0.0,0.0,0.0,0.0,0.0,0.0,0.0,0.0,0.0,0.0,0.0,0.0,0.0,0.0,0.0,0.0,0.0,0.0,0.0,0.0,0.0,0.0,0.0,0.0,0.0,0.0,0.0,0.0,0.0,0.0,0.0,0.0,0.0,0.0,0.0,0.0,0.0,0.0,0.0,0.0,0.0,0.0,0.0,0.0,0.0,0.0,0.0,0.0,0.0,0.0,0.0,0.0,0.0,0.0,0.0,0.0,0.0,0.0,0.0,0.0,0.0,0.0,0.0,0.0,0.0,0.0,0.0,0.0,0.0,0.0,0.0,0.0,0.0,0.0,0.0,0.0,0.0,0.0,0.0,0.0,0.0,0.0,0.0,0.0,0.0,0.0,0.0,0.0,0.0,0.0,0.0,0.0,0.0,0.0,0.0,0.0,0.0,0.0,0.0,0.0,0.0,0.0,0.0,0.0,0.0,0.0,0.0,0.0,0.0,0.0,0.0,0.0,0.0,0.0,0.0,0.0,0.0,0.0,0.0,0.0,0.0,0.0,0.0,0.0,0.0,0.0,0.0,0.0,0.0,0.0,0.0,0.0,0.0,0.0,0.0,0.0,0.0,0.0,0.0,0.0,0.0,0.0,0.0,0.0,0.0,0.0,0.0,0.0,0.0,0.0,0.0,0.0,0.0,0.0,0.0,0.0,0.0,0.0,0.0,0.0,0.0,0.0,0.0,0.0,0.0,0.0,0.0,0.0,0.0,0.0,0.0,0.0,0.0,0.0,0.0,0.0,0.0,0.0,0.0,0.0,0.0,0.0,0.0,0.0,0.0,0.0,0.0,0.0,0.0,0.0,0.0,0.0,0.0,0.0,0.0,0.0,0.0,0.0,0.0,0.0,0.0,0.0,0.0,0.0,0.0,0.0,0.0,0.0,0.0,0.0,0.0,0.0,0.0,0.0,0.0,0.0,0.0,0.0,0.0,0.0,0.0,0.0,0.0,0.0,0.0,0.0,0.0,0.0,0.0,0.0,0.0,0.0,0.0,0.0,0.0,0.0,0.0,0.0,0.0,0.0,0.0,0.0,0.0,0.0,0.0,0.0,0.0,0.0,0.0,0.0,0.0,0.0,0.0,0.0,0.0,0.0,0.0,0.0,0.0,0.0,0.0,0.0,0.0,0.0,0.0,0.0,0.0,0.0,0.0,0.0,0.0,0.0,0.0,0.0,0.0,0.0,0.0,0.0,0.0,0.0,0.0,0.0,0.0,0.0,0.0,0.0,0.0,0.0,0.0,0.0,0.0,0.0,0.0,0.0,0.0,0.0,0.0,0.0,0.0,0.0,0.0,0.0,0.0,0.0,0.0,0.0,0.0,0.0,0.0,0.0,0.0,0.0,0.0,0.0,0.0,0.0,0.0,0.0,0.0,0.0,0.0,0.0,0.0,0.0,0.0,0.0,0.0,0.0,0.0,0.0,0.0,0.0,0.0,0.0,0.0,0.0,0.0,0.0,0.0,0.0,0.0,0.0,0.0,0.0,0.0,0.0,0.0,0.0,0.0,0.0,0.0,0.0,0.0,0.0,0.0,0.0,0.0,0.0,0.0,0.0,0.0,0.0,0.0,0.0,0.0,0.0,0.0,0.0,0.0,0.0,0.0,0.0,0.0,0.0,0.0,0.0,0.0,0.0,0.0,0.0,0.0,0.0,0.0,0.0,0.0,0.0,-3.1504,0.0,0.0,0.0,0.0,0.0,0.0,0.0,0.0,0.0,0.0,0.0,0.0,0.0,0.0,0.0,0.0,0.0,0.0,0.0,0.0,0.0,0.0,0.0,0.0,0.0,0.0,0.0,0.0,0.0,0.0,0.0,0.0,0.0,0.0,0.0,0.0,0.0,0.0,0.0,0.0,-2.7543,-2.8223,-2.7944,-2.7843,-2.7923,0.0,0.0,0.0,0.0,0.0,0.0,0.0,0.0,0.0,0.0,0.0,0.0,0.0,0.0,0.0,0.0,0.0,0.0,0.0,0.0,0.0,0.0,0.0,0.0,0.0,0.0,0.0,0.0,0.0,0.0,0.0,0.0,0.0,0.0,0.0,0.0,0.0,0.0,0.0,0.0,0.0,0.0,0.0,0.0,0.0,0.0,0.0,0.0,0.0,0.0,0.0,0.0,0.0,0.0,0.0,0.0,0.0,0.0,0.0,0.0,0.0,0.0,0.0,0.0,0.0,0.0,0.0,0.0,0.0,0.0,0.0,-3.2509,0.0,0.0,0.0,0.0,0.0,0.0,0.0,0.0,0.0,0.0,0.0,0.0,0.0,0.0,0.0,0.0,0.0,0.0,0.0,0.0,0.0,0.0,0.0,0.0,0.0,0.0,0.0,0.0,0.0,0.0,0.0,0.0,0.0,0.0,0.0,0.0,0.0,0.0,0.0,-2.8385,-2.8989,-2.9127,-2.8844,-2.8262,-2.8436,0.0,0.0,0.0,0.0,0.0,0.0,0.0,0.0,0.0,0.0,0.0,0.0,0.0,0.0,0.0,0.0,0.0,0.0,0.0,0.0,0.0,0.0,0.0,0.0,0.0,0.0,0.0,0.0,0.0,0.0,0.0,0.0,0.0,0.0,0.0,0.0,0.0,0.0,0.0,0.0,0.0,0.0,0.0,0.0,0.0,0.0,0.0,0.0,0.0,0.0,0.0,0.0,0.0,0.0,0.0,0.0,0.0,0.0,0.0,0.0,0.0,0.0,0.0,-3.3452,-3.3305,-3.3198,-3.3208,-3.321,-3.3205,-3.3706,-3.3915,-3.3882,-3.4049,0.0,0.0,0.0,0.0,0.0,0.0,0.0,0.0,0.0,0.0,0.0,0.0,0.0,0.0,0.0,0.0,0.0,0.0,0.0,0.0,0.0,-2.2717,-2.3239,-2.4256,-2.4424,-2.4617,0.0,0.0,0.0,0.0,0.0,0.0,0.0,0.0,0.0,0.0,0.0,-2.9653,-2.9772,-2.9821,-2.9816,-2.974,-2.999,-3.0116,-3.0116,0.0,0.0,0.0,0.0,0.0,0.0,0.0,0.0,0.0,0.0,0.0,0.0,0.0,0.0,0.0,0.0,0.0,0.0,0.0,0.0,0.0,0.0,0.0,0.0,0.0,0.0,0.0,0.0,0.0,0.0,0.0,0.0,0.0,0.0,0.0,0.0,0.0,0.0,0.0,0.0,0.0,-3.057,-3.1276,0.0,0.0,0.0,0.0,0.0,0.0,0.0,0.0,0.0,0.0,0.0,0.0,0.0,-3.4034,-3.3911,-3.3805,-3.3713,-3.3611,-3.3569,-3.3427,-3.3215,-3.3837,-3.4024,-3.3906,-3.4608,0.0,-3.3326,-3.3656,0.0,0.0,0.0,0.0,0.0,0.0,0.0,0.0,0.0,0.0,0.0,0.0,0.0,0.0,0.0,0.0,0.0,0.0,0.0,0.0,0.0,-2.3619,-2.3928,-2.4492,-2.4569,-2.471,-2.4985,0.0,0.0,0.0,0.0,0.0,0.0,0.0,0.0,0.0,-2.9734,-2.9896,-2.9896,-2.9924,-2.9946,-2.9946,-3.0119,-3.021,-3.0274,-3.0316,0.0,0.0,0.0,0.0,0.0,0.0,0.0,0.0,0.0,0.0,0.0,0.0,0.0,0.0,0.0,0.0,0.0,0.0,0.0,0.0,0.0,0.0,0.0,0.0,0.0,0.0,0.0,0.0,0.0,0.0,0.0,0.0,0.0,0.0,0.0,0.0,0.0,0.0,0.0,-3.1613,-3.169,-3.1978,-3.1794,-3.1911,0.0,0.0,0.0,0.0,0.0,0.0,0.0,0.0,0.0,-3.4017,-3.4161,-3.4389,-3.4725,-3.45,-3.4554,-3.4848,-3.468,-3.4526,-3.4387,-3.4638,-3.4674,-3.4522,-3.4861,-3.4675,-3.4174,-3.4509,-3.4921,-3.5287,0.0,0.0,0.0,0.0,-3.5083,-3.4924,0.0,0.0,0.0,0.0,0.0,0.0,0.0,0.0,0.0,0.0,0.0,0.0,-2.4141,-2.4208,-2.4333,-2.4569,-2.4765,-2.4977,-2.5234,-2.5898,0.0,0.0,0.0,0.0,0.0,0.0,0.0,-2.9896,-2.9896,-2.9896,-2.9896,-2.9896,-2.9896,-2.9896,-2.9946,-3.0055,-3.0146,-3.0189,-3.0274,-3.0422,0.0,0.0,0.0,0.0,0.0,0.0,0.0,0.0,0.0,0.0,0.0,0.0,0.0,0.0,0.0,0.0,0.0,0.0,0.0,0.0,0.0,0.0,0.0,0.0,0.0,0.0,0.0,0.0,0.0,0.0,0.0,0.0,0.0,0.0,0.0,0.0,0.0,-3.2799,-3.2856,-3.2773,-3.3051,-3.3241,0.0,0.0,0.0,0.0,0.0,0.0,-3.4889,-3.4884,-3.4878,-3.4823,-3.4994,-3.5342,-3.5896,-3.5817,-3.6023,-3.6512,-3.6294,-3.6112,-3.6024,-3.5867,-3.5702,-3.5494,-3.5494,-3.5494,-3.5453,-3.5385,-3.565,-3.6041,-3.5824,-3.5898,-3.6097,-3.5646,-3.5397,-3.5268,0.0,0.0,0.0,0.0,0.0,0.0,0.0,0.0,0.0,0.0,0.0,-2.4156,-2.4202,-2.4271,-2.4364,-2.4589,-2.5238,-2.5717,-2.5941,-2.6641,-2.7336,-2.7968,-2.8015,0.0,0.0,0.0,0.0,-2.9896,-2.9896,-2.9896,-2.9896,-2.9896,-2.9896,-2.9896,-2.9902,-2.9946,-3.0017,-3.0146,-3.0316,-3.051,0.0,0.0,0.0,0.0,0.0,0.0,0.0,0.0,0.0,0.0,0.0,0.0,0.0,0.0,0.0,0.0,0.0,0.0,0.0,0.0,0.0,0.0,0.0,0.0,0.0,0.0,0.0,0.0,0.0,0.0,0.0,0.0,0.0,0.0,0.0,0.0,0.0,0.0,0.0,-3.3738,-3.4481,0.0,0.0,0.0,0.0,-3.5133,-3.5048,-3.4942,-3.4817,-3.5335,-3.5584,-3.5468,-3.6735,-3.7455,-3.7469,-3.8113,-3.8427,-3.8461,-3.8327,-3.8157,-3.7959,-3.7824,-3.7562,-3.7195,-3.7195,-3.7095,-3.6887,-3.5783,-3.5367,-3.5476,-3.5912,-3.6169,-3.6295,-3.6467,-3.6565,-3.658,0.0,0.0,0.0,0.0,0.0,0.0,0.0,0.0,0.0,-2.3567,-2.4013,-2.4255,-2.4255,-2.4297,-2.4385,-2.4589,-2.5269,-2.5801,-2.5988,-2.7083,-2.7841,-2.8079,0.0,0.0,0.0,0.0,-2.9675,-2.9896,-2.9896,-2.9896,-2.9896,-2.9896,-2.9896,-2.9896,-2.9896,-2.9902,-2.9946,-2.9989,-3.006,-3.021,-3.0489,-3.076,0.0,0.0,0.0,0.0,0.0,0.0,0.0,0.0,0.0,0.0,0.0,0.0,0.0,0.0,0.0,0.0,0.0,0.0,0.0,0.0,0.0,0.0,0.0,0.0,0.0,0.0,0.0,0.0,0.0,0.0,0.0,0.0,0.0,0.0,0.0,0.0,0.0,-3.457,-3.4889,0.0,-3.5101,-3.5633,-3.5971,-3.5971,-3.6808,-3.7282,-3.7188,-3.7794,-3.8116,-3.8076,-3.8482,-3.8741,-3.8821,-3.8982,-3.9019,-3.8916,-3.882,-3.8599,-3.8282,-3.8184,-3.7926,-3.7565,-3.7565,-3.7467,-3.7327,-3.698,-3.6888,-3.6996,-3.7325,-3.7551,-3.7727,-3.7793,-3.788,-3.7983,0.0,0.0,0.0,0.0,0.0,0.0,0.0,0.0,0.0,-2.412,-2.4255,-2.4302,-2.4302,-2.4302,-2.4477,-2.4937,-2.5612,-2.624,-2.6667,-2.7794,-2.8442,-2.8442,-2.8907,0.0,0.0,-2.9541,-2.9675,-2.9896,-2.9896,-2.9896,-2.9896,-2.9896,-2.9896,-2.9896,-2.9896,-2.9896,-2.9896,-2.9896,-2.9946,-3.0038,-3.038,-3.0613,-3.0821,0.0,0.0,0.0,0.0,0.0,0.0,0.0,0.0,0.0,0.0,0.0,0.0,0.0,0.0,0.0,0.0,0.0,0.0,0.0,0.0,0.0,0.0,0.0,0.0,0.0,0.0,0.0,0.0,0.0,0.0,0.0,0.0,0.0,0.0,0.0,-3.551,-3.5474,-3.5759,-3.6043,-3.6328,-3.688,-3.7309,-3.7559,-3.8464,-3.8992,-3.8951,-3.933,-3.9514,-3.9514,-3.97,-3.9841,-3.9938,-4.0123,-4.0183,-4.0063,-4.0237,-4.0144,-3.9893,-4.0032,-3.9877,-3.9523,-3.9442,-3.9318,-3.9194,-3.9302,-3.9352,-3.9242,-3.8364,-3.812,-3.8265,-3.8265,-3.8402,-3.8605,0.0,0.0,0.0,0.0,0.0,0.0,0.0,-2.2751,-2.3903,-2.4145,-2.4255,-2.4302,-2.4302,-2.4302,-2.4683,-2.5633,-2.632,-2.7096,-2.8047,-2.8719,-2.9098,-2.9098,0.0,0.0,-2.9496,-2.963,-2.9764,-2.9896,-2.9896,-2.9896,-2.9896,-2.9896,-2.9896,-2.9896,-2.9896,-2.9896,-2.9896,-2.9913,-2.9956,-3.0049,-3.0359,-3.0568,-3.0733,0.0,0.0,0.0,0.0,0.0,0.0,0.0,0.0,0.0,0.0,0.0,0.0,0.0,0.0,0.0,0.0,0.0,0.0,0.0,0.0,0.0,0.0,0.0,0.0,0.0,0.0,0.0,0.0,0.0,0.0,0.0,0.0,0.0,-3.5383,-3.5971,-3.647,-3.647,-3.7166,-3.7969,-3.8772,-3.8825,-3.9128,-3.9841,-3.9852,-3.9848,-3.9848,-3.9731,-3.9691,-3.9691,-4.0468,-4.0893,-4.0875,-4.1669,-4.2076,-4.2094,-4.2679,-4.2921,-4.2856,-4.3377,-4.3433,-4.3111,-4.2911,-4.2706,-4.2551,-4.2593,-4.2505,-4.2025,-3.8983,-3.7853,-3.7915,-3.7882,-3.8118,-3.8477,0.0,0.0,0.0,0.0,0.0,0.0,0.0,-2.2694,-2.3903,-2.4145,-2.4255,-2.4302,-2.4302,-2.438,-2.4782,-2.5633,-2.6401,-2.7199,-2.8047,-2.8719,-2.9098,-2.9098,0.0,0.0,-2.9496,-2.963,-2.9764,-2.9896,-2.9896,-2.9896,-2.9896,-2.9896,-2.9896,-2.9896,-2.9896,-2.9896,-2.9929,-3.0425,-3.0635,-3.0632,-3.038,-3.0295,-3.038,0.0,0.0,0.0,0.0,0.0,0.0,0.0,0.0,0.0,0.0,0.0,0.0,0.0,0.0,0.0,0.0,0.0,0.0,0.0,0.0,0.0,0.0,0.0,0.0,0.0,0.0,0.0,0.0,0.0,0.0,0.0,0.0,-3.8469,-3.7131,-3.763,-3.8148,-3.8148,-3.8808,-3.9361,-3.9574,-3.9591,-3.9681,-3.9877,-4.041,-4.0749,-4.0749,-4.1263,-4.1525,-4.1422,-4.2182,-4.2587,-4.2465,-4.3367,-4.3753,-4.3665,-4.393,-4.3952,-4.3767,-4.3909,-4.3816,-4.3526,-4.3489,-4.3374,-4.3217,-4.3195,-4.2995,-4.2586,-4.1002,-4.0324,-4.018,-3.9665,-3.9659,-3.9901,0.0,0.0,0.0,0.0,0.0,0.0,0.0,-2.2646,-2.3812,-2.4145,-2.4229,-2.4276,-2.4297,-2.4668,-2.5243,-2.6055,-2.6867,-2.7668,-2.8467,-2.8877,-2.9098,0.0,0.0,-2.935,-2.9496,-2.963,-2.9764,-2.9896,-2.9896,-2.9896,-2.9896,-2.9896,-2.9896,-2.9896,-3.0204,-3.0312,-3.036,-3.105,-3.1357,-3.1348,-3.1047,-3.0995,-3.1062,-3.1399,-3.1464,-3.1421,-3.1817,-3.1879,-3.1909,-3.2912,0.0,0.0,0.0,0.0,0.0,0.0,0.0,0.0,0.0,0.0,0.0,0.0,0.0,0.0,0.0,0.0,0.0,0.0,0.0,0.0,0.0,0.0,0.0,0.0,-3.9895,-3.9593,-3.8683,-3.8968,-3.9253,-3.9253,-3.9627,-4.0019,-4.0378,-4.0414,-4.0556,-4.0877,-4.1301,-4.151,-4.151,-4.2174,-4.2516,-4.2434,-4.3209,-4.3611,-4.3509,-4.4165,-4.4458,-4.4391,-4.4827,-4.4969,-4.4812,-4.5085,-4.5134,-4.5,-4.4882,-4.4793,-4.4721,-4.4617,-4.4396,0.0,0.0,0.0,0.0,0.0,-4.1197,-4.1349,0.0,0.0,0.0,0.0,0.0,0.0,0.0,-2.2556,-2.364,-2.4103,-2.4166,-2.4229,-2.4281,-2.5008,-2.5817,-2.6604,-2.7424,-2.8227,-2.9028,-2.9075,0.0,-2.9098,-2.9236,-2.935,-2.9473,-2.963,-2.9764,-2.9896,-2.988,-2.9896,-2.9896,-2.9896,-2.9896,-2.9913,-3.0603,-3.0904,-3.0953,-3.1785,-3.2125,-3.2141,-3.2222,-3.2212,-3.2199,-3.239,-3.238,-3.2341,-3.2768,-3.284,-3.2857,-3.3654,0.0,0.0,0.0,0.0,0.0,0.0,0.0,0.0,0.0,0.0,0.0,0.0,0.0,0.0,0.0,0.0,0.0,0.0,0.0,0.0,0.0,0.0,0.0,0.0,-4.0182,-4.0182,-4.0182,-4.0182,-4.0126,-4.0037,-4.0109,-4.0449,-4.1163,-4.1214,-4.1553,-4.2338,-4.2287,-4.226,-4.2328,0.0,0.0,0.0,0.0,-4.4155,-4.4155,-4.4536,-4.4725,-4.4747,-4.5557,-4.5945,-4.594,-4.6522,-4.6778,-4.6731,-4.6501,-4.6381,-4.6374,-4.6235,-4.6013,-4.5545,-4.3451,-4.2513,-4.2339,-4.2462,-4.2505,-4.2479,0.0,0.0,0.0,0.0,0.0,0.0,0.0,-2.2321,-2.3473,-2.3818,-2.4082,-2.4229,-2.4281,-2.5024,-2.5768,-2.6479,-2.7252,-2.8091,-2.8896,0.0,-2.9098,-2.9098,-2.9236,-2.9305,-2.9328,-2.957,-2.972,-2.9742,-2.9852,-2.9896,-2.9896,-2.9896,-2.9896,-2.9913,-3.0603,-3.0904,-3.1001,-3.2319,-3.2886,-3.2919,-3.3485,-3.304,-3.2059,-3.2183,-3.2229,-3.2252,-3.2387,-3.2416,-3.2583,-3.3751,-3.4238,-3.458,-3.5742,0.0,0.0,0.0,0.0,0.0,0.0,0.0,0.0,0.0,0.0,0.0,0.0,0.0,0.0,0.0,0.0,0.0,0.0,0.0,0.0,-4.1841,-4.1841,-4.1841,-4.1841,-4.1841,-4.1591,-4.0949,-4.1431,-4.1895,-4.2037,-4.1973,-4.2231,-4.3049,-4.2977,-4.3134,-4.3676,-4.3657,-4.3565,-4.3387,-4.4101,-4.4544,-4.4579,-4.5563,-4.61,-4.6194,0.0,0.0,-4.6611,-4.6747,-4.6684,-4.6453,-4.6405,-4.6332,-4.6235,-4.6087,-4.576,-4.5197,-4.4067,-4.3148,-4.2454,-4.2488,-4.2426,-4.2337,0.0,0.0,0.0,0.0,0.0,0.0,0.0,-2.2134,-2.326,-2.3754,-2.3982,-2.4151,-2.4297,-2.5317,-2.6125,-2.6472,-2.7572,-2.8436,0.0,-2.8967,-2.9029,-2.9098,-2.9167,-2.9236,-2.9305,-2.9418,-2.957,-2.9697,-2.9764,-2.983,-2.9896,-2.9896,-2.9896,-2.9967,-3.0992,-3.1438,-3.1535,-3.2983,-3.3599,-3.3631,-3.3971,-3.368,-3.3048,-3.3137,-3.3145,-3.3169,-3.3257,-3.3304,-3.3441,-3.4336,-3.4767,-3.5065,-3.6011,-3.6527,-3.6788,0.0,0.0,0.0,0.0,0.0,0.0,0.0,0.0,0.0,0.0,0.0,0.0,0.0,0.0,-4.1698,0.0,0.0,-4.2308,-4.2308,-4.2308,-4.2308,-4.2308,-4.2644,-4.259,-4.1787,-4.2055,-4.2448,-4.2858,-4.2789,-4.3024,-4.3841,-4.3655,-4.3633,-4.3898,-4.4004,-4.395,-4.3749,-4.4577,-4.5052,-4.5145,-4.5895,-4.6374,-4.6495,-4.6637,-4.6661,-4.659,-4.6471,-4.6332,-4.6186,-4.6137,-4.6062,-4.5988,-4.5862,-4.5606,-4.5249,-4.4675,-4.4085,-4.3556,-4.3545,-4.3436,-4.3299,0.0,0.0,0.0,0.0,0.0,0.0,0.0,0.0,-2.2937,-2.3616,-2.3818,-2.4009,-2.4255,-2.5568,-2.6561,-2.6846,-2.8031,-2.8779,0.0,-2.8873,-2.8936,-2.9045,-2.9045,-2.9098,-2.922,-2.9259,-2.9373,-2.9614,-2.9653,-2.9742,-2.9874,-2.9874,-2.9874,-2.9945,-3.1218,-3.1882,-3.2093,-3.3356,-3.3987,-3.4101,-3.4101,-3.4101,-3.4101,-3.4101,-3.4101,-3.4126,-3.4226,-3.425,-3.4325,-3.4828,-3.5105,-3.5297,-3.5832,-3.6195,-3.6478,-3.6861,-3.7437,0.0,0.0,0.0,0.0,0.0,0.0,0.0,0.0,0.0,-4.204,-4.2079,-4.2184,-4.2267,-4.2267,-4.2287,-4.2308,-4.2308,-4.2391,-4.2498,-4.2498,-4.3152,-4.3419,-4.2781,-4.273,-4.2998,-4.3636,-4.3561,-4.3793,-4.4573,-4.4307,-4.4102,-4.4115,-4.436,-4.4406,-4.4188,-4.4947,-4.5389,-4.5503,-4.5887,-4.6161,-4.6284,-4.6308,-4.6284,-4.6235,-4.5988,-4.5862,-4.5786,-4.5615,-4.5555,-4.5537,-4.5424,-4.5319,-4.5159,-4.4934,-4.472,-4.4514,-4.4587,-4.444,-4.4253,0.0,0.0,0.0,0.0,0.0,0.0,0.0,0.0,0.0,-2.3223,-2.3523,-2.3797,-2.4166,-2.5418,-2.675,-2.8057,-2.8448,0.0,-2.8621,-2.8755,-2.8818,-2.8842,-2.8842,-2.8873,-2.8928,-2.9075,-2.919,-2.935,-2.9457,-2.9586,-2.972,-2.972,-2.9786,-2.9929,-3.07,-3.139,-3.206,-3.287,-3.355,-3.4101,-3.4101,-3.4101,-3.4101,-3.4101,-3.4101,-3.4101,-3.4126,-3.4126,-3.4176,-3.4472,-3.4756,-3.5041,-3.5509,-3.5844,-3.6242,-3.7218,0.0,-3.7831,-3.8616,-3.9382,-4.0165,-4.0896,-4.1178,-4.1326,0.0,0.0,-4.1884,-4.1987,-4.2076,-4.2124,-4.2124,-4.2225,-4.2308,-4.2308,-4.281,-4.3188,-4.3188,-4.3775,-4.4214,-4.4254,-4.4258,-4.4294,-4.4383,-4.416,-4.4341,-4.5158,-4.4951,-4.5012,-4.5542,-4.5373,-4.5163,-4.4912,-4.4998,-4.5113,-4.523,-4.5546,-4.5735,-4.5862,-4.5988,-4.5912,-4.5684,-4.5546,-4.5336,-4.5096,-4.478,-4.4642,-4.4625,-4.4642,-4.453,-4.4406,-4.4378,-4.4281,-4.4184,-4.4485,-4.44,-4.4126,0.0,0.0,0.0,0.0,0.0,0.0,0.0,0.0,0.0,0.0,-2.3155,-2.3689,-2.4024,-2.538,-2.6834,-2.8288,-2.8444,0.0,-2.8597,-2.866,-2.8708,-2.8794,-2.8794,-2.8803,-2.8834,-2.892,-2.9052,-2.919,-2.9321,-2.9457,-2.9586,-2.9586,-2.9608,-2.9707,-3.0451,-3.0958,-3.1336,-3.2571,-3.3242,-3.355,-3.3939,-3.4101,-3.4101,-3.4101,-3.4101,-3.4101,-3.4101,-3.4101,0.0,0.0,-3.4497,-3.4739,-3.5165,-3.575,-3.6412,-3.7006,-3.7904,0.0,-3.9738,-4.0187,-4.0498,0.0,-4.083,-4.0924,-4.1152,-4.1318,-4.152,-4.1732,-4.1888,-4.2019,-4.2082,-4.2225,-4.2427,0.0,-4.3138,-4.3446,-4.3824,-4.4506,-4.4961,-4.503,-4.5368,-4.548,-4.5173,-4.4933,-4.5129,-4.587,-4.5625,-4.5465,-4.5555,-4.531,-4.5032,-4.4793,-4.4831,-4.4951,-4.5086,-4.5257,-4.5389,-4.5468,-4.5441,-4.5292,-4.5062,-4.4862,-4.4659,-4.4452,-4.4338,-4.4281,-4.4281,-4.4281,-4.4224,-4.4167,-4.4167,-4.4155,-4.4126,-4.4258,-4.4172,-4.3969,0.0,0.0,0.0,0.0,0.0,0.0,0.0,0.0,0.0,0.0,0.0,-2.3375,-2.4146,-2.5465,-2.6765,-2.8027,0.0,0.0,0.0,-2.8525,-2.8589,-2.87,-2.87,-2.87,-2.8747,-2.8795,-2.8873,-2.9021,-2.9121,-2.9259,-2.9405,-2.9428,-2.9473,-2.9528,-3.0122,-3.0473,-3.0776,-3.1957,-3.2684,-3.3129,-3.3631,-3.3922,-3.4101,-3.4101,-3.4101,-3.4101,-3.4101,-3.4101,0.0,0.0,-3.4325,-3.453,-3.5107,-3.5809,-3.6562,-3.7305,-3.8617,-3.9952,-4.0494,-4.06,0.0,-4.0412,-4.0395,-4.0485,-4.0793,-4.0989,-4.1203,-4.1493,-4.1719,-4.1984,-4.2303,-4.2483,-4.281,-4.3525,-4.37,-4.3948,-4.4422,-4.5076,-4.5552,-4.5605,-4.6022,-4.6145,-4.5793,-4.5611,-4.5697,-4.6266,-4.5905,-4.5598,-4.5415,-4.5167,-4.4886,-4.4581,-4.4665,-4.4759,-4.4814,-4.4906,-4.4961,-4.4961,-4.4852,-4.4714,-4.453,-4.431,-4.4126,-4.3952,-4.3952,-4.3952,-4.3952,-4.3952,-4.3952,-4.3952,-4.3952,-4.3952,-4.3952,-4.3952,-4.3939,-4.3898,0.0,0.0,0.0,0.0,0.0,0.0,0.0,0.0,0.0,0.0,0.0,0.0,0.0,0.0,-2.6528,-2.7365,0.0,0.0,0.0,-2.8411,-2.8411,-2.8411,-2.8396,-2.8468,-2.8597,-2.8597,-2.8684,-2.8818,-2.8889,-2.899,-2.9098,-2.9236,-2.9389,-2.9496,-2.9528,-2.9987,-3.0695,-3.0744,-3.1652,-3.308,-3.3113,-3.3518,-3.4101,-3.4101,-3.4101,-3.4101,-3.4101,0.0,-3.4101,-3.4101,-3.4201,-3.448,-3.5473,-3.5984,0.0,-3.8553,-3.9853,-4.0638,-4.0517,0.0,-4.0138,-4.0096,-4.0096,-4.0238,-4.0624,-4.0817,-4.0989,-4.1335,-4.1626,-4.2053,-4.2904,-4.319,-4.3521,-4.4343,-4.4735,-4.4957,-4.4992,-4.5456,-4.587,-4.6151,-4.6062,-4.6055,0.0,-4.6045,-4.6005,-4.6023,-4.5649,-4.5415,-4.5415,-4.5167,-4.4841,-4.4502,-4.4502,-4.4463,-4.4321,-4.4338,-4.4338,-4.4338,-4.4321,-4.4253,-4.4126,-4.3985,-4.3793,-4.3628,-4.3628,-4.3628,-4.3628,-4.3628,-4.3628,-4.3628,-4.3628,-4.3628,-4.3628,-4.3628,-4.3734,-4.3898,0.0,0.0,0.0,0.0,0.0,0.0,0.0,0.0,0.0,0.0,0.0,0.0,0.0,0.0,0.0,0.0,0.0,0.0,0.0,-2.8411,-2.8411,-2.8411,-2.8411,-2.842,-2.8468,-2.8549,-2.8636,-2.866,-2.8779,-2.885,-2.8897,-2.8944,-2.9021,-2.9121,-2.919,-2.9471,-2.9932,-3.0456,-3.1055,-3.1713,-3.2708,-3.3251,-3.3485,-3.3922,-3.4101,-3.4101,0.0,0.0,-3.4101,-3.4101,-3.4475,-3.4989,-3.5512,-3.6513,-3.7844,-3.9477,-4.0126,-4.0263,-4.0138,0.0,-3.9618,-3.954,-3.953,-3.9703,-4.0188,-4.0485,-4.0776,-4.1272,-4.2013,-4.2657,-4.3028,-4.3651,-4.4272,-4.4747,-4.4941,-4.5106,-4.5341,-4.5647,-4.5795,-4.5811,-4.5829,0.0,0.0,0.0,0.0,-4.5752,-4.5363,-4.5069,-4.4927,-4.4669,-4.4452,-4.4253,-4.4224,-4.4196,-4.4184,-4.4184,-4.4126,-4.4027,-4.3894,-4.3818,-4.3776,-4.3717,-4.3658,-4.3598,-4.3598,-4.3598,-4.3598,-4.3598,-4.3598,-4.3598,-4.3598,-4.3598,-4.3598,-4.3598,-4.3628,-4.3704,0.0,0.0,0.0,0.0,0.0,0.0,0.0,0.0,0.0,0.0,0.0,0.0,0.0,0.0,0.0,0.0,0.0,0.0,0.0,0.0,-2.815,-2.8396,-2.8411,-2.8411,-2.8411,-2.8493,-2.8541,-2.8541,-2.866,-2.8747,-2.8747,-2.8771,-2.885,-2.8904,-2.899,-2.9167,-2.9466,-2.9989,-3.0417,-3.0886,-3.1845,-3.2531,-3.3096,-3.3492,-3.384,0.0,0.0,0.0,-3.4101,-3.4101,-3.4408,-3.4929,-3.5696,-3.723,-3.8929,-3.9876,-4.0087,-3.9986,-3.9781,-3.9478,-3.9169,-3.9088,-3.9142,-3.9415,-3.991,-4.0313,-4.0728,-4.129,-4.2206,-4.3045,-4.3452,-4.425,-4.4944,-4.5356,-4.531,-4.5287,-4.5485,-4.552,-4.5511,-4.5468,-4.552,-4.552,0.0,0.0,0.0,-4.5389,-4.4988,-4.4686,-4.4558,-4.435,-4.4184,-4.4027,-4.4027,-4.3981,-4.3923,-4.3923,-4.3864,-4.3793,-4.3658,-4.3598,-4.3598,-4.3598,-4.3598,-4.3598,-4.3598,-4.3598,-4.3598,-4.3598,-4.3598,-4.3598,-4.3598,-4.3598,-4.3598,-4.3598,-4.3598,-4.3598,0.0,0.0,0.0,0.0,0.0,0.0,0.0,0.0,0.0,0.0,0.0,0.0,0.0,0.0,0.0,0.0,0.0,0.0,0.0,0.0,0.0,-2.8319,-2.835,-2.8365,-2.8411,-2.8411,-2.8411,-2.8411,-2.8541,-2.8589,-2.8597,-2.8723,-2.8826,-2.8881,-2.8881,-2.9036,-2.9305,-2.9305,-2.9772,-3.0542,-3.0574,-3.1486,-3.2788,-3.2868,0.0,0.0,0.0,0.0,-3.4101,-3.4101,-3.4117,-3.4459,-3.6075,-3.7975,-3.9653,-3.9833,-3.9875,-3.9781,-3.9461,-3.9088,-3.8805,-3.8805,-3.9007,-3.9329,-3.9781,-4.0313,-4.084,-4.1365,-4.2259,-4.3257,0.0,0.0,-4.5611,-4.6088,-4.5837,-4.5529,-4.5389,-4.5167,-4.5032,0.0,0.0,0.0,0.0,0.0,0.0,-4.4923,0.0,-4.4281,-4.4281,-4.4155,-4.4027,-4.3898,-4.3898,-4.3793,-4.3598,-4.3598,-4.3598,-4.3598,-4.3598,-4.3598,-4.3598,-4.3598,-4.3598,-4.3598,-4.3598,-4.3598,-4.3598,-4.3598,-4.3598,-4.3598,-4.3598,-4.3598,-4.3598,-4.3598,-4.3598,-4.3598,0.0,0.0,0.0,0.0,0.0,0.0,0.0,0.0,0.0,0.0,0.0,0.0,0.0,0.0,0.0,0.0,0.0,0.0,0.0,0.0,0.0,0.0,0.0,0.0,0.0,0.0,0.0,-2.8411,-2.842,-2.8444,-2.8444,-2.8484,-2.8565,-2.8692,-2.8779,-2.8951,-2.9167,-2.9259,-2.9485,-2.9838,0.0,-3.0876,-3.1371,0.0,0.0,0.0,0.0,0.0,0.0,0.0,0.0,0.0,0.0,-3.7946,-3.8674,-3.9215,-3.9398,-3.9379,-3.905,-3.8887,-3.8777,-3.8699,-3.8958,-3.9388,-3.9781,-4.0271,-4.0968,-4.2183,-4.3243,-4.4178,0.0,0.0,0.0,-4.5802,-4.558,0.0,-4.4807,-4.4896,0.0,-4.4697,0.0,-4.4841,-4.4659,-4.4406,0.0,0.0,-4.4056,-4.3998,-4.3998,-4.3835,-4.3717,-4.3674,-4.3674,-4.3658,-4.3598,-4.3598,-4.3598,-4.3598,-4.3598,-4.3598,-4.3598,-4.3598,-4.3598,-4.3598,-4.3598,-4.3598,-4.3598,-4.3598,-4.3598,-4.3598,-4.3598,-4.3598,-4.3598,-4.3598,-4.3598,-4.3598,0.0,0.0,0.0,0.0,0.0,0.0,0.0,0.0,0.0,0.0,0.0,0.0,0.0,0.0,0.0,0.0,0.0,0.0,0.0,0.0,0.0,0.0,0.0,0.0,0.0,0.0,0.0,0.0,0.0,0.0,-2.8411,-2.8411,-2.8468,-2.8597,-2.8684,-2.8803,-2.899,-2.9098,0.0,0.0,0.0,0.0,0.0,0.0,0.0,0.0,0.0,0.0,0.0,0.0,0.0,-3.547,-3.6398,-3.7295,-3.8071,-3.8537,0.0,-3.904,-3.8914,-3.8805,-3.8711,-3.8766,-3.9121,-3.9573,-3.9944,-4.0444,-4.1116,-4.2144,-4.3398,0.0,-4.4855,-4.5735,0.0,0.0,0.0,0.0,-4.4558,-4.4547,-4.4536,0.0,-4.4423,0.0,-4.4253,-4.4097,-4.3939,0.0,-4.3763,-4.3763,-4.3763,-4.3658,-4.3598,-4.3598,-4.3598,-4.3598,-4.3598,-4.3598,-4.3598,-4.3598,-4.3598,-4.3598,-4.3598,-4.3598,-4.3598,-4.3598,0.0,-4.3598,-4.3598,-4.3598,-4.3598,-4.3598,-4.3598,-4.3598,-4.3598,-4.3598,-4.3598,-4.3598,0.0,0.0,0.0,0.0,0.0,0.0,0.0,0.0,0.0,0.0,0.0,0.0,0.0,0.0,0.0,0.0,0.0,0.0,0.0,0.0,0.0,0.0,0.0,0.0,0.0,0.0,0.0,0.0,0.0,0.0,0.0,0.0,0.0,0.0,0.0,0.0,0.0,0.0,0.0,0.0,0.0,0.0,0.0,0.0,0.0,0.0,0.0,0.0,0.0,0.0,-3.4522,-3.5082,-3.5307,-3.6365,-3.7593,-3.7873,-3.8345,-3.8832,-3.8969,-3.8849,-3.8782,-3.9023,-3.9425,-3.9841,-4.0162,-4.0704,-4.1267,-4.1811,0.0,-4.4205,-4.4408,-4.5388,-4.6039,-4.5615,0.0,-4.4797,-4.4463,-4.4224,-4.4097,-4.4085,-4.4068,-4.4027,-4.3898,-4.3868,-4.3793,-4.3628,-4.3598,-4.3598,-4.3598,-4.3598,-4.3598,-4.3598,-4.3598,-4.3598,-4.3598,-4.3598,-4.3598,-4.3598,-4.3598,-4.3598,-4.3598,-4.3598,-4.3598,-4.3598,-4.3598,-4.3598,-4.3598,-4.3598,-4.3598,-4.3598,-4.3598,-4.3598,-4.3598,-4.3598,-4.3598,-4.3598,0.0,0.0,0.0,0.0,0.0,0.0,0.0,0.0,0.0,0.0,-1.8244,-1.8621,0.0,0.0,0.0,0.0,0.0,0.0,0.0,0.0,0.0,0.0,0.0,0.0,0.0,0.0,0.0,0.0,0.0,0.0,0.0,0.0,0.0,0.0,0.0,0.0,0.0,0.0,0.0,0.0,0.0,0.0,0.0,0.0,0.0,0.0,0.0,0.0,0.0,0.0,-3.4182,-3.4392,-3.5043,-3.5909,-3.6812,-3.741,-3.815,-3.8832,-3.8969,-3.9131,-3.9302,-3.9547,-3.9884,-4.0238,-4.0395,-4.0793,0.0,0.0,-4.2988,-4.3704,-4.4956,-4.514,-4.5112,-4.5259,0.0,0.0,0.0,0.0,-4.4056,0.0,0.0,0.0,0.0,0.0,0.0,0.0,0.0,-4.3598,-4.3598,-4.3598,-4.3598,-4.3598,-4.3598,-4.3598,-4.3598,-4.3598,-4.3598,-4.3598,-4.3598,-4.3598,-4.3598,-4.3598,-4.3598,-4.3598,-4.3598,0.0,-4.3598,-4.3598,-4.3598,-4.3598,-4.3598,-4.3598,-4.3598,-4.3598,-4.3598,-4.3598,0.0,0.0,0.0,0.0,0.0,0.0,0.0,-1.7969,-1.8075,-1.8022,-1.824,-1.8503,-1.8765,-1.923,0.0,0.0,0.0,0.0,0.0,0.0,0.0,0.0,0.0,0.0,0.0,0.0,-2.7565,-2.7873,0.0,0.0,0.0,-2.8411,-2.8411,0.0,0.0,0.0,0.0,0.0,0.0,0.0,0.0,0.0,0.0,0.0,0.0,0.0,0.0,0.0,0.0,0.0,-3.3809,-3.4165,-3.4505,-3.5172,-3.5991,-3.6839,-3.7621,-3.8395,-3.9166,-3.9451,-3.9661,-4.002,-4.0263,-4.0468,-4.0789,0.0,0.0,0.0,-4.2772,-4.3333,-4.4076,-4.4577,0.0,0.0,0.0,0.0,0.0,0.0,0.0,0.0,0.0,0.0,0.0,0.0,0.0,0.0,0.0,-4.3598,-4.3598,-4.3598,-4.3598,-4.3598,-4.3598,-4.3598,-4.3598,-4.3598,-4.3598,-4.3598,-4.3598,-4.3598,-4.3598,-4.3598,-4.3598,-4.3598,-4.3598,-4.3598,-4.3598,-4.3598,-4.3598,-4.3598,-4.3598,-4.3598,-4.3598,-4.3598,-4.3598,-4.3598,0.0,0.0,0.0,0.0,0.0,0.0,0.0,-1.8324,-1.8453,-1.8261,-1.8482,-1.8618,-1.8551,-1.8827,-1.9352,0.0,0.0,0.0,0.0,0.0,0.0,0.0,0.0,0.0,0.0,0.0,0.0,-2.7396,-2.7934,0.0,0.0,0.0,0.0,0.0,-2.842,-2.8493,0.0,0.0,0.0,0.0,0.0,0.0,0.0,0.0,0.0,0.0,0.0,0.0,0.0,0.0,-3.3437,-3.3906,-3.4077,-3.4653,-3.5428,-3.6257,-3.7131,-3.8104,-3.9276,-3.9766,-4.0037,-4.051,-4.0655,-4.0758,-4.1117,-4.1232,0.0,0.0,-4.2444,-4.2908,-4.3107,-4.4013,-4.4624,0.0,-4.4421,0.0,0.0,0.0,0.0,0.0,0.0,0.0,0.0,0.0,0.0,0.0,0.0,0.0,-4.3598,-4.3598,-4.3598,-4.3598,-4.3598,-4.3598,-4.3598,-4.3598,-4.3598,-4.3598,-4.3598,-4.3598,-4.3598,-4.3598,-4.3598,-4.3598,-4.3598,-4.3598,-4.3598,-4.3598,-4.3598,-4.3598,-4.3598,-4.3598,-4.3598,-4.3598,-4.3598,-4.3598,0.0,0.0,0.0,0.0,0.0,0.0,0.0,-1.9408,-1.9358,-1.9045,-1.9079,-1.9014,-1.871,-1.8927,-1.9209,0.0,0.0,0.0,0.0,0.0,0.0,0.0,0.0,0.0,0.0,0.0,0.0,-2.7396,-2.7457,0.0,0.0,0.0,0.0,0.0,0.0,-2.8589,-2.8597,0.0,0.0,0.0,0.0,0.0,0.0,0.0,0.0,0.0,0.0,0.0,0.0,0.0,0.0,-3.3315,-3.4055,-3.4805,-3.5459,-3.5777,0.0,0.0,-3.908,-3.9924,-4.0673,-4.0976,-4.1082,-4.114,-4.1186,0.0,0.0,-4.1758,-4.1976,-4.2345,-4.3141,-4.3636,-4.3995,-4.4316,0.0,-4.4558,0.0,0.0,0.0,0.0,0.0,0.0,0.0,0.0,0.0,0.0,0.0,0.0,-4.3598,-4.3598,-4.3598,-4.3598,-4.3598,-4.3598,-4.3598,-4.3598,-4.3598,-4.3598,-4.3598,-4.3598,-4.3598,-4.3598,-4.3598,-4.3598,-4.3598,-4.3598,0.0,-4.3598,-4.3598,-4.3598,-4.3598,-4.3598,-4.3598,-4.3598,-4.3598,-4.3598,0.0,0.0,0.0,0.0,0.0,0.0,-1.9253,-1.9526,-1.9609,-1.9637,-1.9724,-1.9831,-1.9902,-1.9757,-1.9599,-1.9446,0.0,0.0,0.0,0.0,0.0,0.0,0.0,0.0,0.0,0.0,-2.5617,-2.6253,-2.7095,0.0,0.0,0.0,0.0,0.0,0.0,-2.874,-2.8779,0.0,0.0,0.0,0.0,0.0,0.0,0.0,0.0,0.0,0.0,0.0,0.0,0.0,0.0,0.0,-3.4146,-3.4718,0.0,0.0,-3.6829,-3.8061,-3.9013,-4.0055,-4.0948,-4.1312,-4.1426,-4.1475,-4.1648,0.0,-4.1714,-4.1934,-4.2016,-4.2165,-4.2509,-4.3028,-4.3511,-4.3903,0.0,0.0,-4.4451,0.0,0.0,0.0,0.0,0.0,0.0,0.0,0.0,0.0,0.0,0.0,-4.3598,-4.3598,-4.3598,-4.3598,-4.3598,-4.3598,-4.3598,-4.3598,-4.3598,-4.3598,-4.3598,-4.3598,-4.3598,-4.3598,-4.3598,-4.3598,-4.3598,-4.3598,0.0,-4.3598,-4.3598,-4.3598,-4.3598,-4.3598,-4.3598,-4.3598,-4.3598,-4.3598,0.0,0.0,0.0,0.0,0.0,-1.8715,-1.9655,-1.9923,-2.0062,-2.0244,-2.0348,-2.0475,-2.067,-2.0468,-2.0152,-1.979,-1.9828,0.0,0.0,0.0,0.0,0.0,0.0,0.0,0.0,0.0,-2.5261,-2.5563,-2.6563,-2.7276,0.0,0.0,-2.8592,-2.8794,0.0,0.0,0.0,0.0,0.0,0.0,0.0,0.0,0.0,0.0,0.0,0.0,0.0,0.0,0.0,0.0,0.0,0.0,0.0,0.0,0.0,0.0,-3.6515,-3.758,-3.8777,-3.9928,-4.0931,-4.1512,-4.1688,-4.1754,0.0,0.0,-4.1888,-4.2061,-4.2103,-4.2103,-4.2145,-4.2715,-4.3337,-4.3816,0.0,-4.444,-4.478,0.0,0.0,0.0,0.0,0.0,0.0,0.0,0.0,0.0,0.0,0.0,-4.3598,-4.3598,-4.3598,-4.3598,-4.3598,-4.3598,-4.3598,-4.3598,-4.3598,-4.3598,-4.3598,-4.3598,-4.3598,-4.3598,-4.3598,-4.3598,-4.3598,-4.3598,0.0,-4.3598,-4.3598,-4.3598,-4.3598,-4.3598,-4.3598,-4.3598,-4.3598,-4.3598,0.0,0.0,0.0,0.0,0.0,0.0,-2.0773,-2.097,-2.0952,-2.0896,-2.0896,-2.084,-2.0706,-2.0878,-2.0889,-2.0612,-2.0225,0.0,0.0,0.0,0.0,0.0,0.0,0.0,0.0,0.0,-2.4968,-2.57,-2.57,-2.6402,-2.7695,-2.7695,-2.8108,-2.8794,0.0,0.0,0.0,0.0,0.0,0.0,0.0,0.0,0.0,0.0,0.0,0.0,0.0,0.0,0.0,0.0,0.0,0.0,0.0,0.0,0.0,0.0,-3.6066,-3.7143,-3.8286,-3.9442,-4.0552,-4.1542,-4.1902,-4.2005,0.0,0.0,-4.2009,-4.21,-4.2103,-4.2145,-4.2267,-4.2842,-4.3513,-4.42,-4.4465,0.0,-4.5058,0.0,0.0,0.0,0.0,0.0,0.0,0.0,0.0,0.0,0.0,0.0,-4.3598,-4.3598,-4.3598,-4.3598,-4.3598,-4.3598,-4.3598,-4.3598,-4.3598,-4.3598,-4.3598,-4.3598,-4.3598,-4.3598,-4.3598,-4.3598,-4.3598,-4.3598,0.0,-4.3598,-4.3598,-4.3598,-4.3598,-4.3598,-4.3598,-4.3598,-4.3598,-4.3598,0.0,0.0,0.0,0.0,0.0,0.0,0.0,-2.0997,-2.1161,-2.1592,-2.1657,-2.1782,-2.2169,-2.1924,-2.1842,-2.2084,-2.1216,0.0,0.0,0.0,0.0,0.0,0.0,0.0,0.0,0.0,-2.4307,-2.507,-2.5545,-2.6084,-2.6704,-2.7668,-2.8265,-2.8561,-2.9076,0.0,0.0,0.0,0.0,0.0,0.0,0.0,0.0,0.0,0.0,0.0,0.0,0.0,0.0,0.0,0.0,0.0,0.0,0.0,0.0,-3.5839,0.0,0.0,-3.8291,-3.9486,-4.0678,-4.1686,-4.2055,-4.2202,-4.2202,0.0,-4.2222,-4.2246,-4.2246,-4.2246,-4.2287,-4.2481,-4.2825,-4.3496,-4.3897,0.0,0.0,0.0,0.0,0.0,0.0,0.0,0.0,0.0,0.0,0.0,0.0,0.0,-4.3598,-4.3598,-4.3598,-4.3598,-4.3598,-4.3598,-4.3598,-4.3598,-4.3598,-4.3598,-4.3598,-4.3598,-4.3598,-4.3598,-4.3598,-4.3598,-4.3598,-4.3598,-4.3598,-4.3598,-4.3598,-4.3598,-4.3598,-4.3598,-4.3598,-4.3598,-4.3598,-4.3598,0.0,0.0,0.0,0.0,0.0,0.0,0.0,-2.0997,-2.1229,-2.1926,-2.2044,-2.2287,-2.2844,-2.2754,-2.2674,-2.2791,-2.2187,0.0,0.0,0.0,0.0,0.0,0.0,0.0,0.0,-2.3425,-2.4174,-2.4982,-2.5412,-2.5821,-2.6261,-2.7408,-2.8126,-2.843,-2.916,-2.9496,0.0,0.0,0.0,0.0,0.0,0.0,-2.9902,0.0,0.0,0.0,0.0,0.0,0.0,0.0,0.0,0.0,0.0,0.0,0.0,0.0,-3.6539,-3.6984,0.0,-3.9138,-4.0303,-4.1368,-4.1967,0.0,0.0,0.0,-4.2308,-4.2308,-4.2308,-4.2308,-4.2308,-4.2308,-4.2534,-4.3188,-4.3636,0.0,0.0,0.0,0.0,0.0,0.0,0.0,0.0,0.0,0.0,0.0,0.0,-4.3598,-4.3598,-4.3598,-4.3598,-4.3598,-4.3598,-4.3598,-4.3598,-4.3598,-4.3598,-4.3598,-4.3539,-4.3522,-4.3539,-4.3432,-4.3402,-4.3402,-4.3402,-4.3462,0.0,-4.3522,-4.3568,-4.3598,-4.3598,-4.3598,-4.3598,-4.3598,-4.3598,-4.3598,0.0,0.0,0.0,0.0,0.0,0.0,0.0,-2.1021,-2.1253,-2.1949,-2.2161,-2.2402,-2.2889,-2.3282,-2.3342,-2.2938,0.0,0.0,0.0,0.0,0.0,0.0,0.0,0.0,-2.2882,-2.3639,-2.4448,-2.5294,-2.5294,-2.563,-2.625,-2.7038,-2.7742,-2.8388,-2.9166,-2.9518,-2.9541,-2.9653,-2.9786,-2.9896,-2.9896,-2.9902,0.0,0.0,0.0,0.0,0.0,0.0,0.0,0.0,0.0,0.0,0.0,0.0,0.0,0.0,0.0,0.0,0.0,-3.8513,0.0,0.0,0.0,0.0,0.0,0.0,0.0,-4.2308,-4.2308,-4.2308,-4.2308,-4.2308,-4.2498,-4.3102,-4.3583,0.0,0.0,0.0,0.0,0.0,0.0,0.0,0.0,0.0,0.0,0.0,0.0,-4.3598,-4.3598,-4.3598,-4.3598,-4.3598,-4.3598,-4.3598,-4.3598,-4.3598,-4.3598,-4.3582,-4.3462,-4.3372,-4.3372,-4.3174,-4.3113,0.0,-4.3113,-4.3204,-4.3372,-4.3372,-4.3462,-4.3598,-4.3598,-4.3598,-4.3598,-4.3598,-4.3598,-4.3598,0.0,0.0,0.0,0.0,0.0,0.0,0.0,0.0,0.0,0.0,-2.2417,-2.2746,-2.3377,-2.3508,-2.3672,0.0,0.0,0.0,0.0,0.0,0.0,0.0,0.0,0.0,-2.2941,-2.3149,-2.3922,-2.5294,-2.5294,-2.5413,-2.5648,-2.6957,-2.7658,-2.793,-2.9227,-2.9808,-2.9808,-2.9852,-2.9874,-2.9896,-2.9896,-2.9924,0.0,0.0,0.0,0.0,-3.0464,-3.0609,0.0,0.0,0.0,0.0,0.0,0.0,0.0,0.0,-3.6788,-3.674,-3.7161,0.0,-3.9705,-4.0745,-4.1652,-4.2308,0.0,0.0,0.0,0.0,0.0,0.0,0.0,0.0,0.0,0.0,0.0,0.0,0.0,0.0,0.0,0.0,0.0,0.0,0.0,0.0,0.0,0.0,-4.3598,-4.3598,-4.3598,-4.3598,-4.3598,-4.3598,-4.3598,-4.3598,-4.3598,-4.3598,-4.3539,-4.3449,-4.3419,-4.3312,-4.3174,-4.3113,-4.3113,-4.3113,-4.3113,-4.3143,-4.3174,-4.3174,-4.3281,-4.3449,-4.3449,-4.3509,-4.3598,-4.3598,-4.3598,-4.3598,0.0,0.0,0.0,0.0,0.0,0.0,0.0,0.0,0.0,0.0,0.0,0.0,0.0,0.0,0.0,0.0,0.0,0.0,0.0,0.0,0.0,0.0,0.0,-2.139,-2.3064,-2.308,-2.3855,-2.5445,-2.5445,-2.5448,-2.5521,-2.6977,-2.768,-2.7769,-2.9248,-2.9896,-2.9896,-2.9896,-2.9896,-2.9902,-2.9924,0.0,0.0,0.0,0.0,0.0,-3.0651,-3.0855,0.0,-3.1078,-3.1582,-3.2421,0.0,0.0,0.0,0.0,-3.7085,-3.7007,-3.7185,-3.8351,-3.9658,-4.0326,-4.1408,-4.2308,0.0,0.0,0.0,0.0,0.0,0.0,0.0,0.0,0.0,0.0,-4.2794,0.0,0.0,0.0,0.0,0.0,0.0,0.0,0.0,0.0,0.0,0.0,-4.3598,-4.3598,-4.3598,-4.3598,-4.3598,-4.3598,-4.3598,-4.3598,-4.3598,-4.3539,-4.3462,-4.3402,-4.3221,-4.3099,-4.3007,-4.2898,-4.2867,-4.2867,-4.2867,-4.2929,-4.3007,-4.3007,-4.3099,-4.3265,-4.3265,-4.3372,-4.3509,-4.3509,-4.3539,-4.3598,0.0,0.0,0.0,0.0,0.0,0.0,0.0,0.0,0.0,0.0,0.0,0.0,0.0,0.0,0.0,0.0,0.0,0.0,0.0,0.0,0.0,0.0,0.0,-2.1618,-2.3168,-2.3314,-2.411,-2.5597,-2.5597,-2.5616,-2.5651,-2.7061,-2.7875,-2.8135,-2.9388,-2.9946,-2.9946,-2.9946,-2.9946,-2.9946,-3.0011,0.0,0.0,0.0,0.0,0.0,0.0,0.0,0.0,-3.1334,-3.1646,-3.2289,-3.3995,0.0,0.0,0.0,0.0,0.0,-3.7392,-3.8449,-3.9593,-3.9836,-4.1109,-4.2287,-4.2267,0.0,0.0,0.0,0.0,0.0,0.0,0.0,0.0,0.0,0.0,0.0,0.0,0.0,0.0,0.0,0.0,0.0,0.0,0.0,-4.3598,-4.3598,-4.3598,-4.3598,-4.3598,-4.3598,-4.3598,-4.3598,-4.3598,-4.3598,-4.3568,-4.3462,-4.3372,-4.3312,-4.3054,-4.2868,-4.2837,-4.2665,-4.2602,-4.2602,0.0,0.0,-4.2868,-4.2868,-4.2945,-4.3082,-4.3082,-4.319,-4.3342,-4.3372,-4.3462,-4.3568,0.0,0.0,0.0,0.0,0.0,0.0,0.0,0.0,0.0,0.0,0.0,0.0,0.0,0.0,0.0,0.0,0.0,0.0,0.0,0.0,0.0,-2.3532,-2.2374,-2.218,-2.3184,-2.3867,-2.4682,-2.5597,-2.5597,-2.5637,-2.5715,-2.7183,-2.8559,-2.9835,-3.0048,-3.0146,-3.0146,-3.0146,-3.0146,-3.0146,-3.0167,0.0,0.0,0.0,0.0,0.0,0.0,0.0,0.0,-3.1523,-3.214,-3.3111,-3.4298,0.0,0.0,0.0,0.0,0.0,-3.7392,-3.8565,-3.9793,-3.9875,-4.1109,-4.2267,-4.2163,0.0,0.0,0.0,0.0,0.0,0.0,0.0,0.0,0.0,0.0,0.0,0.0,0.0,0.0,0.0,0.0,0.0,0.0,0.0,-4.3598,-4.3598,-4.3598,-4.3598,-4.3598,-4.3598,-4.3598,-4.3598,-4.3598,-4.3539,-4.3432,-4.3402,-4.3267,-4.2961,-4.293,-4.2806,-4.2634,-4.2602,-4.2602,-4.2602,0.0,-4.2634,-4.2634,-4.2634,-4.2759,-4.293,-4.293,-4.3037,-4.3174,-4.3342,-4.3402,-4.3449,0.0,0.0,0.0,0.0,0.0,0.0,0.0,0.0,0.0,0.0,0.0,0.0,0.0,0.0,0.0,0.0,0.0,0.0,0.0,0.0,0.0,-2.3995,-2.3453,-2.3355,-2.3851,-2.4209,-2.4779,-2.5597,-2.5656,-2.568,-2.5733,-2.7241,-2.8756,-3.0189,-3.0189,-3.0189,-3.0189,-3.0189,-3.0189,-3.021,0.0,0.0,0.0,0.0,0.0,0.0,0.0,0.0,0.0,0.0,-3.2431,-3.349,-3.4444,0.0,0.0,0.0,0.0,0.0,-3.8019,-3.8999,-3.998,-4.043,-4.1431,-4.2267,-4.2124,0.0,0.0,0.0,0.0,0.0,0.0,0.0,0.0,0.0,0.0,0.0,0.0,0.0,0.0,0.0,0.0,0.0,0.0,-4.3598,-4.3598,-4.3598,-4.3598,-4.3598,-4.3598,-4.3598,-4.3598,-4.3598,-4.3539,-4.3402,-4.3235,-4.316,-4.3054,-4.2899,-4.2806,-4.2696,-4.2602,-4.2602,-4.2602,-4.2602,0.0,-4.2602,-4.2602,-4.2602,-4.2665,-4.2744,-4.2744,-4.2852,-4.3037,-4.3312,-4.3449,-4.3539,0.0,0.0,0.0,0.0,0.0,0.0,0.0,0.0,0.0,0.0,0.0,0.0,0.0,0.0,0.0,0.0,0.0,0.0,0.0,0.0,-2.4172,-2.4363,-2.4444,-2.4459,-2.4406,-2.4586,-2.4994,-2.5619,-2.568,-2.5901,-2.6316,-2.7541,-2.8878,-3.0274,-3.0274,-3.0274,-3.0274,-3.0274,-3.0274,-3.0274,0.0,0.0,0.0,0.0,0.0,0.0,0.0,0.0,0.0,0.0,0.0,0.0,0.0,0.0,0.0,-3.738,-3.7595,-3.7791,-3.8594,-3.9343,-4.0091,-4.0895,0.0,-4.2225,-4.2061,0.0,0.0,0.0,0.0,0.0,0.0,0.0,0.0,0.0,0.0,-4.2278,-4.3681,-4.3734,-4.3598,-4.3598,-4.3598,-4.3598,-4.3598,-4.3598,-4.3598,-4.3598,-4.3598,-4.3598,-4.3598,-4.3598,-4.3598,-4.3598,-4.3479,-4.3312,-4.3113,-4.2976,-4.2868,-4.2837,-4.2665,-4.2602,-4.2602,-4.2602,-4.2602,-4.2602,-4.2602,-4.2602,-4.2602,-4.2602,-4.2602,-4.2602,-4.2602,-4.2728,-4.2976,-4.3281,-4.3462,-4.3598,0.0,0.0,0.0,0.0,0.0,0.0,0.0,0.0,0.0,0.0,0.0,0.0,0.0,0.0,0.0,0.0,0.0,0.0,0.0,0.0,-2.4985,-2.5195,-2.5275,-2.5046,-2.4422,-2.5123,-2.5572,-2.5701,-2.5701,-2.6498,-2.8039,-2.8249,-2.9132,-3.0485,-3.0485,-3.0485,-3.0485,-3.0485,-3.0485,-3.0506,-3.063,0.0,0.0,0.0,0.0,0.0,0.0,0.0,0.0,0.0,0.0,0.0,0.0,0.0,-3.7358,-3.7558,-3.7595,-3.7791,-3.8594,-3.9343,-4.0091,-4.0895,-4.1617,0.0,-4.1866,-4.1631,0.0,-4.1186,0.0,0.0,0.0,0.0,0.0,0.0,0.0,-4.2216,-4.3681,0.0,-4.3598,-4.3598,-4.3598,-4.3598,-4.3598,-4.3598,-4.3598,-4.3598,-4.3598,-4.3598,-4.3598,-4.3598,-4.3598,-4.3598,-4.3479,-4.3312,-4.3113,-4.2976,-4.2806,-4.2634,-4.2602,-4.2602,-4.2602,-4.2602,-4.2602,-4.2602,-4.2602,-4.2602,-4.2602,-4.2602,-4.2602,-4.2602,-4.2602,-4.2805,-4.3113,-4.3312,-4.3462,-4.3598,0.0,0.0,0.0,0.0,0.0,0.0,0.0,0.0,0.0,0.0,0.0,0.0,0.0,0.0,0.0,0.0,0.0,0.0,0.0,-2.4946,-2.5127,-2.5294,-2.5375,-2.5344,-2.5218,-2.5512,-2.568,-2.5701,-2.6269,-2.7175,-2.8318,-2.8784,-2.9549,-3.0506,-3.0506,-3.0506,-3.0506,-3.0506,-3.0547,-3.063,-3.0671,-3.0814,0.0,0.0,0.0,0.0,0.0,0.0,0.0,0.0,-3.4147,-3.5155,-3.6061,-3.6988,-3.7703,-3.7667,-3.7649,-3.7917,-3.9106,-3.9619,-4.0133,-4.1333,-4.1658,0.0,0.0,-4.1408,-4.1047,-4.0697,-4.0404,0.0,0.0,0.0,0.0,0.0,0.0,-4.2012,-4.3518,-4.3658,-4.3598,-4.3598,-4.3598,-4.3598,-4.3598,-4.3598,-4.3598,-4.3598,-4.3598,-4.3552,-4.3479,-4.3479,-4.3432,-4.3295,-4.316,-4.3054,-4.2976,-4.279,-4.2665,-4.2602,-4.2602,-4.2602,-4.2602,-4.2602,-4.2602,-4.2602,-4.2602,-4.2602,-4.2602,-4.2602,-4.2602,-4.2602,-4.2744,-4.2914,-4.3113,-4.3342,-4.3462,-4.3598,0.0,0.0,0.0,0.0,0.0,0.0,0.0,0.0,0.0,0.0,0.0,0.0,0.0,0.0,0.0,0.0,0.0,0.0,-2.4862,-2.5064,-2.5204,-2.5317,-2.5435,-2.5551,-2.5701,-2.5756,-2.5793,-2.5793,-2.6714,-2.7703,-2.874,-2.9201,-2.9777,-3.0506,-3.0506,-3.0506,-3.0506,-3.0547,-3.0609,-3.0712,-3.0773,-3.0935,0.0,0.0,0.0,0.0,0.0,0.0,0.0,0.0,-3.4854,-3.5669,-3.6506,-3.7256,-3.781,-3.7703,-3.781,-3.8255,-3.9475,-3.9909,-4.0362,-4.1609,0.0,0.0,-4.1277,-4.1024,-4.0686,-4.0313,-4.0003,0.0,0.0,0.0,0.0,0.0,-4.1409,-4.191,-4.3383,-4.3598,-4.3598,-4.3598,-4.3598,-4.3598,-4.3598,-4.3598,-4.3598,-4.3598,-4.3568,-4.3509,-4.3402,-4.3342,-4.3235,-4.3096,-4.2976,-4.2899,-4.2899,-4.2696,-4.2602,-4.2602,-4.2602,-4.2602,-4.2602,-4.2602,-4.2602,-4.2602,-4.2602,-4.2602,-4.2602,-4.2602,-4.2602,-4.2634,-4.2837,-4.2976,-4.3113,-4.3342,-4.3462,-4.3598,0.0,0.0,0.0,0.0,0.0,0.0,0.0,0.0,0.0,0.0,0.0,0.0,0.0,0.0,0.0,0.0,0.0,0.0,-2.4985,-2.5197,-2.5317,-2.5413,-2.5589,-2.5701,-2.5701,-2.5901,-2.6008,-2.6008,-2.6879,-2.8028,-2.9397,-2.9397,-2.9794,-3.0506,-3.0506,-3.0506,-3.0506,-3.0651,-3.0692,-3.0712,-3.0915,-3.0995,-3.1055,0.0,0.0,0.0,0.0,0.0,0.0,0.0,-3.6238,-3.6542,-3.7345,-3.7649,-3.7685,-3.7631,-3.8073,-3.878,-3.9595,-4.0197,-4.0789,0.0,0.0,0.0,-4.07,-4.0444,-4.0263,-4.0138,0.0,-3.9501,-3.9501,0.0,0.0,-4.1177,-4.1409,-4.191,-4.3383,-4.3598,-4.3598,-4.3598,-4.3598,-4.3598,-4.3598,-4.3598,-4.3598,-4.3598,-4.3479,-4.3402,-4.3402,-4.3204,-4.3113,-4.3113,-4.2976,-4.2899,-4.2899,-4.2696,-4.2602,-4.2602,-4.2602,-4.2602,-4.2602,-4.2602,-4.2602,-4.2602,-4.2602,-4.2602,-4.2602,-4.2602,-4.2602,-4.2634,-4.2837,-4.2976,-4.3113,-4.3342,-4.3462,-4.3598,0.0,0.0,0.0,0.0,0.0,0.0,0.0,0.0,0.0,0.0,0.0,0.0,0.0,0.0,0.0,0.0,0.0,0.0,-2.5217,-2.5317,-2.5394,-2.5397,-2.5589,-2.5738,-2.5844,-2.6556,-2.6895,-2.6895,-2.7677,-2.8542,-2.9397,-2.9926,-3.029,-3.0506,-3.0506,-3.0506,-3.0506,-3.0651,-3.0753,-3.0871,-3.1072,-3.123,-3.1385,0.0,0.0,0.0,0.0,0.0,0.0,0.0,0.0,0.0,-3.7417,-3.7685,-3.7793,-3.8237,-3.8407,-3.8711,-3.989,-4.021,0.0,0.0,0.0,0.0,0.0,-4.0288,0.0,0.0,0.0,-3.9352,-3.9352,0.0,0.0,-4.1177,-4.1409,-4.191,-4.3383,-4.3598,-4.3598,-4.3598,-4.3598,-4.3598,-4.3598,-4.3598,-4.3598,-4.3598,-4.3479,-4.3342,-4.3204,-4.3037,-4.2883,-4.2743,-4.2696,-4.2696,-4.2696,-4.2634,-4.2602,-4.2602,-4.2602,-4.2602,-4.2602,-4.2602,-4.2602,-4.2602,-4.2602,-4.2602,-4.2602,-4.2602,-4.2602,-4.2634,-4.2837,-4.293,-4.2992,-4.3281,-4.3449,-4.3462,0.0,0.0,0.0,0.0,0.0,0.0,0.0,0.0,0.0,0.0,0.0,0.0,0.0,0.0,0.0,0.0,0.0,0.0,0.0,-2.5394,-2.5435,-2.553,-2.5698,-2.5993,-2.6453,-2.7011,-2.7564,-2.8125,-2.8572,-2.9152,-2.9843,-3.029,-3.0506,-3.0506,-3.0506,-3.0506,-3.051,-3.0692,-3.0831,-3.0932,-3.1154,-3.1497,-3.1925,0.0,0.0,0.0,0.0,0.0,0.0,0.0,0.0,0.0,-3.7452,0.0,-3.7774,-3.8371,-3.86,-3.8907,-3.9966,0.0,0.0,0.0,0.0,0.0,0.0,0.0,0.0,0.0,0.0,-3.9299,-3.9299,-3.9299,0.0,-4.1177,-4.1409,-4.191,-4.3383,-4.3598,-4.3598,-4.3598,-4.3598,-4.3598,-4.3598,-4.3598,-4.3598,-4.3522,-4.3372,-4.3204,-4.3021,-4.2852,-4.2728,-4.2602,-4.2602,-4.2602,-4.2602,-4.2602,-4.2602,-4.2602,-4.2602,-4.2602,-4.2602,-4.2602,-4.2602,-4.2602,-4.2602,-4.2602,-4.2602,-4.2602,-4.2602,-4.2602,-4.2728,-4.2837,-4.293,-4.319,-4.3342,-4.3402,0.0,0.0,0.0,0.0,0.0,0.0,0.0,0.0,0.0,0.0,0.0,0.0,0.0,0.0,0.0,0.0,0.0,0.0,0.0,0.0,-2.5511,-2.5701,-2.5893,-2.6401,-2.7282,-2.7415,-2.8127,-2.9397,-2.9397,-2.9777,-3.0506,-3.0506,-3.0506,-3.0506,-3.0506,-3.0506,-3.0526,-3.079,-3.0945,-3.1033,-3.1317,-3.1915,-3.269,-3.3099,0.0,0.0,0.0,0.0,0.0,0.0,0.0,0.0,-3.7449,-3.7538,-3.777,-3.8243,-3.8754,-3.929,-3.9889,0.0,0.0,0.0,0.0,0.0,0.0,0.0,0.0,0.0,0.0,-3.9299,-3.9299,-3.9299,-3.9746,-4.1094,-4.1375,-4.1877,-4.33,-4.3549,-4.3598,-4.3598,-4.3598,-4.3598,-4.3598,-4.3598,-4.3539,-4.3419,-4.3204,-4.3021,-4.2899,-4.2696,-4.2602,-4.2602,-4.2602,-4.2602,-4.2602,-4.2602,-4.2602,-4.2602,-4.2602,-4.2602,-4.2602,-4.2602,-4.2602,-4.2602,-4.2602,-4.2602,-4.2602,-4.2602,-4.2602,-4.2602,-4.2602,-4.2696,-4.2899,-4.3052,-4.3204,-4.3402,0.0,0.0,0.0,0.0,0.0,0.0,0.0,0.0,0.0,0.0,0.0,0.0,0.0,0.0,0.0,0.0,0.0,0.0,0.0,0.0,-2.5645,-2.5701,-2.6424,-2.7003,-2.7282,-2.8373,-2.9102,-2.9397,-2.9397,-2.9777,-3.0506,-3.0506,-3.0506,-3.0506,-3.0506,-3.0506,-3.0526,-3.079,-3.1227,-3.1804,-3.2275,-3.2992,-3.3795,-3.42,-3.4935,0.0,0.0,0.0,0.0,0.0,0.0,0.0,-3.7448,-3.7781,-3.8321,-3.8789,-3.9303,-3.9829,0.0,-4.0324,0.0,0.0,0.0,0.0,0.0,0.0,0.0,0.0,-3.9299,-3.9299,-3.9299,-3.9299,-3.9597,-4.0464,-4.1061,-4.1695,-4.2605,-4.3234,-4.3598,-4.3598,-4.3598,-4.3598,-4.3598,-4.3492,-4.3432,-4.3402,-4.3099,-4.293,-4.2899,-4.2696,-4.2602,-4.2602,-4.2602,-4.2602,-4.2602,-4.2602,-4.2602,-4.2602,-4.2602,-4.2602,-4.2602,-4.2602,-4.2602,-4.2602,-4.2602,-4.2602,-4.2602,-4.2602,-4.2602,-4.2602,-4.2602,-4.2634,-4.2696,-4.299,-4.3143,-4.3204,0.0,0.0,0.0,0.0,0.0,0.0,0.0,0.0,0.0,0.0,0.0,0.0,0.0,0.0,0.0,0.0,0.0,0.0,0.0,0.0,-2.5903,-2.6337,-2.69,-2.7538,-2.829,-2.9019,-2.9562,-2.9926,-2.9926,-3.0125,-3.0506,-3.0506,-3.0506,-3.0506,-3.0506,-3.0688,-3.1035,-3.1245,-3.1784,-3.2571,-3.3016,-3.3719,-3.4527,-3.4927,-3.563,-3.6412,-3.6582,0.0,0.0,0.0,0.0,0.0,0.0,0.0,-3.8618,-3.9477,-3.9853,-4.0071,0.0,0.0,0.0,0.0,0.0,0.0,0.0,0.0,0.0,0.0,-3.9299,-3.9299,-3.9299,-3.9299,-3.9547,-4.0293,-4.068,-4.1293,-4.234,-4.282,-4.3201,-4.3549,-4.3598,-4.3568,-4.3492,-4.3432,-4.3312,-4.316,-4.2992,-4.2868,-4.2759,-4.2665,-4.2602,-4.2602,-4.2602,-4.2602,-4.2602,-4.2602,-4.2602,-4.2602,-4.2602,-4.2602,-4.2602,-4.2602,-4.2602,-4.2602,-4.2602,-4.2602,-4.2602,-4.2602,-4.2602,-4.2602,-4.2602,-4.2665,-4.2759,-4.3021,-4.3174,-4.3281,0.0,0.0,0.0,0.0,0.0,0.0,0.0,0.0,0.0,0.0,0.0,0.0,0.0,0.0,0.0,0.0,0.0,0.0,0.0,0.0,0.0,-2.71,-2.7474,-2.8207,-2.9363,-2.9512,-2.9877,-3.0506,-3.0506,-3.0506,-3.0506,-3.0506,-3.0572,-3.0688,-3.0688,-3.1101,-3.1802,-3.1926,-3.2467,-3.3282,-3.3647,-3.432,-3.5116,-3.5529,-3.609,-3.6705,-3.6869,-3.7018,-3.7123,-3.7204,0.0,0.0,0.0,0.0,-3.902,-4.0021,-4.0276,-4.029,0.0,0.0,0.0,0.0,0.0,0.0,0.0,0.0,0.0,0.0,-3.9299,-3.9299,-3.9299,-3.9299,-3.9497,-4.0111,-4.0326,-4.0796,-4.1988,-4.234,-4.2721,-4.3333,-4.3515,-4.3539,-4.3402,-4.3342,-4.3207,-4.293,-4.2868,-4.2775,-4.2602,-4.2602,-4.2602,-4.2602,-4.2602,-4.2602,-4.2602,-4.2602,-4.2602,-4.2602,-4.2602,-4.2602,-4.2602,-4.2602,-4.2602,-4.2602,-4.2602,-4.2602,-4.2602,-4.2602,-4.2602,-4.2602,-4.2634,-4.2728,-4.293,-4.3082,-4.3281,-4.3402,0.0,0.0,0.0,0.0,0.0,0.0,0.0,0.0,0.0,0.0,0.0,0.0,0.0,0.0,0.0,0.0,0.0,0.0,-2.5701,0.0,0.0,-2.7263,-2.8456,-2.9218,-2.9397,-3.0026,-3.0406,-3.0506,-3.0506,0.0,0.0,0.0,0.0,-3.1449,-3.1449,-3.1868,-3.2569,-3.2691,-3.319,-3.3907,-3.437,-3.5053,-3.5814,-3.6226,-3.6481,-3.6612,-3.6652,-3.7053,-3.7631,-3.7755,-3.8313,0.0,0.0,0.0,-4.0122,-4.0003,-4.036,-4.0685,0.0,0.0,0.0,0.0,0.0,0.0,0.0,0.0,0.0,0.0,-3.9299,-3.9299,-3.9299,-3.9299,-3.9332,-3.9431,-3.9978,-4.0475,-4.0658,-4.174,-4.2522,-4.2638,-4.3112,-4.3402,-4.3402,-4.3146,-4.2961,-4.2899,-4.2744,-4.2634,-4.2602,-4.2602,-4.2602,-4.2602,-4.2602,-4.2602,-4.2602,-4.2602,-4.2602,-4.2602,-4.2602,-4.2602,-4.2602,-4.2602,-4.2602,-4.2602,-4.2602,-4.2602,-4.2602,-4.2602,-4.2602,-4.2634,-4.279,-4.2868,-4.293,-4.3267,-4.3372,-4.3402,0.0,0.0,0.0,0.0,0.0,0.0,0.0,0.0,0.0,0.0,0.0,0.0,0.0,0.0,0.0,-2.5659,-2.5682,-2.5919,-2.6438,-2.7347,-2.802,-2.8456,-2.9069,-2.9579,-3.0009,-3.0323,-3.0506,-3.0506,0.0,0.0,0.0,-3.1553,-3.1702,0.0,0.0,-3.263,-3.3332,-3.3394,-3.3854,-3.4628,-3.4925,-3.5273,-3.5711,-3.6442,-3.6701,-3.6713,-3.7207,-3.7545,-3.7797,-3.7993,-3.8372,-3.8868,-3.9539,0.0,0.0,0.0,-4.1028,0.0,-4.0468,0.0,0.0,0.0,0.0,0.0,0.0,0.0,0.0,0.0,-3.9299,-3.9299,-3.9299,-3.9299,-3.9299,-3.9299,-3.9564,-3.9928,-4.0343,-4.0928,-4.143,-4.1741,-4.2014,-4.2094,-4.195,-4.1817,-4.168,-4.1557,-4.1466,-4.1436,-4.1436,-4.1436,-4.1614,-4.2019,-4.2035,-4.2229,-4.2602,-4.2229,-4.184,-4.1436,-4.1436,-4.1436,-4.1436,-4.1436,-4.1842,-4.2602,-4.2602,-4.2602,-4.2602,-4.2602,-4.2602,-4.2602,-4.2696,-4.2608,-4.2416,-4.2567,-4.2453,-4.2299,0.0,0.0,0.0,0.0,0.0,0.0,0.0,0.0,0.0,0.0,0.0,0.0,0.0,0.0,0.0,0.0,-2.6015,-2.6435,-2.7363,-2.8202,-2.887,-2.9383,-2.9579,-2.9926,-3.0489,-3.0688,-3.0787,-3.0787,0.0,0.0,-3.1896,-3.263,-3.268,0.0,-3.2729,-3.3375,0.0,0.0,-3.4456,-3.5065,-3.5198,-3.5392,-3.5685,-3.6472,-3.6834,-3.7,-3.7645,-3.7942,-3.8029,-3.8326,-3.8611,-3.9037,-3.9951,-4.0323,0.0,0.0,0.0,0.0,0.0,0.0,0.0,0.0,0.0,0.0,0.0,0.0,0.0,0.0,-3.9299,-3.9299,-3.9299,-3.9299,-3.9299,-3.9299,-3.9299,-3.9497,-4.0044,-4.0222,-4.0481,-4.088,-4.1025,-4.1012,-4.0828,-4.0753,-4.0648,-4.0526,-4.0496,-4.0496,-4.0496,-4.0496,-4.0739,-4.1304,-4.132,-4.1549,-4.2052,-4.1565,-4.1031,-4.0496,-4.0496,-4.0496,-4.0496,-4.0496,-4.1079,-4.2052,-4.2052,-4.2052,-4.2052,-4.2052,-4.2052,-4.2052,-4.213,-4.1973,-4.1753,-4.1766,-4.1642,-4.1409,0.0,0.0,0.0,0.0,0.0,0.0,0.0,0.0,0.0,0.0,0.0,0.0,-2.5597,-2.5597,-2.5913,-2.6678,-2.6855,-2.732,-2.8274,-2.8969,-2.9347,-2.9397,-3.0075,0.0,-3.0506,-3.1184,-3.1548,0.0,0.0,0.0,-3.2669,-3.3392,-3.3707,-3.3673,-3.3746,-3.4137,-3.4833,0.0,0.0,-3.4923,-3.5058,-3.5545,-3.6178,-3.6372,-3.6848,-3.7467,-3.7518,-3.797,-3.8589,-3.8863,-3.9493,-4.026,-4.058,-4.0652,-4.0693,0.0,0.0,0.0,0.0,0.0,0.0,0.0,0.0,0.0,0.0,0.0,0.0,0.0,-3.9299,-3.9299,-3.9299,-3.9299,-3.9299,-3.9299,-3.9299,-3.9315,-3.9348,-3.9781,-4.0143,-4.0148,-4.0561,-4.0828,-4.0798,-4.0648,-4.0526,-4.0496,-4.0496,-4.0496,-4.0496,-4.0496,-4.0513,-4.0545,-4.0545,-4.0561,-4.061,-4.0561,-4.0529,-4.0496,-4.0496,-4.0496,-4.0496,-4.0496,-4.0529,-4.061,-4.061,-4.061,-4.061,-4.061,-4.061,-4.064,-4.0837,-4.0952,-4.1078,-4.119,-4.13,-4.1409,0.0,0.0,0.0,0.0,0.0,0.0,0.0,0.0,0.0,0.0,0.0,0.0,0.0,-2.6312,-2.6649,-2.749,-2.8158,-2.8675,-2.9019,-2.9694,-3.0108,-3.0108,-3.0803,-3.0986,-3.0506,-3.1217,-3.1598,0.0,0.0,-3.295,-3.3408,-3.4154,-3.4502,-3.4502,-3.4502,-3.4651,-3.4899,-3.4899,0.0,0.0,0.0,0.0,0.0,0.0,0.0,0.0,0.0,0.0,-3.9075,-3.9257,-3.9605,-3.9961,-4.0238,-4.0362,-4.0478,0.0,0.0,0.0,0.0,0.0,0.0,0.0,0.0,0.0,0.0,0.0,0.0,0.0,-3.9299,-3.9299,-3.9299,-3.9299,-3.9299,-3.9299,-3.9299,-3.9299,-3.9299,-3.9352,-3.9364,-3.9281,-3.9331,-3.9341,-3.9255,-3.9181,-3.9153,-3.9153,-3.9153,-3.9153,-3.9153,-3.9153,-3.9363,-3.9862,-3.9878,-3.9878,-3.9878,-3.9878,-3.9606,-3.9153,-3.9153,-3.9153,-3.9153,-3.9153,-3.9153,-3.9153,-3.9153,-3.9654,-4.0496,-4.0496,-4.0496,-4.0526,-4.0572,-4.0473,-4.0279,-4.0364,-4.0237,-4.0034,0.0,0.0,0.0,0.0,0.0,0.0,0.0,0.0,0.0,0.0,0.0,0.0,0.0,0.0,-2.7396,-2.8257,-2.9145,-2.9679,-2.9736,-3.0431,-3.0849,-3.087,-3.1565,-3.173,-3.1255,-3.1946,-3.2326,0.0,0.0,0.0,0.0,-3.4667,-3.5032,-3.5263,-3.5263,-3.5263,0.0,0.0,0.0,-3.6373,0.0,0.0,-3.7533,0.0,0.0,0.0,0.0,0.0,-3.9325,-3.9432,-3.9563,-3.9677,-3.991,-4.0037,0.0,0.0,0.0,0.0,-4.0205,0.0,0.0,0.0,0.0,0.0,0.0,0.0,0.0,0.0,-3.9299,-3.9299,-3.9299,-3.9299,-3.9299,-3.9299,-3.9299,-3.9272,-3.9202,-3.904,-3.8887,-3.8766,-3.86,-3.8504,-3.8408,-3.8391,-3.8391,-3.8391,-3.8391,0.0,-3.8391,-3.8391,-3.8618,-3.9104,-3.912,-3.912,-3.912,-3.912,-3.8877,-3.8391,-3.8391,-3.8391,-3.8391,-3.8391,-3.8391,-3.8391,-3.8391,-3.8926,-3.98,-3.98,-3.98,-3.98,-3.98,-3.9695,-3.9526,-3.9526,-3.9397,-3.9175,0.0,0.0,0.0,0.0,0.0,0.0,0.0,0.0,0.0,-2.6636,0.0,0.0,0.0,0.0,0.0,-2.9007,-2.9798,-3.0318,-3.0446,-3.1122,-3.1561,-3.1631,-3.2332,-3.2718,-3.2702,-3.3408,-3.3789,0.0,0.0,0.0,0.0,0.0,-3.533,-3.6025,-3.6025,-3.6042,-3.6059,0.0,-3.6456,-3.7135,0.0,-3.7582,-3.8219,0.0,0.0,0.0,-3.9299,-3.9299,0.0,-3.9432,0.0,0.0,0.0,0.0,0.0,0.0,0.0,0.0,0.0,0.0,0.0,0.0,0.0,0.0,0.0,0.0,0.0,0.0,-3.9299,-3.9299,-3.9299,-3.9299,-3.9299,-3.9299,-3.9299,-3.9202,-3.9023,-3.8887,-3.8766,-3.8616,-3.8476,-3.8391,-3.8391,-3.8391,-3.8391,-3.8391,-3.8391,-3.8391,-3.8391,-3.8391,-3.8391,-3.8391,-3.8391,-3.8391,-3.8391,-3.8391,-3.8391,-3.8391,-3.8391,-3.8391,-3.8391,-3.8391,-3.8391,-3.8391,-3.8391,-3.8391,-3.8391,-3.8391,-3.8391,-3.8391,-3.8391,-3.8572,-3.8805,-3.8805,-3.8887,-3.8996,0.0,0.0,0.0,0.0,0.0,0.0,0.0,0.0,0.0,0.0,0.0,0.0,-2.8417,-2.9486,-3.025,-3.0505,-3.1252,-3.1773,-3.1907,-3.2127,-3.2271,-3.2398,-3.3094,-3.3265,-3.2718,-3.3408,-3.3789,0.0,0.0,0.0,0.0,0.0,0.0,0.0,-3.6804,-3.7102,-3.7566,-3.7036,0.0,-3.7914,-3.7914,-3.8344,0.0,0.0,0.0,0.0,0.0,-3.9299,-3.9299,0.0,-3.9369,-3.9379,0.0,0.0,0.0,0.0,0.0,0.0,-3.9616,0.0,0.0,0.0,0.0,0.0,0.0,0.0,0.0,-3.9299,-3.9299,-3.9299,-3.9299,-3.9299,-3.9299,-3.9299,-3.9175,-3.905,-3.8996,-3.8794,-3.8644,-3.8588,-3.8476,-3.8391,-3.8391,-3.8391,-3.8391,0.0,-3.8391,-3.8391,-3.8391,-3.8391,-3.8391,-3.8391,-3.8391,-3.8391,-3.8391,-3.8391,-3.8391,-3.8391,-3.8391,-3.8391,-3.8391,-3.8391,-3.8391,-3.8391,-3.8391,-3.8391,-3.8391,-3.8391,-3.8391,-3.8391,-3.8391,-3.8572,-3.8805,-3.8805,-3.8887,-3.8996,0.0,0.0,0.0,0.0,0.0,0.0,0.0,0.0,0.0,0.0,0.0,0.0,-3.002,-3.0946,-3.1472,-3.1472,-3.1899,-3.222,-3.2357,-3.2636,-3.2853,-3.2984,-3.3763,-3.3968,-3.3538,-3.4015,-3.4402,0.0,0.0,0.0,0.0,0.0,0.0,0.0,0.0,0.0,0.0,0.0,0.0,0.0,-3.8659,0.0,0.0,-3.9175,-3.9148,0.0,0.0,0.0,-3.9094,-3.9094,-3.9094,0.0,0.0,0.0,0.0,0.0,0.0,0.0,0.0,0.0,0.0,0.0,0.0,0.0,-4.0166,-4.0166,-4.0166,0.0,-3.9962,-3.9763,-3.9763,-3.9514,-3.9299,-3.9299,-3.9094,-3.8914,-3.8914,-3.8738,-3.856,-3.8504,-3.8464,-3.8391,-3.8391,-3.8391,-3.8391,-3.8391,-3.8391,-3.8391,-3.8391,-3.8391,-3.8391,-3.8391,-3.8391,-3.8391,-3.8391,-3.8391,-3.8391,-3.8391,-3.8391,-3.8391,-3.8391,-3.8391,-3.8391,-3.8391,-3.8391,-3.8391,-3.8391,-3.8391,-3.8391,-3.8391,-3.8391,-3.8532,-3.8711,-3.8711,-3.8766,-3.8821,0.0,0.0,0.0,0.0,0.0,0.0,0.0,0.0,0.0,0.0,-2.9686,-3.0609,-3.1866,-3.2077,-3.2125,-3.2125,-3.2206,-3.2286,-3.2427,-3.3078,-3.3501,-3.3645,-3.4471,-3.4914,-3.4914,-3.5035,-3.5414,0.0,0.0,0.0,0.0,0.0,0.0,0.0,0.0,0.0,0.0,0.0,0.0,-3.9361,-3.9305,-3.9148,0.0,0.0,-3.8964,-3.8919,-3.8919,-3.8969,-3.9051,-3.9051,-3.9051,0.0,0.0,0.0,0.0,0.0,-4.09,0.0,0.0,0.0,0.0,0.0,0.0,0.0,-4.1409,-4.1409,-4.1409,-4.1409,-4.0928,-4.0525,-4.0525,-3.9912,-3.9415,-3.9388,-3.9062,-3.8805,-3.8805,-3.8655,-3.8532,-3.8391,-3.8391,-3.8391,-3.8391,-3.8391,-3.8391,-3.8391,-3.8391,-3.8391,-3.8391,-3.8391,-3.8391,-3.8391,-3.8391,-3.8391,-3.8391,-3.8391,-3.8391,-3.8391,-3.8391,-3.8391,-3.8391,-3.8391,-3.8391,-3.8391,-3.8391,-3.8391,-3.8391,-3.8391,-3.8391,-3.8391,-3.8436,-3.8504,-3.8616,-3.8616,-3.8616,-3.8616,-2.6131,0.0,0.0,0.0,0.0,0.0,0.0,0.0,0.0,0.0,-3.1137,-3.1688,-3.1979,-3.253,-3.2886,-3.2886,-3.3372,-3.3745,-3.3893,-3.4561,-3.5043,-3.5168,-3.5849,-3.6226,-3.6226,-3.6252,-3.6343,-3.6465,0.0,0.0,0.0,0.0,0.0,0.0,0.0,0.0,0.0,0.0,0.0,-3.9752,-3.9243,0.0,-3.8832,-3.8832,-3.9193,-3.9689,-3.9689,-4.0082,-4.0578,-4.0578,-4.0578,-4.0578,0.0,0.0,0.0,-4.0988,0.0,0.0,0.0,0.0,0.0,0.0,-4.1409,0.0,-4.1409,-4.1409,-4.1409,0.0,-4.1309,-4.121,-4.121,-4.0647,-4.0122,-3.9968,-3.9309,-3.8805,-3.8805,-3.86,-3.8436,-3.8391,-3.8391,-3.8391,-3.8391,-3.8391,-3.8391,-3.8391,-3.8391,-3.8391,-3.8391,-3.8391,-3.8391,-3.8391,-3.8391,-3.8391,-3.8391,-3.8391,-3.8391,-3.8391,-3.8391,-3.8391,-3.8391,-3.8391,-3.8391,-3.8391,-3.8391,-3.8391,-3.8391,-3.8391,-3.8391,-3.8391,-3.8504,-3.8628,-3.875,-3.875,-3.875,-3.8766,-2.6804,0.0,0.0,0.0,0.0,0.0,0.0,0.0,0.0,0.0,0.0,-3.2676,-3.3016,-3.3696,-3.4158,-3.4158,-3.4781,-3.5228,-3.5305,-3.5646,-3.5867,-3.5945,-3.6307,-3.6512,-3.6512,-3.6574,-3.679,-3.7167,0.0,0.0,0.0,0.0,0.0,0.0,0.0,0.0,0.0,0.0,-3.9502,-3.9773,-3.9521,0.0,-3.9744,-3.9744,-3.9944,-4.0196,-4.0196,-4.044,-4.0766,-4.0766,-4.0766,0.0,-4.0825,-4.1099,-4.1422,0.0,-4.1946,-4.2331,0.0,0.0,0.0,-4.2489,-4.2489,0.0,0.0,-4.2489,-4.2489,-4.2489,-4.2191,-4.1943,-4.1943,0.0,-4.0337,-4.0127,-3.9363,-3.8777,-3.8711,-3.8532,-3.8391,-3.8391,-3.8391,-3.8391,-3.8391,-3.8391,-3.8391,-3.8391,-3.8391,-3.8391,-3.8391,-3.8391,-3.8391,-3.8391,-3.8391,-3.8391,-3.8391,-3.8391,-3.8391,-3.8391,-3.8391,-3.8391,-3.8391,-3.8391,-3.8391,-3.8391,-3.8391,-3.8391,-3.8391,-3.8391,-3.8391,-3.8391,-3.8548,-3.8588,-3.86,-3.8683,-3.8655,-3.86,-2.7696,0.0,0.0,0.0,0.0,0.0,0.0,0.0,0.0,0.0,0.0,0.0,0.0,0.0,0.0,-3.5422,-3.5963,-3.6303,-3.6303,-3.6432,-3.6497,-3.6497,-3.6675,-3.6793,-3.6793,-3.6894,-3.7224,-3.7839,0.0,0.0,0.0,0.0,0.0,0.0,0.0,0.0,0.0,0.0,0.0,-4.0085,0.0,-4.0401,-4.0674,-4.0674,-4.0696,-4.0723,-4.0853,-4.0901,-4.0901,-4.0901,-4.0901,-4.0931,-4.1021,-4.1488,0.0,0.0,0.0,0.0,0.0,0.0,0.0,0.0,0.0,-4.3568,0.0,0.0,0.0,-4.3598,-4.3118,0.0,0.0,0.0,0.0,0.0,0.0,0.0,0.0,-3.8613,0.0,-3.8408,-3.8391,-3.8391,-3.8391,-3.8391,-3.8391,-3.8391,-3.8391,-3.8391,-3.8391,-3.8391,-3.8391,-3.8391,-3.8391,-3.8391,-3.8391,-3.8391,-3.8391,-3.8391,-3.8391,-3.8391,-3.8391,-3.8391,-3.8391,-3.8391,-3.8391,-3.8391,-3.8391,-3.8391,-3.8391,-3.8391,-3.8548,-3.8532,-3.8448,-3.856,-3.8532,-3.842,-3.0045,-3.0201,0.0,0.0,0.0,0.0,0.0,0.0,0.0,0.0,0.0,0.0,0.0,0.0,0.0,0.0,-3.6254,-3.6303,-3.6303,-3.6869,-3.7182,-3.7182,-3.7809,-3.8177,-3.8177,-3.8177,-3.8253,-3.8334,-3.8334,0.0,0.0,0.0,0.0,0.0,-3.9129,0.0,0.0,0.0,-4.0799,0.0,-4.1383,-4.1059,0.0,-4.0526,-4.0915,-4.1563,-4.2164,-4.236,-4.236,0.0,-4.236,-4.236,0.0,-4.2439,-4.2552,-4.2738,0.0,0.0,0.0,0.0,0.0,0.0,-4.3295,0.0,-4.3402,0.0,-4.3598,-4.3598,0.0,0.0,0.0,0.0,0.0,0.0,0.0,0.0,-3.9601,-3.9103,-3.8683,-3.842,-3.8391,-3.8391,-3.8391,-3.8391,-3.8391,-3.8391,-3.8391,-3.8391,-3.8391,-3.8391,-3.8391,-3.8391,-3.8391,-3.8391,-3.8391,-3.8391,-3.8391,-3.8391,-3.8391,-3.8391,-3.8391,-3.8391,-3.8391,-3.8391,-3.8391,-3.8391,-3.8391,-3.8391,-3.8391,-3.8391,-3.8548,-3.8588,-3.856,-3.8588,-3.8588,-3.856,-3.0934,-3.1166,0.0,0.0,0.0,0.0,0.0,0.0,0.0,0.0,0.0,0.0,0.0,0.0,0.0,0.0,0.0,-3.7517,-3.7517,-3.7792,0.0,-3.7954,-3.823,-3.8391,-3.8391,-3.8391,-3.8391,-3.8391,-3.8391,0.0,0.0,0.0,0.0,0.0,-3.9752,0.0,-4.0124,0.0,-4.132,0.0,0.0,0.0,0.0,-4.1727,-4.1921,-4.2229,-4.2489,-4.2602,-4.2602,0.0,-4.2602,0.0,0.0,0.0,0.0,-4.2696,0.0,0.0,0.0,0.0,0.0,0.0,0.0,0.0,-4.3235,0.0,-4.3325,0.0,0.0,0.0,0.0,0.0,0.0,0.0,-4.1412,0.0,0.0,0.0,-3.9184,0.0,0.0,0.0,-3.8408,-3.8391,-3.8391,-3.8391,-3.8391,-3.8391,-3.8391,-3.8391,-3.8391,-3.8391,-3.8391,-3.8391,-3.8391,-3.8391,-3.8391,-3.8391,-3.8391,-3.8391,-3.8391,-3.8391,-3.8391,-3.8391,-3.8391,-3.8391,-3.8391,-3.8391,-3.8391,-3.8408,-3.8448,-3.8476,-3.8476,-3.856,-3.8532,-3.8492,-3.2048,0.0,0.0,0.0,0.0,0.0,0.0,0.0,0.0,0.0,0.0,0.0,-3.6853,-3.7323,0.0,0.0,-3.81,-3.8391,-3.8391,-3.8391,-3.8489,-3.8683,-3.8699,-3.878,-3.8974,-3.8974,-3.8974,-3.8974,-3.8974,0.0,0.0,0.0,0.0,0.0,0.0,-4.0788,-4.0867,0.0,-4.1857,-4.1905,-4.2392,-4.2602,-4.2602,-4.2602,-4.2602,-4.2602,-4.2602,-4.2602,-4.2602,-4.2602,-4.2602,0.0,-4.2602,-4.2602,-4.2602,0.0,0.0,0.0,-4.2837,0.0,0.0,0.0,0.0,0.0,0.0,0.0,0.0,0.0,0.0,0.0,0.0,0.0,0.0,0.0,0.0,-4.1523,0.0,0.0,0.0,0.0,0.0,0.0,0.0,-3.842,-3.8391,-3.8391,-3.8391,-3.8391,-3.8391,-3.8391,-3.8391,-3.8391,-3.8391,-3.8391,-3.8391,-3.8391,-3.8391,-3.8391,-3.8391,-3.8391,-3.8391,-3.8391,-3.8391,-3.8391,-3.8391,-3.8391,-3.8391,-3.8391,-3.8391,-3.8391,-3.8391,-3.8391,-3.8391,-3.852,-3.8476,-3.8391,-3.3997,-3.3489,0.0,0.0,0.0,0.0,0.0,0.0,0.0,0.0,0.0,0.0,0.0,0.0,0.0,0.0,-3.8391,-3.8391,-3.8391,-3.8391,-3.8715,-3.9441,-3.9473,-3.9781,-4.0415,-4.0432,-4.0432,-4.0432,-4.0432,0.0,0.0,0.0,0.0,0.0,0.0,-4.1563,-4.1612,-4.2294,-4.257,-4.257,-4.2586,-4.2602,-4.2602,0.0,-4.2602,-4.2602,-4.2602,0.0,0.0,-4.2602,-4.2602,0.0,0.0,0.0,0.0,0.0,0.0,0.0,0.0,0.0,0.0,-4.2634,0.0,0.0,0.0,0.0,-4.3113,0.0,0.0,0.0,0.0,0.0,0.0,0.0,0.0,0.0,0.0,0.0,0.0,0.0,0.0,0.0,0.0,-3.8492,-3.8391,-3.8391,-3.8391,-3.8391,-3.8391,-3.8391,-3.8391,-3.8391,-3.8391,-3.8391,-3.8391,-3.8391,-3.8391,-3.8391,-3.8391,-3.8391,-3.8391,-3.8391,-3.8391,-3.8391,-3.8391,-3.8391,-3.8391,-3.8391,-3.8391,-3.8391,-3.8391,-3.8391,-3.8391,-3.8391,-3.8391,-3.8391,0.0,0.0,0.0,0.0,0.0,0.0,0.0,-3.6939,0.0,0.0,-3.8035,0.0,0.0,-3.8391,-3.8391,-3.8391,-3.8391,-3.8545,-3.8898,-3.893,-3.9194,-3.9812,-3.9845,-3.9957,-4.0151,-4.0319,-4.0379,-4.0379,-4.0453,0.0,0.0,0.0,0.0,0.0,0.0,-4.2278,0.0,0.0,0.0,0.0,0.0,-4.2602,-4.2602,0.0,-4.2602,-4.2602,-4.2602,-4.2602,0.0,-4.2602,-4.2602,-4.2602,-4.2602,-4.2602,-4.2602,-4.2602,-4.2602,-4.2602,0.0,0.0,-4.2602,-4.2602,0.0,0.0,0.0,0.0,0.0,0.0,0.0,0.0,0.0,0.0,0.0,0.0,0.0,0.0,0.0,0.0,0.0,0.0,0.0,0.0,0.0,0.0,0.0,-3.8408,-3.8391,-3.8391,-3.8391,-3.8391,-3.8391,-3.8391,-3.8391,-3.8391,-3.8391,-3.8391,-3.8391,-3.8391,-3.8391,-3.8391,-3.8391,-3.8391,-3.8391,-3.8391,-3.8391,-3.8391,-3.8391,-3.8391,-3.8391,-3.8391,-3.8391,-3.8391,-3.8391,-3.8391,-3.8391,-3.8391,-3.5568,0.0,0.0,0.0,0.0,0.0,0.0,0.0,0.0,0.0,-3.825,0.0,-3.8323,0.0,-3.8707,0.0,-3.9007,-3.9289,-3.958,-3.9583,-3.9798,-4.0273,-4.0274,-4.0354,-4.0546,-4.0766,-4.0891,-4.0937,-4.1105,-4.1197,0.0,0.0,0.0,0.0,0.0,-4.2602,-4.2602,0.0,-4.2602,0.0,0.0,-4.2602,0.0,0.0,-4.2602,-4.2602,0.0,-4.2602,-4.2602,-4.2602,-4.2602,-4.2602,-4.2602,-4.2602,-4.2602,-4.2602,-4.2602,-4.2602,-4.2602,-4.2602,0.0,-4.2602,-4.2602,0.0,-4.2602,0.0,-4.2634,0.0,0.0,0.0,0.0,0.0,0.0,0.0,0.0,0.0,0.0,-4.2373,0.0,0.0,0.0,0.0,0.0,0.0,-3.8476,-3.8408,-3.8391,-3.8391,0.0,-3.8391,-3.8391,-3.8391,-3.8391,-3.8391,-3.8391,-3.8391,-3.8391,-3.8391,-3.8391,-3.8391,-3.8391,-3.8391,-3.8391,-3.8391,-3.8391,-3.8391,-3.8391,-3.8391,-3.8391,-3.8391,-3.8391,-3.8391,-3.8391,-3.8391,-3.8391,-3.8391,-3.6039,0.0,0.0,0.0,-3.6798,0.0,0.0,0.0,-3.8196,0.0,-3.8069,-3.8027,-3.8277,-3.8856,-3.9317,-3.9496,-4.0094,-4.0423,-4.0323,-4.0293,-4.0428,-4.0753,-4.0785,-4.1038,-4.154,-4.1752,-4.1915,-4.2077,0.0,0.0,0.0,0.0,0.0,0.0,-4.2602,0.0,-4.2602,-4.2602,-4.2602,-4.2602,-4.2602,-4.2602,-4.2602,-4.2602,-4.2602,-4.2602,-4.2602,-4.2602,-4.2602,-4.2602,-4.2602,-4.2602,-4.2602,-4.2602,-4.2602,-4.2602,-4.2602,-4.2602,-4.2602,-4.2602,-4.2602,-4.2602,-4.2602,0.0,0.0,0.0,-4.2602,0.0,0.0,0.0,0.0,0.0,0.0,0.0,0.0,0.0,0.0,0.0,0.0,0.0,0.0,0.0,0.0,-3.8544,-3.8408,-3.8391,-3.8391,0.0,0.0,-3.8391,-3.8391,-3.8391,-3.8391,-3.8391,-3.8391,-3.8391,-3.8391,-3.8391,-3.8391,-3.8391,-3.8391,-3.8391,-3.8391,-3.8391,-3.8391,-3.8391,-3.8391,-3.8391,-3.8391,-3.8391,-3.8391,-3.8391,-3.8391,-3.8391,-3.8391,-3.8391,-3.646,-3.7062,-3.7658,0.0,-3.8103,-3.804,0.0,0.0,0.0,0.0,-3.8629,-3.876,-3.9454,-3.9569,-3.9634,-3.9865,-3.9902,0.0,0.0,-4.018,-4.0236,-4.0557,-4.0603,-4.0647,-4.0783,-4.1223,-4.1456,-4.1522,-4.2109,0.0,-4.2445,0.0,0.0,0.0,0.0,0.0,-4.2602,-4.2602,-4.2602,-4.2602,-4.2602,-4.2602,-4.2602,0.0,-4.2602,-4.2602,-4.2602,-4.2602,-4.2602,-4.2602,-4.2602,-4.2602,-4.2602,-4.2602,-4.2602,-4.2602,-4.2602,-4.2602,-4.2602,-4.2602,-4.2602,-4.2602,-4.2602,-4.2602,0.0,0.0,0.0,0.0,0.0,0.0,0.0,0.0,0.0,0.0,0.0,0.0,0.0,0.0,0.0,-4.1045,0.0,0.0,0.0,-3.8588,-3.852,-3.8408,-3.8391,0.0,0.0,0.0,-3.8391,-3.8391,-3.8391,-3.8391,-3.8391,-3.8391,-3.8391,-3.8391,-3.8391,-3.8391,-3.8391,-3.8391,-3.8391,-3.8391,-3.8391,-3.8391,-3.8391,-3.8391,-3.8391,-3.8391,-3.8391,-3.8391,-3.8391,-3.8391,-3.8391,-3.8391,-3.6593,-3.7515,0.0,-3.8994,0.0,0.0,-3.8681,-3.8501,0.0,-3.8825,-3.867,0.0,-3.9361,-3.9677,-3.9897,-3.9977,-4.023,0.0,-4.0511,0.0,-4.0229,-4.025,-4.0176,-4.0106,-4.0021,-4.0459,-4.0802,-4.1088,-4.172,0.0,-4.2413,0.0,0.0,0.0,0.0,-4.2602,0.0,-4.2602,-4.2602,-4.2602,-4.2602,-4.2602,0.0,-4.2602,-4.2602,-4.2602,-4.2602,-4.2602,-4.2602,-4.2602,-4.2602,-4.2602,-4.2602,-4.2602,-4.2602,-4.2602,-4.2602,-4.2602,-4.2602,-4.2602,-4.2602,-4.2602,-4.2602,-4.2602,-4.2602,-4.2602,-4.2602,0.0,-4.2602,-4.2602,0.0,0.0,0.0,0.0,0.0,0.0,0.0,0.0,0.0,0.0,-4.0791,0.0,-3.9085,-3.8699,-3.8476,-3.8408,-3.8391,0.0,0.0,0.0,-3.8391,-3.8391,-3.8391,-3.8391,-3.8391,-3.8391,-3.8391,-3.8391,-3.8391,-3.8391,-3.8391,-3.8391,-3.8391,-3.8391,-3.8391,-3.8391,-3.8391,-3.8391,-3.8391,-3.8391,-3.8391,-3.8391,-3.8391,-3.8391,-3.8391,-3.8391,-3.6598,0.0,0.0,0.0,0.0,0.0,0.0,-3.9025,0.0,-3.8731,0.0,-3.8532,-3.8805,-3.951,-3.9967,-3.9951,-4.0629,-4.0904,-4.0593,-4.0355,-4.006,-3.9687,-3.9559,-3.9415,-3.9256,-3.9615,-4.0091,-4.0646,-4.129,0.0,0.0,0.0,0.0,0.0,0.0,0.0,0.0,-4.2523,-4.2523,-4.2523,-4.2523,-4.2539,-4.2571,-4.2571,-4.2602,-4.2602,-4.2602,-4.2602,-4.2602,-4.2602,-4.2602,-4.2602,-4.2602,-4.2602,-4.2602,-4.2602,-4.2602,-4.2602,-4.2602,-4.2602,-4.2602,-4.2602,-4.2602,-4.2602,-4.2602,-4.2602,-4.2602,-4.2602,-4.2602,-4.2602,-4.2602,0.0,0.0,0.0,0.0,0.0,0.0,0.0,0.0,0.0,0.0,0.0,0.0,0.0,0.0,0.0,0.0,0.0,0.0,0.0,-3.8391,-3.8391,-3.8391,-3.8391,-3.8391,-3.8391,-3.8391,-3.8391,-3.8391,-3.8391,-3.8391,-3.8391,-3.8391,-3.8391,-3.8391,-3.8391,-3.8391,-3.8391,-3.8391,-3.8391,-3.8391,-3.8391,-3.8391,-3.8391,-3.8391,-3.8391,-3.7024,0.0,0.0,0.0,0.0,-3.8681,-3.9073,-3.8493,-3.8199,-3.8793,-3.8682,-3.8776,-3.937,-3.9622,-3.9733,-3.9667,-3.9652,0.0,0.0,0.0,0.0,-3.8501,-3.8501,-3.8464,-3.8412,-3.9111,-3.958,-3.9814,0.0,0.0,0.0,0.0,0.0,0.0,0.0,0.0,-4.2174,-4.2174,0.0,-4.2174,-4.2174,-4.227,-4.2445,-4.2445,-4.2508,-4.2602,-4.2602,-4.2602,-4.2602,-4.2602,-4.2602,-4.2602,-4.2602,-4.2602,-4.2602,-4.2602,-4.2602,-4.2602,-4.2602,-4.2602,-4.2602,-4.2602,-4.2602,-4.2602,-4.2602,-4.2602,-4.2602,-4.2602,-4.2602,-4.2602,-4.2602,0.0,0.0,0.0,0.0,0.0,0.0,0.0,0.0,0.0,0.0,-4.1292,0.0,0.0,0.0,0.0,0.0,0.0,0.0,0.0,-3.8391,0.0,-3.8391,0.0,0.0,0.0,-3.8391,-3.8391,-3.8391,-3.8391,-3.8391,-3.8391,-3.8391,-3.8391,-3.8391,-3.8391,-3.8391,-3.8391,-3.8391,-3.8391,-3.8391,-3.8391,-3.8391,-3.8391,-3.8391,-3.8391,-3.7145,0.0,0.0,0.0,0.0,0.0,0.0,-3.8018,-3.7906,-3.8447,-3.8455,-3.8537,-3.8848,-3.9017,-3.9017,-3.8877,-3.8877,-3.8819,-3.8649,-3.8352,-3.8165,-3.8037,-3.7938,-3.7877,-3.7877,-3.8449,-3.8965,-3.9328,0.0,0.0,0.0,0.0,0.0,0.0,0.0,-4.2029,0.0,0.0,0.0,-4.2012,-4.2012,-4.2093,-4.2238,-4.2238,-4.2349,-4.2508,-4.2508,-4.2539,-4.2602,-4.2602,-4.2602,-4.2602,-4.2602,-4.2602,-4.2602,-4.2602,-4.2602,-4.2602,-4.2602,-4.2602,-4.2602,-4.2602,-4.2602,-4.2602,-4.2602,-4.2602,-4.2602,-4.2602,-4.2602,-4.2602,-4.2602,-4.2602,0.0,0.0,0.0,0.0,0.0,0.0,-4.2691,0.0,0.0,0.0,0.0,0.0,0.0,0.0,0.0,0.0,0.0,0.0,-3.8391,0.0,0.0,0.0,-3.8391,0.0,-3.8391,-3.8391,-3.8391,-3.8391,-3.8391,-3.8391,-3.8391,-3.8391,-3.8391,-3.8391,-3.8391,-3.8391,-3.8391,-3.8391,-3.8391,-3.8391,-3.8391,-3.8391,-3.8391,-3.8391,0.0,-3.7765,0.0,0.0,-3.8127,-3.7938,-3.781,-3.7596,-3.761,-3.8014,-3.8052,-3.8066,-3.8014,-3.8179,-3.8217,-3.8014,-3.8127,-3.8179,-3.8014,-3.781,-3.7696,-3.7696,-3.7558,-3.7457,-3.7457,-3.7877,-3.8352,0.0,0.0,0.0,0.0,0.0,0.0,0.0,0.0,0.0,0.0,0.0,-4.1357,-4.1554,-4.1587,-4.1736,-4.1948,-4.198,-4.2142,-4.2413,-4.2413,-4.2476,-4.2602,-4.2602,-4.2602,-4.2602,-4.2602,-4.2602,-4.2602,-4.2602,-4.2602,-4.2602,-4.2602,-4.2602,-4.2602,-4.2602,-4.2602,-4.2602,-4.2602,-4.2602,-4.2602,-4.2602,-4.2602,-4.2602,-4.2602,-4.2602,0.0,0.0,0.0,0.0,0.0,0.0,0.0,0.0,0.0,0.0,-4.1792,0.0,0.0,0.0,0.0,0.0,-3.8845,0.0,0.0,0.0,0.0,-3.8845,-3.8845,0.0,-3.8845,-3.8845,-3.8845,-3.8764,-3.8634,-3.8634,-3.8537,-3.8391,-3.8391,-3.8391,-3.8391,-3.8391,-3.8391,-3.8391,-3.8391,-3.8391,-3.8391,-3.8391,-3.8391,-3.8391,0.0,0.0,0.0,0.0,0.0,-3.738,-3.738,-3.7187,-3.7187,-3.761,-3.7649,-3.7572,-3.7419,-3.7572,-3.761,-3.7419,-3.7419,-3.7419,-3.738,-3.7211,-3.7095,-3.7095,-3.707,-3.707,-3.707,-3.7457,-3.7953,0.0,0.0,-4.0359,0.0,0.0,0.0,0.0,0.0,0.0,0.0,-4.015,-4.02,-4.0389,-4.0562,-4.0938,-4.1374,-4.1588,-4.1948,-4.2413,-4.2413,-4.2476,-4.2602,-4.2602,-4.2602,-4.2602,-4.2602,-4.2602,-4.2602,-4.2602,-4.2602,-4.2602,-4.2602,-4.2602,-4.2602,-4.2602,-4.2602,-4.2602,-4.2602,-4.2602,-4.2602,-4.2602,-4.2602,-4.2602,-4.2602,-4.2602,-4.2602,0.0,0.0,0.0,0.0,0.0,-4.2602,-4.2602,0.0,0.0,-4.2505,-4.1889,0.0,0.0,-4.0737,0.0,0.0,0.0,0.0,-4.0286,-4.0286,-4.0286,-4.0286,-4.0286,-4.0286,-4.0286,-4.0286,-3.9978,-3.9408,-3.9408,-3.9023,-3.8391,-3.8391,-3.8391,-3.8391,-3.8391,-3.8391,-3.8391,-3.8391,-3.8391,-3.8391,-3.8391,-3.8391,-3.8391,0.0,0.0,0.0,0.0,0.0,0.0,0.0,-3.707,-3.707,-3.7226,-3.7226,-3.7226,-3.7148,-3.7187,-3.7226,-3.7148,-3.7109,-3.7109,-3.7109,-3.7017,-3.6978,-3.6978,-3.6978,-3.6978,-3.6978,-3.7264,-3.7649,0.0,0.0,0.0,0.0,0.0,0.0,0.0,0.0,-3.9621,-3.9349,-3.9277,-3.9406,-3.9692,-4.001,-4.0478,-4.1021,-4.1323,-4.1753,-4.2206,-4.2206,-4.2365,-4.2602,-4.2602,-4.2602,-4.2602,-4.2602,-4.2602,-4.2602,-4.2602,-4.2602,-4.2602,-4.2602,-4.2602,-4.2602,-4.2602,-4.2602,-4.2602,-4.2602,-4.2602,-4.2602,-4.2602,-4.2602,-4.2602,-4.2602,-4.2602,-4.2602,-4.2602,0.0,0.0,0.0,0.0,0.0,-4.2602,0.0,-4.2602,0.0,-4.2344,0.0,0.0,0.0,0.0,0.0,0.0,0.0,-4.0496,0.0,-4.0496,-4.0496,-4.0496,-4.0496,-4.0496,-4.0496,-4.0351,-4.0075,-3.97,-3.9116,-3.8391,-3.8391,-3.8391,-3.8391,-3.8391,-3.8391,-3.8391,-3.8391,-3.8391,-3.8391,-3.8391,-3.8391,-3.8391,-3.6978,0.0,-3.6978,0.0,-3.6978,-3.6978,-3.6978,-3.6978,-3.6978,-3.6978,-3.6978,-3.6978,-3.6978,-3.6978,-3.6978,-3.6978,-3.6978,-3.6978,-3.6978,-3.6978,-3.6978,-3.6978,-3.6978,0.0,-3.6978,-3.7148,-3.7404,-3.7825,-3.8501,0.0,0.0,0.0,0.0,0.0,-3.9066,-3.8752,-3.8523,-3.8449,-3.8657,-3.8994,-3.9391,-3.9955,-4.0578,-4.0919,-4.1423,-4.1948,-4.1948,-4.2206,-4.2539,-4.2539,-4.2571,-4.2602,-4.2602,-4.2602,-4.2602,-4.2602,-4.2602,-4.2602,-4.2602,-4.2602,-4.2602,-4.2602,-4.2602,-4.2602,-4.2602,-4.2602,-4.2602,-4.2602,-4.2602,-4.2602,-4.2602,-4.2602,-4.2602,-4.2602,0.0,0.0,0.0,-4.2602,0.0,-4.2602,-4.2602,-4.2602,-4.2602,-4.2602,0.0,0.0,0.0,0.0,0.0,0.0,0.0,0.0,0.0,0.0,-4.1128,-4.1128,-4.1128,-4.1128,-4.1128,-4.1015,-4.0772,-3.991,-3.9116,-3.8391,-3.8391,-3.8391,-3.8391,-3.8391,-3.8391,-3.8391,-3.8391,-3.8391,-3.8391,-3.8391,-3.8391,-3.8391,-3.6978,-3.6978,-3.6978,-3.6978,-3.6978,-3.6978,-3.6978,-3.6978,-3.6978,-3.6978,-3.6978,-3.6978,-3.6978,-3.6978,-3.6978,-3.6978,-3.6978,-3.6978,-3.6978,-3.6978,-3.6978,0.0,0.0,-3.6978,-3.6978,-3.6978,-3.7187,-3.7625,0.0,0.0,-3.9104,0.0,-3.8885,-3.8478,-3.8089,-3.7924,-3.7886,-3.7687,-3.7839,-3.824,-3.8634,-3.9256,-3.995,-4.0351,-4.0953,-4.1621,-4.1621,-4.1948,-4.2413,-4.2413,-4.2508,-4.2602,-4.2602,-4.2602,-4.2602,-4.2602,-4.2602,-4.2602,-4.2602,-4.2602,-4.2602,-4.2602,-4.2602,-4.2602,-4.2602,-4.2602,-4.2602,-4.2602,-4.2602,-4.2602,-4.2602,-4.2602,-4.2602,-4.2602,0.0,0.0,0.0,-4.2602,0.0,-4.2602,-4.2602,-4.2602,-4.2602,-4.2602,0.0,0.0,0.0,0.0,0.0,0.0,0.0,-4.257,-4.257,0.0,-4.257,-4.257,-4.257,-4.257,-4.257,-4.2229,-4.1547,-4.0154,-3.9116,-3.8391,-3.8391,-3.8391,-3.8391,-3.8391,-3.8391,-3.8391,-3.8391,-3.8391,-3.8391,-3.8391,-3.8391,-3.8391,-3.6978,-3.6978,-3.6978,-3.6978,-3.6978,-3.6978,-3.6978,-3.6978,-3.6978,-3.6978,-3.6978,-3.6978,-3.6978,-3.6978,-3.6978,0.0,-3.6978,-3.6978,0.0,-3.6978,-3.6978,-3.6978,-3.6978,-3.6978,-3.6978,-3.6978,-3.7148,-3.738,0.0,0.0,0.0,-3.8352,-3.8127,-3.7877,-3.761,-3.7404,-3.7289,-3.7211,-3.7327,-3.7634,-3.8165,-3.8797,-3.9415,-3.9915,-4.0474,-4.1055,-4.1189,-4.1522,-4.1899,-4.2012,-4.2141,-4.227,-4.227,-4.2413,-4.2602,-4.2602,-4.2602,-4.2602,-4.2602,-4.2602,-4.2602,-4.2602,-4.2602,-4.2602,-4.2602,-4.2602,-4.2602,-4.2602,-4.2602,-4.2602,-4.2602,-4.2602,-4.2602,-4.2602,-4.2602,0.0,-4.2602,0.0,-4.2602,-4.2602,-4.2602,-4.2602,-4.2602,-4.2602,0.0,0.0,0.0,0.0,0.0,0.0,0.0,0.0,-4.2602,0.0,-4.2602,-4.2602,-4.2602,-4.2602,-4.2602,-4.2002,-4.082,-4.0397,-3.9525,-3.8391,-3.8391,-3.8391,-3.8391,-3.8391,-3.8391,-3.8391,-3.8391,-3.8391,-3.8391,-3.8391,-3.8391,-3.8391,-3.6978,-3.6978,-3.6978,-3.6978,-3.6978,-3.6978,-3.6978,-3.6978,-3.6978,-3.6978,-3.6978,-3.6978,-3.6978,-3.6978,0.0,-3.6978,-3.6978,-3.6978,-3.6978,-3.6978,-3.6978,-3.6978,-3.6978,-3.6978,-3.6978,-3.6978,0.0,-3.7187,-3.738,-3.761,-3.7863,-3.7734,-3.7558,-3.738,-3.7226,-3.7109,-3.6978,-3.6978,-3.7109,-3.7341,-3.7787,-3.8277,-3.8797,-3.9235,-3.9722,-4.0235,-4.0374,-4.0752,-4.1207,-4.1406,-4.1637,-4.1818,-4.1883,-4.2045,-4.227,-4.2476,-4.2539,-4.2539,-4.2539,-4.2539,-4.2508,-4.2445,-4.2476,-4.2539,-4.2602,-4.2602,-4.2602,-4.2602,-4.2602,-4.2602,-4.2602,-4.2602,-4.2602,-4.2602,-4.2602,-4.2602,-4.2602,0.0,-4.2602,0.0,0.0,0.0,0.0,-4.2602,-4.2602,0.0,0.0,0.0,0.0,0.0,-4.2602,-4.2602,-4.2602,-4.2602,-4.2602,-4.2602,-4.2602,-4.2602,-4.2602,-4.1842,-4.0496,-4.0496,-3.9719,-3.8391,-3.8391,-3.8391,-3.8391,-3.8391,-3.8391,-3.8391,-3.8391,-3.8391,-3.8391,-3.8391,-3.8391,-3.8391,-3.6978,-3.6978,-3.6978,-3.6978,-3.6978,-3.6978,-3.6978,-3.6978,-3.6978,-3.6978,-3.6978,-3.6978,-3.6978,-3.6978,-3.6978,-3.6978,0.0,0.0,-3.6978,-3.6978,-3.6978,-3.6978,-3.6978,-3.6978,-3.6978,-3.6978,-3.6978,-3.6978,-3.7187,-3.7264,-3.7264,-3.7264,-3.7187,-3.6978,-3.6978,-3.6978,-3.6978,-3.6978,-3.7109,-3.7303,-3.7495,-3.7801,-3.8165,-3.8366,-3.8782,-3.9247,-3.9247,-3.9748,-4.0443,-4.0646,-4.0919,-4.1241,-4.1456,-4.1507,-4.1621,-4.2174,-4.2349,-4.2349,-4.2349,-4.2349,-4.2318,-4.2109,-4.2222,-4.2381,-4.2508,-4.2571,-4.2602,-4.2602,-4.2602,-4.2602,-4.2602,-4.2602,-4.2602,-4.2602,-4.2602,-4.2602,-4.2602,-4.2602,-4.2602,0.0,0.0,0.0,-4.2602,-4.2602,-4.2602,0.0,0.0,0.0,0.0,0.0,-4.2602,-4.2602,-4.2602,-4.2602,-4.2602,-4.2602,-4.2602,-4.2602,-4.2602,-4.1842,-4.0496,-4.0496,-3.9719,-3.8391,-3.8391,-3.8391,-3.8391,-3.8391,-3.8391,-3.8391,-3.8391,-3.8391,-3.8391,-3.8391,-3.8391,-3.8391,0.0,0.0,-3.6978,-3.6978,-3.6978,-3.6978,-3.6978,-3.6978,-3.6978,-3.6978,-3.6978,-3.6978,-3.6978,-3.6978,-3.6978,-3.6978,-3.6978,-3.6978,-3.6978,-3.6978,-3.6978,-3.6978,-3.6978,-3.6978,-3.6978,-3.6978,-3.6978,-3.6978,-3.707,-3.707,-3.707,-3.707,-3.707,-3.6978,-3.6978,-3.6978,-3.6978,-3.6978,-3.7017,-3.7109,-3.7303,-3.7534,-3.7763,-3.7976,-3.8225,-3.8486,-3.8634,-3.9017,-3.9436,-3.9621,-3.9889,-4.0255,-4.0478,-4.0512,-4.0699,-4.154,-4.1785,-4.1785,-4.1785,-4.1785,-4.1785,-4.172,-4.1866,-4.2028,-4.2061,-4.2254,-4.2445,-4.2445,-4.2539,-4.2602,-4.2602,-4.2602,-4.2602,-4.2602,-4.2602,-4.2602,-4.2602,-4.2602,-4.2602,0.0,-4.2602,-4.2602,-4.2602,-4.2602,-4.2602,0.0,0.0,0.0,-4.2602,-4.2602,-4.2602,-4.2602,-4.2602,-4.2602,-4.2602,-4.2602,-4.2602,-4.2602,-4.2602,-4.1842,-4.0496,-4.0496,-3.9719,-3.8391,-3.8391,-3.8391,-3.8391,-3.8391,-3.8391,-3.8391,-3.8391,-3.8391,-3.8391,-3.8391,-3.8391,-3.8391,-3.6978,-3.6978,-3.6978,-3.6978,-3.6978,-3.6978,-3.6978,-3.6978,-3.6978,-3.6978,-3.6978,-3.6978,-3.6978,-3.6978,-3.6978,-3.6978,-3.6978,-3.6978,-3.6978,-3.6978,-3.6978,-3.6978,-3.6978,-3.6978,-3.6978,-3.6978,-3.6978,-3.6978,-3.6978,-3.6978,-3.6978,-3.6978,-3.6978,-3.6978,-3.6978,-3.6978,-3.6978,-3.6978,-3.6978,-3.7017,-3.7109,-3.7226,-3.7341,-3.7443,-3.7634,-3.7787,-3.7901,-3.8202,-3.8575,-3.873,-3.9009,-3.9313,-3.9615,-3.9687,-3.9829,-4.0409,-4.0904,-4.1223,-4.1223,-4.1223,-4.1223,-4.1223,-4.1305,-4.1454,-4.1587,-4.1834,-4.2077,-4.2254,-4.2381,-4.2539,-4.2602,-4.2602,-4.2602,-4.2602,-4.2602,-4.2602,-4.2602,-4.2602,-4.2602,-4.2602,-4.2602,-4.2602,-4.2602,-4.2602,-4.2602,-4.2602,-4.2602,0.0,-4.2602,-4.2602,-4.2602,-4.2602,-4.2602,-4.2602,-4.2602,-4.2602,-4.2602,-4.2602,-4.2602,-4.1842,-4.0496,-4.0496,-3.9719,-3.8391,-3.8391,-3.8391,-3.8391,-3.8391,-3.8391,-3.8391,-3.8391,-3.8391,-3.8391,-3.8391,-3.8391,-3.8391,-3.6978,-3.6978,-3.6978,-3.6978,-3.6978,-3.6978,-3.6978,-3.6978,-3.6978,-3.6978,-3.6978,-3.6978,-3.6978,-3.6978,-3.6978,-3.6978,-3.6978,-3.6978,-3.6978,-3.6978,-3.6978,-3.6978,-3.6978,-3.6978,-3.6978,-3.6978,-3.6978,-3.6978,-3.6978,-3.6978,-3.6978,-3.6978,-3.6978,-3.6978,-3.6978,-3.6978,-3.6978,-3.6978,-3.6978,-3.6978,-3.6978,-3.6978,-3.6978,-3.6978,-3.7109,-3.7264,-3.7264,-3.7481,-3.7848,-3.8014,-3.8217,-3.8441,-3.8797,-3.8922,-3.8943,-3.9162,-3.9793,-4.0439,-4.0558,-4.0578,-4.0578,-4.0578,-4.0612,-4.0715,-4.1021,-4.1323,-4.1621,-4.1948,-4.2206,-4.2445,-4.2571,-4.2602,-4.2602,-4.2602,-4.2602,-4.2602,-4.2602,0.0,-4.2602,-4.2602,-4.2602,-4.2602,-4.2602,-4.2602,-4.2602,-4.2602,-4.2602,-4.2602,-4.2602,-4.2602,-4.2602,-4.2602,-4.2602,-4.2602,-4.2602,-4.2602,-4.2602,-4.2602,-4.2602,-4.1842,-4.0496,-4.0496,-3.9719,-3.8391,-3.8391,-3.8391,-3.8391,-3.8391,-3.8391,-3.8391,-3.8391,-3.8391,-3.8391,-3.8391,-3.8391,-3.8391,-3.6978,-3.6978,-3.6978,-3.6978,-3.6978,-3.6978,-3.6978,-3.6978,-3.6978,-3.6978,-3.6978,-3.6978,-3.6978,-3.6978,-3.6978,-3.6978,-3.6978,-3.6978,-3.6978,-3.6978,-3.6978,-3.6978,-3.6978,-3.6978,-3.6978,-3.6978,-3.6978,-3.6978,-3.6978,-3.6978,-3.6978,-3.6978,-3.6978,-3.6978,-3.6978,-3.6978,-3.6978,-3.6978,-3.6978,-3.6978,-3.6978,-3.6978,-3.6978,-3.6978,-3.7017,-3.707,-3.707,-3.7187,-3.7419,-3.7419,-3.7572,-3.7763,-3.8,-3.8075,-3.8113,-3.8337,-3.8486,-3.8745,-3.9436,-3.9631,-3.9631,-3.9631,-3.9737,-3.993,-4.0091,-4.0615,-4.1209,-4.1588,-4.2045,-4.2445,-4.2571,-4.2602,-4.2602,-4.2602,-4.2602,-4.2602,-4.2602,0.0,-4.2602,-4.2602,-4.2602,-4.2602,-4.2602,-4.2602,-4.2602,-4.2602,-4.2602,-4.2602,-4.2602,-4.2602,-4.2602,-4.2602,-4.2602,-4.2602,-4.2602,-4.2602,-4.2602,-4.2602,-4.2602,-4.1842,-4.0496,-4.0496,-3.9719,-3.8391,-3.8391,-3.8391,-3.8391,-3.8391,-3.8391,-3.8391,-3.8391,-3.8391,-3.8391,-3.8391,-3.8391,-3.8363,-3.6978,-3.6978,-3.6978,-3.6978,-3.6978,-3.6978,-3.6978,-3.6978,-3.6978,-3.6978,-3.6978,-3.6978,-3.6978,-3.6978,-3.6978,-3.6978,-3.6978,-3.6978,-3.6978,-3.6978,-3.6978,-3.6978,-3.6978,-3.6978,-3.6978,-3.6978,-3.6978,-3.6978,-3.6978,-3.6978,-3.6978,-3.6978,-3.6978,-3.6978,-3.6978,-3.6978,-3.6978,-3.6978,-3.6978,-3.6978,-3.6978,-3.6978,-3.6978,-3.6978,-3.6978,-3.6978,-3.6978,-3.707,-3.7148,-3.7148,-3.7187,-3.7303,-3.7519,-3.7596,-3.7634,-3.7839,-3.8104,-3.8427,-3.8797,-3.898,-3.9075,-3.9075,-3.9162,-3.9271,-3.9574,-4.0111,-4.0718,-4.1307,-4.1883,-4.2302,-4.2571,-4.2602,-4.2602,-4.2602,-4.2602,-4.2602,-4.2602,-4.2602,-4.2602,-4.2602,-4.2602,-4.2602,-4.2602,-4.2602,-4.2602,-4.2602,-4.2602,-4.2602,-4.2602,-4.2602,-4.2602,-4.2602,-4.2602,-4.2602,-4.2602,-4.2602,-4.2602,-4.2602,-4.2602,-4.1842,-4.0496,-4.0496,-3.9719,-3.8391,-3.8391,-3.8391,-3.8391,-3.8391,-3.8391,-3.8391,-3.8391,-3.8391,-3.8391,-3.8391,-3.8335,-3.825,-3.6978,-3.6978,-3.6978,-3.6978,-3.6978,-3.6978,-3.6978,-3.6978,-3.6978,-3.6978,-3.6978,-3.6978,-3.6978,-3.6978,-3.6978,-3.6978,-3.6978,-3.6978,-3.6978,-3.6978,-3.6978,-3.6978,-3.6978,-3.6978,-3.6978,-3.6978,-3.6978,-3.6978,-3.6978,-3.6978,-3.6978,-3.6978,-3.6978,-3.6978,-3.6978,-3.6978,-3.6978,-3.6978,-3.6978,-3.6978,-3.6978,-3.6978,-3.6978,-3.6978,-3.6978,-3.6978,-3.6978,-3.6978,-3.6978,-3.6978,-3.6978,-3.7017,-3.7187,-3.7226,-3.7264,-3.7419,-3.7839,-3.8254,-3.8344,-3.8464,-3.8612,-3.8723,-3.8723,-3.8833,-3.9301,-3.9809,-4.0424,-4.114,-4.172,-4.2206,-4.2539,-4.2602,-4.2602,-4.2602,0.0,-4.2602,-4.2602,-4.2602,-4.2602,-4.2602,-4.2602,-4.2602,-4.2602,-4.2602,-4.2602,-4.2602,-4.2602,-4.2602,-4.2602,-4.2602,-4.2602,-4.2602,-4.2602,-4.2602,-4.2602,-4.2602,-4.2602,-4.2602,-4.2602,-4.1842,-4.0496,-4.0496,-3.9719,-3.8391,-3.8391,-3.8391,-3.8391,-3.8391,-3.8391,-3.8391,-3.8391,-3.8391,-3.8391,-3.8391,-3.8323,-3.8164,-3.6978,-3.6978,-3.6978,-3.6978,-3.6978,-3.6978,-3.6978,-3.6978,-3.6978,-3.6978,-3.6978,-3.6978,-3.6978,-3.6978,-3.6978,-3.6978,-3.6978,-3.6978,-3.6978,-3.6978,-3.6978,-3.6978,-3.6978,-3.6978,-3.6978,-3.6978,-3.6978,-3.6978,-3.6978,-3.6978,-3.6978,-3.6978,-3.6978,-3.6978,-3.6978,-3.6978,-3.6978,-3.6978,-3.6978,-3.6978,-3.6978,-3.6978,-3.6978,-3.6978,-3.6978,-3.6978,-3.6978,-3.6978,-3.6978,-3.6978,-3.6978,-3.6978,-3.7017,-3.7017,-3.7017,-3.7017,-3.7226,-3.7457,-3.7853,-3.7967,-3.8043,-3.8441,-3.8516,-3.8664,-3.928,-3.9809,-4.0424,-4.114,-4.172,-4.2206,-4.2539,-4.2602,-4.2602,-4.2602,0.0,0.0,-4.2602,-4.2602,-4.2602,-4.2602,-4.2602,-4.2602,-4.2602,-4.2602,-4.2602,-4.2602,-4.2602,-4.2602,-4.2602,-4.2602,-4.2602,-4.2602,-4.2602,-4.2602,-4.2602,-4.2602,-4.2602,-4.2602,-4.2602,-4.1842,-4.0496,-4.0496,-3.9719,-3.8391,-3.8391,-3.8391,-3.8391,-3.8391,-3.8391,-3.8391,-3.8391,-3.8391,-3.8391,-3.8391,-3.8323,-3.8135,-3.6978,-3.6978,-3.6978,-3.6978,-3.6978,-3.6978,-3.6978,-3.6978,-3.6978,-3.6978,-3.6978,-3.6978,-3.6978,-3.6978,-3.6978,-3.6978,-3.6978,-3.6978,-3.6978,-3.6978,-3.6978,-3.6978,-3.6978,-3.6978,-3.6978,-3.6978,-3.6978,-3.6978,-3.6978,-3.6978,-3.6978,-3.6978,-3.6978,-3.6978,-3.6978,-3.6978,-3.6978,-3.6978,-3.6978,-3.6978,-3.6978,-3.6978,-3.6978,-3.6978,-3.6978,-3.6978,-3.6978,-3.6978,-3.6978,-3.6978,-3.6978,-3.6978,-3.6978,-3.6978,-3.6978,-3.6978,-3.707,-3.7187,-3.7625,-3.7815,-3.8005,-3.8404,-3.8478,-3.8627,-3.9104,-3.9631,-4.0181,-4.0684,-4.1241,-4.172,-4.2109,-4.2174,-4.2238,-4.2445,0.0,-4.2508,-4.2602,-4.2602,-4.2602,-4.2602,-4.2602,-4.2602,-4.2602,-4.2602,-4.2602,-4.2602,-4.2602,-4.2602,-4.2602,-4.2602,-4.2602,-4.2602,-4.2602,-4.2602,-4.2602,-4.2602,-4.2602,-4.2602,-4.2602,-4.1842,-4.0496,-4.0496,-3.9719,-3.8391,-3.8391,-3.8391,-3.8391,-3.8391,-3.8391,-3.8391,-3.8391,-3.8391,-3.8391,-3.8391,-3.8164,-3.7817,-3.6978,-3.6978,-3.6978,-3.6978,-3.6978,-3.6978,-3.6978,-3.6978,-3.6978,-3.6978,-3.6978,-3.6978,-3.6978,-3.6978,-3.6978,-3.6978,-3.6978,-3.6978,-3.6978,-3.6978,-3.6978,-3.6978,-3.6978,-3.6978,-3.6978,-3.6978,-3.6978,-3.6978,-3.6978,-3.6978,-3.6978,-3.6978,-3.6978,-3.6978,-3.6978,-3.6978,-3.6978,-3.6978,-3.6978,-3.6978,-3.6978,-3.6978,-3.6978,-3.6978,-3.6978,-3.6978,-3.6978,-3.6978,-3.6978,-3.6978,-3.6978,-3.6978,-3.6978,-3.6978,-3.6978,-3.6978,-3.6978,-3.7109,-3.7495,-3.7701,-3.7929,-3.8478,-3.8575,-3.8738,-3.9177,-3.961,-4.0021,-4.0409,-4.0836,-4.1223,-4.1571,-4.1686,-4.1784,-4.2029,-4.2158,-4.227,-4.2349,-4.2476,-4.2539,-4.2539,-4.2571,-4.2602,-4.2602,-4.2602,-4.2602,-4.2602,-4.2602,-4.2602,-4.2602,-4.2602,-4.2602,-4.2602,-4.2602,-4.2602,-4.2602,-4.2602,-4.2602,-4.2602,-4.2602,-4.1842,-4.0496,-4.0496,-3.9719,-3.8391,-3.8391,-3.8391,-3.8391,-3.8391,-3.8391,-3.8391,-3.8391,-3.8391,-3.8391,-3.8391,-3.8107,-3.7642,-3.6978,-3.6978,-3.6978,-3.6978,-3.6978,-3.6978,-3.6978,-3.6978,-3.6978,-3.6978,-3.6978,-3.6978,-3.6978,-3.6978,-3.6978,-3.6978,-3.6978,-3.6978,-3.6978,-3.6978,-3.6978,-3.6978,-3.6978,-3.6978,-3.6978,-3.6978,-3.6978,-3.6978,-3.6978,-3.6978,-3.6978,-3.6978,-3.6978,-3.6978,-3.6978,-3.6978,-3.6978,-3.6978,-3.6978,-3.6978,-3.6978,-3.6978,-3.6978,-3.6978,-3.6978,-3.6978,-3.6978,-3.6978,-3.6978,-3.6978,-3.6978,-3.6978,-3.6978,-3.6978,-3.6978,-3.6978,-3.6978,-3.7109,-3.7495,-3.7625,-3.7801,-3.8612,-3.8782,-3.8929,-3.9574,-3.9839,-4.0101,-4.0424,-4.0631,-4.0817,-4.0974,-4.1158,-4.129,-4.129,-4.1653,-4.1898,-4.1898,-4.2174,-4.2413,-4.2413,-4.2508,-4.2602,-4.2602,-4.2602,-4.2602,-4.2602,-4.2602,-4.2602,-4.2602,-4.2602,-4.2602,-4.2602,-4.2602,-4.2602,-4.2602,-4.2602,-4.2602,-4.2602,-4.2602,-4.1842,-4.0496,-4.0496,-3.9719,-3.8391,-3.8391,-3.8391,-3.8391,-3.8391,-3.8391,-3.8391,-3.8391,-3.8391,-3.8391,-3.8391,-3.8107,-3.7612,-3.6978,-3.6978,-3.6978,-3.6978,-3.6978,-3.6978,-3.6978,-3.6978,-3.6978,-3.6978,-3.6978,-3.6978,-3.6978,-3.6978,-3.6978,-3.6978,-3.6978,-3.6978,-3.6978,-3.6978,-3.6978,-3.6978,-3.6978,-3.6978,-3.6978,-3.6978,-3.6978,-3.6978,-3.6978,-3.6978,-3.6978,-3.6978,-3.6978,-3.6978,-3.6978,-3.6978,-3.6978,-3.6978,-3.6978,-3.6978,-3.6978,-3.6978,-3.6978,-3.6978,-3.6978,-3.6978,-3.6978,-3.6978,-3.6978,-3.6978,-3.6978,-3.6978,-3.6978,-3.6978,-3.6978,-3.6978,-3.6978,-3.7109,-3.7495,-3.7625,-3.7763,-3.8441,-3.859,-3.8649,-3.9017,-3.9213,-3.9394,-3.9487,-3.9702,-3.9864,-4.0041,-4.0216,-4.0424,-4.0684,-4.1088,-4.1406,-4.167,-4.1996,-4.2238,-4.2381,-4.2508,-4.2602,-4.2602,-4.2602,-4.2602,-4.2602,-4.2602,-4.2602,-4.2602,-4.2602,-4.2602,-4.2602,-4.2602,-4.2602,-4.2602,-4.2602,-4.2602,-4.2602,-4.2602,-4.1842,-4.0496,-4.0496,-3.9719,-3.8391,-3.8391,-3.8391,-3.8391,-3.8391,-3.8391,-3.8391,-3.8391,-3.8391,-3.8391,-3.8391,-3.8004,-3.7417,-3.6978,-3.6978,-3.6978,-3.6978,-3.6978,-3.6978,-3.6978,-3.6978,-3.6978,-3.6978,-3.6978,-3.6978,-3.6978,-3.6978,-3.6978,-3.6978,-3.6978,-3.6978,-3.6978,-3.6978,-3.6978,-3.6978,-3.6978,-3.6978,-3.6978,-3.6978,-3.6978,-3.6978,-3.6978,-3.6978,-3.6978,-3.6978,-3.6978,-3.6978,-3.6978,-3.6978,-3.6978,-3.6978,-3.6978,-3.6978,-3.6978,-3.6978,-3.6978,-3.6978,-3.6978,-3.6978,-3.6978,-3.6978,-3.6978,-3.6978,-3.6978,-3.6978,-3.6978,-3.6978,-3.6978,-3.6978,-3.6978,-3.7109,-3.7495,-3.7625,-3.7739,-3.8254,-3.8441,-3.8553,-3.8745,-3.8907,-3.898,-3.898,-3.909,-3.9184,-3.9307,-3.9487,-3.9702,-4.0005,-4.0439,-4.0885,-4.1223,-4.1703,-4.2093,-4.2254,-4.2476,-4.2571,-4.2539,-4.2508,-4.2508,-4.2508,-4.2508,-4.2539,-4.2602,-4.2602,-4.2602,-4.2602,-4.2602,-4.2602,-4.2602,-4.2602,-4.2602,-4.2602,-4.2602,-4.1842,-4.0496,-4.0496,-3.9719,-3.8391,-3.8391,-3.8391,-3.8391,-3.8391,-3.8391,-3.8391,-3.8391,-3.8391,-3.8391,-3.8351,-3.7947,-3.7342,-3.6978,-3.6978,-3.6978,-3.6978,-3.6978,-3.6978,-3.6978,-3.6978,-3.6978,-3.6978,-3.6978,-3.6978,-3.6978,-3.6978,-3.6978,-3.6978,-3.6978,-3.6978,-3.6978,-3.6978,-3.6978,-3.6978,-3.6978,-3.6978,-3.6978,-3.6978,-3.6978,-3.6978,-3.6978,-3.6978,-3.6978,-3.6978,-3.6978,-3.6978,-3.6978,-3.6978,-3.6978,-3.6978,-3.6978,-3.6978,-3.6978,-3.6978,-3.6978,-3.6978,-3.6978,-3.6978,-3.6978,-3.6978,-3.6978,-3.6978,-3.6978,-3.6978,-3.6978,-3.6978,-3.6978,-3.6978,-3.6978,-3.707,-3.7457,-3.7586,-3.7687,-3.8104,-3.8315,-3.8516,-3.8708,-3.8745,-3.8745,-3.8745,-3.8745,-3.8745,-3.8745,-3.8907,-3.9104,-3.9301,-3.9809,-4.0285,-4.0715,-4.1388,-4.1882,-4.2045,-4.2333,-4.2476,-4.2349,-4.2318,-4.2349,-4.2349,-4.2381,-4.2445,-4.2571,-4.2602,-4.2602,-4.2602,-4.2602,-4.2602,-4.2602,-4.2602,-4.2602,-4.2602,-4.2602,-4.1842,-4.0496,-4.0496,-3.9719,-3.8391,-3.8391,-3.8391,-3.8391,-3.8391,-3.8391,-3.8391,-3.8391,-3.8391,-3.8363,-3.8266,-3.786,-3.7387,-3.6978,-3.6978,-3.6978,-3.6978,-3.6978,-3.6978,-3.6978,-3.6978,-3.6978,-3.6978,-3.6978,-3.6978,-3.6978,-3.6978,-3.6978,-3.6978,-3.6978,-3.6978,-3.6978,-3.6978,-3.6978,-3.6978,-3.6978,-3.6978,-3.6978,-3.6978,-3.6978,-3.6978,-3.6978,-3.6978,-3.6978,-3.6978,-3.6978,-3.6978,-3.6978,-3.6978,-3.6978,-3.6978,-3.6978,-3.6978,-3.6978,-3.6978,-3.6978,-3.6978,-3.6978,-3.6978,-3.6978,-3.6978,-3.6978,-3.6978,-3.6978,-3.6978,-3.6978,-3.6978,-3.6978,-3.6978,-3.6978,-3.707,-3.7303,-3.7457,-3.7663,-3.7891,-3.8104,-3.8277,-3.8315,-3.8315,-3.8315,-3.8315,-3.8315,-3.8315,-3.8315,-3.8501,-3.8701,-3.8907,-3.9415,-4.0001,-4.0489,-4.1055,-4.1489,-4.1687,-4.1915,-4.198,-4.1785,-4.1785,-4.1834,-4.1996,-4.2093,-4.2238,-4.2445,-4.2539,-4.2602,-4.2602,-4.2602,-4.2602,-4.2602,-4.2602,-4.2602,-4.2602,-4.2602,-4.1842,-4.0496,-4.0496,-3.9719,-3.8391,-3.8391,-3.8391,-3.8391,-3.8391,-3.8391,-3.8391,-3.8391,-3.8391,-3.8363,-3.8266,-3.7963,-3.7537,-3.685,-3.6915,-3.6978,-3.6978,-3.6978,-3.6978,-3.6978,-3.6978,-3.6978,-3.6978,-3.6978,-3.6978,-3.6978,-3.6978,-3.6978,-3.6978,-3.6978,-3.6978,-3.6978,-3.6978,-3.6978,-3.6978,-3.6978,-3.6978,-3.6978,-3.6978,-3.6978,-3.6978,-3.6978,-3.6978,-3.6978,-3.6978,-3.6978,-3.6978,-3.6978,-3.6978,-3.6978,-3.6978,-3.6978,-3.6978,-3.6978,-3.6978,-3.6978,-3.6978,-3.6978,-3.6978,-3.6978,-3.6978,-3.6978,-3.6978,-3.6978,-3.6978,-3.6978,-3.6978,-3.6978,-3.6978,-3.6978,-3.7017,-3.7264,-3.738,-3.7534,-3.7815,-3.7929,-3.7953,-3.8165,-3.8202,-3.8202,-3.8202,-3.8202,-3.8202,-3.8202,-3.8277,-3.8441,-3.8612,-3.909,-3.961,-4.0126,-4.0631,-4.1039,-4.1323,-4.1423,-4.139,-4.1223,-4.1223,-4.1339,-4.1571,-4.185,-4.2125,-4.2381,-4.2539,-4.2602,-4.2602,-4.2602,-4.2602,-4.2602,-4.2602,-4.2602,-4.2602,-4.2294,-4.1549,-4.048,-4.0156,-3.9428,-3.8391,-3.8391,-3.8391,-3.8391,-3.8391,-3.8391,-3.8391,-3.8391,-3.8391,-3.8363,-3.8135,-3.7801,-3.7419,-3.6642,-3.6811,-3.6954,-3.6954,-3.6993,-3.6978,-3.6978,-3.6978,-3.6978,-3.6978,-3.6978,-3.6978,-3.6978,-3.6978,-3.6978,-3.6978,-3.6978,-3.6978,-3.6978,-3.6978,-3.6978,-3.6978,-3.6978,-3.6978,-3.6978,-3.6978,-3.6978,-3.6978,-3.6978,-3.6978,-3.6978,-3.6978,-3.6978,-3.6978,-3.6978,-3.6978,-3.6978,-3.6978,-3.6978,-3.6978,-3.6978,-3.6978,-3.6978,-3.6978,-3.6978,-3.6978,-3.6978,-3.6978,-3.6978,-3.6978,-3.6978,-3.6978,-3.6978,-3.6978,-3.6978,-3.6978,-3.6978,-3.7017,-3.7187,-3.7264,-3.738,-3.7701,-3.7701,-3.7687,-3.8014,-3.8127,-3.8127,-3.8127,-3.8165,-3.8202,-3.8202,-3.8202,-3.8277,-3.8478,-3.8811,-3.9235,-3.9722,-4.0146,-4.0493,-4.0817,-4.0786,-4.0718,-4.0612,-4.0627,-4.0833,-4.1189,-4.162,-4.198,-4.2318,-4.2508,-4.2602,-4.2571,-4.2571,-4.2539,-4.2492,-4.2539,-4.2506,-4.2377,-4.1727,-4.111,-4.0464,-3.9813,-3.9116,-3.8391,-3.8391,-3.8391,-3.8391,-3.8391,-3.8391,-3.8391,-3.8391,-3.8391,-3.8363,-3.8049,-3.7685,-3.7314,-3.6445,-3.6589,-3.6747,-3.6747,-3.6875,-3.6978,-3.6978,-3.6978,-3.6978,-3.6978,-3.6978,-3.6978,-3.6978,-3.6978,-3.6978,-3.6978,-3.6978,-3.6978,-3.6978,-3.6978,-3.6978,-3.6978,-3.6978,-3.6978,-3.6978,-3.6978,-3.6978,-3.6978,-3.6978,-3.6978,-3.6978,-3.6978,-3.6978,-3.6978,-3.6978,-3.6978,-3.6978,-3.6978,-3.6978,-3.6978,-3.6978,-3.6978,-3.6978,-3.6978,-3.6978,-3.6978,-3.6978,-3.6978,-3.6978,-3.6978,-3.6978,-3.6978,-3.6978,-3.6978,-3.6978,-3.6978,-3.6978,-3.7017,-3.7017,-3.7187,-3.7303,-3.738,-3.7495,-3.761,-3.7649,-3.7815,-3.7929,-3.7929,-3.8066,-3.8202,-3.8202,-3.8202,-3.8277,-3.8478,-3.8686,-3.898,-3.94,-3.9666,-3.9824,-3.9895,-3.9737,-3.9687,-3.9824,-4.0016,-4.0331,-4.0833,-4.1372,-4.1785,-4.2109,-4.2445,-4.2539,-4.2445,-4.2413,-4.2333,-4.2174,-4.2349,-4.2107,-4.1479,-4.0906,-4.0594,-4.0464,-3.9813,-3.9116,-3.8391,-3.8391,-3.8391,-3.8391,-3.8391,-3.8391,-3.8391,-3.8391,-3.8391,-3.8363,-3.8237,-3.802,-3.7801,-3.6192,-3.6484,-3.6721,-3.6721,-3.685,-3.6978,-3.6978,-3.6978,-3.6978,-3.6978,-3.6978,-3.6978,-3.6978,-3.6978,-3.6978,-3.6978,-3.6978,-3.6978,-3.6978,-3.6978,-3.6978,-3.6978,-3.6978,-3.6978,-3.6978,-3.6978,-3.6978,-3.6978,-3.6978,-3.6978,-3.6978,-3.6978,-3.6978,-3.6978,-3.6978,-3.6978,-3.6978,-3.6978,-3.6978,-3.6978,-3.6978,-3.6978,-3.6978,-3.6978,-3.6978,-3.6978,-3.6978,-3.6978,-3.6978,-3.6978,-3.6978,-3.6978,-3.6978,-3.6978,-3.6978,-3.6978,-3.6978,-3.6978,-3.6978,-3.707,-3.7148,-3.7264,-3.7264,-3.7303,-3.7419,-3.7495,-3.7625,-3.7853,-3.7967,-3.8028,-3.8028,-3.7953,-3.7877,-3.7991,-3.8165,-3.8412,-3.8671,-3.8907,-3.9068,-3.9162,-3.9126,-3.9147,-3.9358,-3.9661,-4.0086,-4.0765,-4.129,-4.1785,-4.2238,-4.2476,-4.2539,-4.2413,-4.2413,-4.2318,-4.2109,-4.2318,-4.2011,-4.1303,-4.0776,-4.0286,-3.9927,-3.9201,-3.8699,-3.8391,-3.8391,-3.8391,-3.8391,-3.8391,-3.8391,-3.8391,-3.8391,-3.8335,-3.8294,-3.8237,-3.8078,-3.7934]}]]